     2.11           OBSERVATION DATA    G (GPS)             RINEX VERSION / TYPE
teqc 2010Oct21 OPUS Account 20111028 22:04:55UTC            PGM / RUN BY / DATE
N0280045                                                    MARKER NAME
1117                                                        MARKER NUMBER
CSMIDDLETON NGS                                             OBSERVER / AGENCY
0220320139 TRIMBLE 5700 2.01                                REC # / TYPE / VERS
12696910 TRM41249.00 NONE                                   ANT # / TYPE
  -739371.0693 -5484471.8233  3160544.6136                  APPROX POSITION XYZ
        2.0000        0.0000        0.0000                  ANTENNA: DELTA H/E/N
     1     1                                                WAVELENGTH FACT L1/2
     5    L1    L2    C1    P1    P2                        # / TYPES OF OBSERV
    15                                                      LEAP SECONDS
  2011     9    21    19     5   30.0000000     GPS         TIME OF FIRST OBS
                                                            END OF HEADER
 11  9 21 19  5 30.0000000  0  6G08G04G09G17G28G26
    815817.98057    609209.47754  22761948.9534                   22761954.0314
  -1103927.52358   -819782.93056  21243762.9224                   21243764.9694
   -635196.15656   -491647.84853  23867085.7034                   23867090.6484
   -101452.27758    -76051.33656  20861586.0944                   20861586.1024
   -188986.43058   -146104.71156  21157511.5474                   21157511.3444
    169278.37956    120597.02753  24956588.3204                   24956596.2234
 11  9 21 19  6  0.0000000  0  7G02G08G04G09G17G28G26
   -205935.69956   -154292.12953  24765450.0634                   24765457.1414
    902100.51647    676442.39844  22778367.7974                   22778373.0044
  -1213157.86347   -904897.41846  21222976.3284                   21222979.3524
   -756663.47346   -586297.60243  23843971.1804                   23843976.9614
   -112430.91048    -84606.14546  20859496.7194                   20859496.9734
   -208966.62147   -161673.73846  21153709.3674                   21153708.9494
    223168.54346    162589.02743  24966843.9924                   24966851.5944
 11  9 21 19  6 30.0000000  0  7G02G08G04G09G17G28G26
   -334436.13346   -254422.15643  24740997.2504                   24741002.8134
    988438.47747    743718.48044  22794797.4924                   22794802.5394
  -1322164.41447   -989837.52746  21202233.5634                   21202235.6804
   -877965.43746   -680818.52743  23820887.2664                   23820892.6134
   -123395.59848    -93150.07446  20857410.1644                   20857410.2034
   -228872.27347   -177184.68046  21149921.1484                   21149920.7734
    276886.01646    204446.53943  24977066.1954                   24977073.7074
 11  9 21 19  7  0.0000000  0  7G02G08G04G09G17G28G26
   -463056.23446   -354645.40643  24716521.8524                   24716526.6254
   1074842.73047    811046.20744  22811239.6484                   22811245.4224
  -1430931.21147  -1074590.80146  21181535.3284                   21181537.7114
   -999085.48446   -775197.72343  23797839.3674                   23797844.3754
   -134333.67648   -101673.27046  20855328.8134                   20855328.7814
   -248688.12947   -192625.64846  21146150.5234                   21146150.8204
    330441.74246    246177.98043  24987258.3594                   24987264.5784
 11  9 21 19  7 30.0000000  0  7G02G08G04G09G17G28G26
   -591774.70746   -454945.25043  24692026.3594                   24692031.8054
   1161329.25447    878438.05544  22827698.3914                   22827703.5274
  -1539436.46147  -1159140.29746  21160887.9224                   21160889.7234
  -1120001.25846   -869417.75443  23774830.9384                   23774835.4534
   -145227.38348   -110161.89546  20853255.7344                   20853255.7664
   -268393.55147   -207980.55146  21142400.7584                   21142400.9694
    383851.90246    287795.99243  24997422.4454                   24997429.2504
 11  9 21 19  8  0.0000000  0  7G02G08G04G09G17G28G26
   -720637.01647   -555357.21143  24667504.5394                   24667510.0864
   1247847.53947    945854.65244  22844162.0704                   22844167.8754
  -1647724.99248  -1243520.92646  21140281.3754                   21140283.2734
  -1240757.48047   -963513.44944  23751851.3134                   23751855.5394
   -156125.16048   -118653.68446  20851181.8674                   20851182.1054
   -288034.55547   -223285.26246  21138663.2814                   21138663.3014
    437065.64846    329260.97343  25007548.2584                   25007556.1174
 11  9 21 19  8 30.0000000  0  7G02G08G04G09G17G28G26
   -849537.33246   -655798.81243  24642975.6804                   24642982.2344
   1334498.57047   1013374.70344  22860651.3834                   22860657.4964
  -1755690.68747  -1327649.98846  21119735.5554                   21119737.8484
  -1361247.11747  -1057401.39543  23728922.6414                   23728927.6134
   -166924.35548   -127068.64546  20849126.9844                   20849126.8524
   -307505.94147   -238457.80546  21134957.7814                   21134958.0744
    490184.21147    370651.82443  25017656.4224                   25017662.6024
 11  9 21 19  9  0.0000000  0  7G02G08G04G09G17G28G26
   -978505.60247   -756293.32844  24618433.0234                   24618440.9304
   1421247.68447   1080971.16844  22877159.9224                   22877165.5314
  -1863363.09047  -1411550.51646  21099246.1174                   21099248.8014
  -1481499.18446  -1151104.22344  23706039.3674                   23706044.1174
   -177658.24648   -135432.73446  20847084.0704                   20847084.3204
   -326838.40248   -253522.08646  21131279.1174                   21131280.0314
    543172.37946    411941.02343  25027739.3444                   25027748.2774
 11  9 21 19  9 30.0000000  0  7G02G08G04G09G17G28G26
  -1107543.67247   -856842.19544  24593878.6564                   24593886.5634
   1508087.37147   1148638.23844  22893684.6644                   22893690.5864
  -1970744.01648  -1495223.90646  21078812.5314                   21078814.8794
  -1601514.34446  -1244622.42244  23683201.1564                   23683206.3364
   -188331.98048   -143749.95346  20845053.0634                   20845053.5514
   -346034.60248   -268480.19546  21127626.2734                   21127626.2034
    596023.00846    453123.04343  25037796.5554                   25037804.8444
 11  9 21 19 10  0.0000000  0  7G02G08G04G09G17G28G26
  -1236649.98047   -957444.30944  24569310.2974                   24569318.5164
   1595013.92247   1216372.94544  22910226.0314                   22910232.5124
  -2077831.30948  -1578668.51646  21058433.9534                   21058436.2074
  -1721290.39546  -1337954.37144  23660408.4774                   23660412.6804
   -198946.98048   -152021.40246  20843033.3134                   20843033.4414
   -365093.41848   -283331.25846  21123999.5704                   21123998.9574
    648732.62146    494195.17642  25047826.2734                   25047834.4694
 11  9 21 19 10 30.0000000  0  7G02G08G04G09G17G28G26
  -1365815.54747  -1058092.58644  24544731.2274                   24544738.8444
   1682031.44547   1284178.57444  22926785.0234                   22926791.1374
  -2184615.69548  -1661877.07846  21038113.5474                   21038116.3714
  -1840817.20346  -1431092.00844  23637663.0234                   23637667.6804
   -209497.46948   -160242.57446  20841025.6174                   20841026.3444
   -384006.53148   -298068.78146  21120400.3284                   21120400.4104
    701305.50446    535160.76242  25057831.2584                   25057840.5234
 11  9 21 19 11  0.0000000  0  7G02G08G04G09G17G28G26
  -1495033.61746  -1158781.77044  24520141.3204                   24520149.6294
   1769142.00447   1352056.68844  22943362.1254                   22943367.6724
  -2291089.91448  -1744843.95746  21017851.9774                   21017854.5824
  -1960087.08646  -1524029.43743  23614966.4454                   23614971.1914
   -219980.02748   -168410.81646  20839030.7034                   20839031.0634
   -402767.89848   -312688.07846  21116830.3984                   21116830.8874
    753743.12545    576020.85942  25067810.4534                   25067820.7274
 11  9 21 19 11 30.0000000  0  7G02G08G04G09G17G28G26
  -1624298.29346  -1259507.27043  24495541.8984                   24495550.5514
   1856346.00847   1420007.58644  22959955.9144                   22959962.7544
  -2397248.13348  -1827564.60546  20997651.2734                   20997653.7384
  -2079093.25846  -1616761.40644  23592320.6094                   23592324.8874
   -230391.91848   -176524.00046  20837049.3834                   20837049.2664
   -421372.62148   -327185.28946  21113289.5784                   21113289.6254
    806045.87946    616775.99242  25077764.5474                   25077772.3594
 11  9 21 19 12  0.0000000  0  8G02G20G08G04G09G17G28G26
  -1753601.48046  -1360262.79343  24470936.7344                   24470943.7854
   -407002.95756   -311199.07853  24122972.4224                   24122976.1724
   1943646.33247   1488033.55144  22976569.4924                   22976575.8484
  -2503082.09848  -1910032.59446  20977511.9534                   20977513.9964
  -2197826.64846  -1709280.84043  23569725.8204                   23569730.6954
   -240728.42648   -184578.45346  20835082.7734                   20835082.9844
   -439813.44948   -341554.80546  21109780.8284                   21109781.0084
     28151.10956     10335.60253  25087692.2034                   25087701.3094
 11  9 21 19 12 30.0000000  0  8G02G20G08G04G09G17G28G26
  -1882936.98846  -1461043.52043  24446324.4224                   24446331.3404
   -453062.52746   -347089.60943  24114207.5554                   24114211.3874
   2031044.44147   1556135.71544  22993200.8594                   22993207.4804
  -2608584.88748  -1992242.51646  20957435.0394                   20957437.4494
  -2316279.85546  -1801581.92244  23547185.2274                   23547190.7934
   -250986.23048   -192571.56246  20833130.5634                   20833130.6174
   -458084.28148   -355791.85246  21106303.8594                   21106305.0594
     50651.40656     26521.98053  25097595.4384                   25097603.3674
 11  9 21 19 13  0.0000000  0  8G02G20G08G04G09G17G28G26
  -2012298.32046  -1561844.32443  24421707.7894                   24421714.4024
   -498800.57046   -382729.60243  24105503.9224                   24105508.7194
   2118541.81347   1624315.22344  23009850.8284                   23009858.5864
  -2713749.99248  -2074189.29346  20937422.5394                   20937425.3244
  -2434445.54746  -1893659.01643  23524700.0004                   23524703.4224
   -261162.26648   -200500.97346  20831194.4304                   20831194.4304
   -476179.42648   -369891.99246  21102860.3834                   21102860.7344
    102563.91047     66972.98043  25107474.8364                   25107481.8634
 11  9 21 19 13 30.0000000  0  8G02G20G08G04G09G26G17G28
  -2141678.87946  -1662660.15643  24397086.3984                   24397093.9774
   -544211.04746   -418114.34843  24096863.2114                   24096866.7584
   2206139.56647   1692572.94145  23026521.2584                   23026527.7034
  -2818570.48448  -2155867.54746  20917475.8914                   20917478.4574
  -2552316.14146  -1985506.16443  23502268.8674                   23502272.7624
                     44407.18416  25117328.875
   -271252.93448   -208363.85946  20829274.1954                   20829274.3444
   -494093.24648   -383850.84846  21099451.6564                   21099452.4534
 11  9 21 19 14  0.0000000  0  7G02G20G08G04G09G17G28
  -2271075.86746  -1763488.84043  24372462.9454                   24372469.8874
   -589291.74246   -453242.11743  24088284.1804                   24088287.8794
   2293835.33647   1760907.03544  23043208.8914                   23043216.0124
  -2923043.50048  -2237275.05146  20897595.5634                   20897598.4694
  -2669888.55146  -2077120.96543  23479895.9064                   23479899.2504
   -281258.82048   -216160.68746  20827370.0004                   20827370.0234
   -511823.70748   -397666.81646  21096077.8674                   21096078.0904
 11  9 21 19 14 30.0000000  0  7G02G20G08G04G09G17G28
  -2400464.32046  -1864310.80943  24347842.2194                   24347847.5124
   -634017.44946   -488093.25043  24079773.3444                   24079776.7034
   2381649.52347   1829333.37944  23059919.4774                   23059926.7814
  -3027143.66048  -2318392.00046  20877786.2894                   20877787.7544
  -2787136.57846  -2168483.01643  23457584.3284                   23457586.4964
   -291158.14848   -223874.47346  20825486.2274                   20825486.2584
   -529346.29348   -411320.81646  21092743.1564                   21092743.6254
 11  9 21 19 15  0.0000000  0  7G02G20G08G04G09G17G28
  -2529804.63346  -1965095.30943  24323229.6804                   24323234.2894
   -678348.89546   -522637.18743  24071336.3594                   24071339.9774
   2469616.48447   1897878.78544  23076659.5864                   23076666.5904
  -3130831.01248  -2399187.28146  20858054.8914                   20858056.7304
  -2904019.38746  -2259560.48043  23435342.2974                   23435344.9304
   -300913.84848   -231476.34846  20823629.5084                   20823630.0744
   -546621.94548   -424782.39546  21089455.7814                   21089456.4024
 11  9 21 19 15 30.0000000  0  7G02G20G08G04G09G17G28
  -2659089.24647  -2065836.39544  24298628.0004                   24298632.2934
   -722279.12546   -556868.53143  24062977.4924                   24062980.6644
   2557738.54747   1966545.04744  23093428.9224                   23093435.4924
  -3234098.05548  -2479655.06246  20838403.9614                   20838406.1454
  -3020528.82846  -2350346.96943  23413171.1024                   23413174.9924
   -310522.37948   -238963.55146  20821801.2194                   20821801.6804
   -563644.27048   -438046.57446  21086216.3834                   21086217.3794
 11  9 21 19 16  0.0000000  0  7G02G20G08G04G09G17G28
  -2788325.69546  -2166539.93443  24274034.1024                   24274040.1644
   -765816.00846   -590793.39143  24054691.9844                   24054695.8634
   2646003.12147   2035322.34444  23110224.5234                   23110232.0554
  -3336952.23448  -2559801.12546  20818831.1644                   20818833.2344
  -3136671.17246  -2440847.43443  23391069.6954                   23391073.6174
   -319993.89148   -246343.97746  20819999.2194                   20819999.4614
   -580421.22348   -451119.55946  21083024.0394                   21083023.9694
 11  9 21 19 16 30.0000000  0  7G02G20G08G04G09G17G28
  -2917521.05947  -2267211.44144  24249449.1724                   24249454.8284
   -808966.85246   -624417.38743  24046480.9694                   24046484.4574
   2734398.14147   2104201.27744  23127046.9534                   23127053.4224
  -3439400.10948  -2639630.59446  20799335.8834                   20799337.9534
  -3252452.66446  -2531066.68744  23369037.2664                   23369041.6564
   -329338.45748   -253625.48446  20818220.8834                   20818220.6684
   -596960.56248   -464007.40246  21079877.0164                   21079876.2894
 11  9 21 19 17  0.0000000  0  7G02G20G08G04G09G17G28
  -3046677.30946  -2367852.48844  24224871.9064                   24224877.4344
   -851734.23046   -657742.62143  24038342.7194                   24038345.8954
   2822916.08647   2173176.00444  23143891.1484                   23143898.4224
  -3541443.93748  -2719145.20346  20779917.3674                   20779919.8204
  -3367874.63747  -2621005.83644  23347073.1804                   23347077.0314
   -338561.62948   -260812.39846  20816465.4384                   20816466.1094
   -613265.32048   -476712.45746  21076774.0944                   21076774.2194
 11  9 21 19 17 30.0000000  0  7G02G20G08G04G09G17G28
  -3175796.82046  -2468464.85944  24200299.7584                   24200306.6684
   -894120.66446   -690770.92243  24030276.6254                   24030279.3014
   2911549.91847   2242241.03544  23160757.6484                   23160764.4804
  -3643085.50048  -2798346.37146  20760575.8524                   20760578.2774
  -3482938.18447  -2710665.67244  23325177.6024                   23325180.7544
   -347668.62548   -267908.79346  20814732.9064                   20814733.3984
   -629338.08248   -489236.72346  21073716.1414                   21073715.7544
 11  9 21 19 18  0.0000000  0  7G02G20G08G04G09G17G28
  -3304878.76246  -2569047.97344  24175736.6804                   24175742.2894
   -936126.22346   -723502.54343  24022283.4694                   24022287.7464
   3000295.05547   2311392.77744  23177645.4614                   23177652.4844
  -3744324.09848  -2877233.55146  20741310.8984                   20741312.7274
  -3597642.02746  -2800045.20744  23303349.3444                   23303353.2424
   -356661.98848   -274916.61746  20813021.3834                   20813022.1484
   -645179.25848   -501580.54746  21070701.0394                   21070701.1484
 11  9 21 19 18 30.0000000  0  7G02G20G08G04G09G17G28
  -3433922.97746  -2669601.70744  24151180.3444                   24151185.4384
   -977750.89546   -755937.33643  24014362.6334                   24014366.6374
   3089147.03147   2380627.80144  23194553.8524                   23194560.4144
  -3845159.57448  -2955806.60946  20722122.3674                   20722124.0784
  -3711984.68446  -2889143.32444  23281591.5004                   23281595.3484
   -365544.55148   -281838.11746  20811330.9844                   20811331.9534
   -660789.36748   -513744.30546  21067730.7894                   21067730.3444
 11  9 21 19 19  0.0000000  0  7G02G20G08G04G09G17G28
  -3562924.71146  -2770122.33243  24126632.1024                   24126637.5044
  -1018990.39846   -788071.98043  24006515.1094                   24006518.5704
   3178105.50047   2449945.77044  23211482.9694                   23211488.8984
  -3945586.86347  -3034061.59446  20703011.6414                   20703013.3324
  -3825960.61346  -2977955.66844  23259902.3284                   23259905.8554
   -374314.69147   -288672.01646  20809662.0864                   20809662.7234
   -676164.12148   -525724.66846  21064804.7194                   21064805.1024
 11  9 21 19 19 30.0000000  0  7G02G20G08G04G09G17G28
  -3691882.66446  -2870608.83244  24102092.5314                   24102097.6484
  -1059843.69146   -819905.67243  23998740.1174                   23998744.4494
   3267166.55146   2519343.67643  23228430.3054                   23228438.1764
  -4045604.59047  -3111997.43046  20683978.5084                   20683981.2344
  -3939567.96547  -3066480.80944  23238283.0394                   23238286.9104
   -382974.00447   -295419.55946  20808014.3134                   20808014.7934
   -691302.97748   -537521.21546  21061924.1484                   21061924.2974
 11  9 21 19 20  0.0000000  0  7G02G20G08G04G09G17G28
  -3820791.06646  -2971056.75443  24077561.7034                   24077566.3014
  -1100305.96546   -851434.70743  23991040.5944                   23991045.1994
   3356330.55146   2588821.80143  23245397.4924                   23245405.5824
  -4145207.22347  -3189609.81246  20665024.9064                   20665027.1414
  -4052800.21546  -3154713.69544  23216735.6254                   23216739.6644
   -391519.93447   -302078.75846  20806388.2664                   20806388.8594
   -706201.30148   -549130.35246  21059089.2344                   21059089.2424
 11  9 21 19 20 30.0000000  0  7G02G20G08G04G09G17G28
  -3949647.57046  -3071464.25443  24053041.3914                   24053044.7344
  -1140374.82046   -882657.19143  23983416.2114                   23983420.3834
   3445595.37546   2658378.46543  23262384.4924                   23262392.0084
  -4244391.75848  -3266896.41446  20646150.7504                   20646152.6604
  -4165653.75846  -3242651.43444  23195259.6884                   23195264.8754
   -399953.21548   -308650.15646  20804783.3444                   20804783.7854
   -720856.61348   -560550.12146  21056300.5084                   21056300.7114
 11  9 21 19 21  0.0000000  0  7G02G20G08G04G09G17G28
  -4078447.18046  -3171827.46143  24028531.9064                   24028535.1564
  -1180046.12946   -913569.88343  23975866.8134                   23975871.1294
   3534960.83646   2728013.53143  23279390.8914                   23279397.9264
  -4343153.24248  -3343853.37146  20627357.0784                   20627358.9384
  -4278122.58647  -3330289.39844  23173858.2274                   23173863.2074
   -408272.01248   -315132.34846  20803200.1954                   20803200.6414
   -735265.36348   -571777.76646  21053558.5944                   21053559.1804
 11  9 21 19 21 30.0000000  0  7G02G20G08G04G09G17G28
  -4207185.94146  -3272143.18744  24004032.4144                   24004037.6564
  -1219316.41446   -944170.12943  23968393.4534                   23968397.6914
   3624425.19946   2797725.71943  23296415.6024                   23296422.5514
  -4441488.41048  -3420478.10946  20608644.4144                   20608646.3794
  -4390202.33247  -3417624.19544  23152530.9064                   23152535.2034
   -416475.62548   -321524.79746  20801639.1254                   20801639.5394
   -749424.37548   -582810.80146  21050864.2274                   21050864.2934
 11  9 21 19 22  0.0000000  0  7G02G20G08G04G09G17G28
  -4335863.70346  -3372411.37144  23979545.2424                   23979551.3284
  -1258186.02346   -974458.18043  23960997.4144                   23961000.8484
   3713984.43046   2867511.84843  23313458.6884                   23313465.5514
  -4539396.18748  -3496769.83246  20590013.4304                   20590015.2424
  -4501892.07447  -3504655.08244  23131276.2894                   23131280.7664
   -424566.43048   -327829.34046  20800099.3134                   20800099.9454
   -763333.93048   -593649.46146  21048217.6724                   21048218.0984
 11  9 21 19 22 30.0000000  0  7G02G20G08G04G09G17G28
  -4464475.61746  -3472628.28944  23955071.4694                   23955077.6564
  -1296650.83646  -1004430.72743  23953676.3524                   23953682.0474
   3803637.78946   2937371.24643  23330520.1024                   23330526.9844
  -4636872.44548  -3572725.31646  20571464.2344                   20571466.0434
  -4613186.10247  -3591377.61744  23110097.3754                   23110102.4024
   -432542.98848   -334044.85946  20798581.4454                   20798582.4184
   -776990.28948   -604290.82046  21045618.7974                   21045619.1564
 11  9 21 19 23  0.0000000  0  7G02G20G08G04G09G17G28
  -4593016.57046  -3572789.88744  23930610.7584                   23930616.2894
  -1334706.10546  -1034084.21143  23946435.4384                   23946440.0354
   3893385.70746   3007304.30943  23347598.8754                   23347606.7504
  -4733911.61748  -3648340.21146  20552997.8284                   20552999.3524
  -4724078.23047  -3677787.02044  23088995.3674                   23088999.0554
   -440402.86347   -340169.46146  20797085.8284                   20797086.8634
   -790389.02348   -614731.42246  21043069.0084                   21043068.7464
 11  9 21 19 23 30.0000000  0  7G02G20G08G04G09G17G28
  -4721484.70746  -3672894.76244  23906164.3524                   23906169.2934
  -1372351.06645  -1063417.93743  23939271.7814                   23939275.2704
   3983225.11746   3077308.66842  23364694.4304                   23364702.5394
  -4830512.01248  -3723613.19146  20534615.4534                   20534617.1294
  -4834565.89147  -3763881.25844  23067970.7734                   23067973.6564
   -448147.62547   -346204.35946  20795612.2584                   20795613.0474
   -803528.89848   -624970.33246  21040568.8984                   21040568.5044
 11  9 21 19 24  0.0000000  0  7G02G20G08G04G09G17G28
  -4849873.63346  -3772937.91044  23881732.0634                   23881736.9964
  -1409579.41846  -1092426.99243  23932187.2664                   23932191.5984
   4073157.17646   3147385.24242  23381807.8914                   23381816.4574
  -4926667.32847  -3798539.36746  20516317.6484                   20516319.2234
  -4944642.04747  -3849654.81644  23047024.1484                   23047028.0704
   -455774.15247   -352147.12946  20794160.9774                   20794161.9414
   -816404.52748   -635003.32846  21038118.5704                   21038118.8014
 11  9 21 19 24 30.0000000  0  7G02G20G08G04G09G17G28
  -3402754.70747  -2645312.57444  24157109.7584                   24157113.9414
    129033.73045    106492.32043  24224976.2424                   24224979.9144
   5738597.76246   4445130.82442  23698731.8524                   23698739.1214
  -3446950.18448  -2645512.97746  20797898.7344                   20797900.3244
  -3478877.87947  -2707500.82844  23325948.9454                   23325953.2424
   1112139.52748    869603.77046  21092524.8364                   21092525.6134
    746408.58648    582773.08246  21335511.9924                   21335512.2894
 11  9 21 19 25  0.0000000  0  7G02G20G08G04G09G17G28
  -3530970.80146  -2745221.05944  24132711.7344                   24132714.1214
     92650.34446     78141.65643  24218052.2194                   24218056.0514
   5828713.83246   4515350.75042  23715880.4064                   23715888.4304
  -3542201.36348  -2719734.62146  20779772.8364                   20779774.4774
  -3588114.45347  -2792620.14844  23305162.1334                   23305166.0394
   1104755.37548    863849.85946  21091120.3134                   21091120.7584
    734073.94948    573161.63346  21333164.5234                   21333164.7464
 11  9 21 19 25 30.0000000  0  7G02G20G08G04G09G17G28
  -3659099.21147  -2845061.15643  24108329.0864                   24108331.6414
     56690.05945     50120.72743  24211209.5314                   24211213.8324
   5918915.83645   4585637.64842  23733045.2584                   23733053.9964
  -3636999.12148  -2793602.95746  20761733.3984                   20761734.7774
  -3696928.36747  -2877410.12144  23284455.6174                   23284459.7814
   1097489.04348    858187.75846  21089737.2344                   21089738.2974
    722009.88748    563761.02746  21330869.3054                   21330869.1604
 11  9 21 19 26  0.0000000  0  7G02G20G08G04G09G17G28
  -3787137.55946  -2944831.10244  24083963.3834                   24083967.6094
     21154.42646     22430.59443  24204447.1884                   24204451.9264
   6009201.27745   4655989.64142  23750226.4534                   23750234.5434
  -3731341.18448  -2867116.21546  20743780.5864                   20743782.1724
  -3805316.62947  -2961868.40644  23263829.6174                   23263832.0554
   1090340.44148    852617.39546  21088376.9924                   21088377.9064
    710218.20348    554572.65646  21328625.4774                   21328626.0394
 11  9 21 19 26 30.0000000  0  7G02G20G08G04G09G17G28
  -3915085.12546  -3044530.27344  24059615.3444                   24059621.5084
    -13956.69545     -4928.66843  24197765.4304                   24197770.1524
   6099565.77045   4726403.18042  23767424.6954                   23767430.7704
  -3825227.01248  -2940273.95346  20725914.2894                   20725915.7074
  -3913277.98847  -3045994.06644  23243285.7664                   23243288.2934
   1083306.90248    847136.69146  21087038.7424                   21087039.4344
    698698.51648    545596.22746  21326433.0944                   21326433.4454
 11  9 21 19 27  0.0000000  0  7G02G20G08G04G09G17G28
  -4042935.77046  -3144153.88344  24035285.7894                   24035292.7114
    -48638.03546    -31953.09843  24191166.7734                   24191170.5474
   6190010.27345   4796878.88342  23784641.2664                   23784642.9064
  -3918650.75448  -3013071.62546  20708136.3594                   20708137.8754
  -4020805.41447  -3129781.59044  23222823.2734                   23222826.5984
   1076391.55548    841748.08246  21085722.7114                   21085723.6844
    687456.01248    536835.77746  21324293.8674                   21324294.2464
 11  9 21 19 27 30.0000000  0  7G02G20G08G04G09G17G28
  -4170685.82846  -3243699.19944  24010976.6414                   24010982.3244
    -82886.41045    -58640.13343  24184648.7814                   24184653.6254
                                  23801857.336
  -4011608.71548  -3085506.36346  20690447.4064                   20690448.7814
  -4127894.60547  -3213227.65244  23202445.1254                   23202448.5664
   1069595.27748    836452.25046  21084429.0944                   21084430.1214
    676493.66048    528293.65246  21322207.9224                   21322208.1414
 11  9 21 19 28  0.0000000  0  7G02G20G08G04G09G17G28
  -4298331.42246  -3343163.06644  23986686.0394                   23986691.7584
   -116698.57855    -84987.28952  24178215.0554                   24178219.6414
   6371134.56315                  23819102.516
  -4104096.91848  -3157575.03146  20672847.6094                   20672849.9064
  -4234540.68047  -3296328.39144  23182150.8134                   23182154.8914
   1062919.01648    831249.94546  21083158.7974                   21083159.8634
    665815.14548    519972.68046  21320176.0944                   21320176.7814
 11  9 21 19 28 30.0000000  0  7G02G20G08G04G09G17G28
  -4425871.30546  -3442544.58644  23962416.1024                   23962420.9184
   -150074.57446   -110994.53142  24171863.2974                   24171867.8484
   6461809.36315                  23836356.227
  -4196114.82848  -3229277.25846  20655336.5554                   20655338.5164
  -4340742.29747  -3379082.80944  23161940.5394                   23161945.5204
   1056360.49248    826139.38746  21081911.0634                   21081911.2704
    655420.23448    511872.69146  21318197.9454                   21318198.4264
 11  9 21 19 29  0.0000000  0  7G02G20G08G04G09G17G28
  -4553301.99246  -3541840.98044  23938165.8134                   23938172.1054
   -183011.40246   -136659.62143  24165595.7034                   24165600.1884
                                  23853628.742
  -4287658.88348  -3300610.23846  20637916.2034                   20637918.5164
  -4446494.69547  -3461487.23444  23141817.5164                   23141821.9694
   1049920.57848    821121.23846  21080685.1024                   21080686.0234
    645311.81648    503995.96946  21316274.3594                   21316274.6994
 11  9 21 19 29 30.0000000  0  7G02G20G08G04G09G17G28
  -4680621.43046  -3641050.71544  23913937.7424                   23913942.5664
   -215507.74245   -161981.42642  24159412.1024                   24159415.8674
                                  23870908.305
  -4378727.37948  -3371572.66046  20620586.8204                   20620589.1884
  -4551795.55947  -3543539.78144  23121779.2974                   23121783.4654
   1043598.87148    816195.21546  21079482.5164                   21079483.1484
    635491.12948    496343.43046  21314405.4454                   21314406.2584
 11  9 21 19 30  0.0000000  0  6G02G20G04G09G17G28
  -4807824.81246  -3740170.03544  23889731.7664                   23889735.4224
   -247559.53546   -186956.89143  24153312.7734                   24153316.6564
  -4469315.49248  -3442160.75446  20603348.2974                   20603350.1214
  -4656639.16847  -3625236.01644  23101827.4064                   23101831.8554
   1037396.79348    811362.41046  21078302.5084                   21078302.4734
    625962.12148    488918.18846  21312592.2584                   21312592.9534
 11  9 21 19 30 30.0000000  0  7G02G20G08G04G09G17G28
  -4934913.05546  -3839199.63744  23865547.9924                   23865552.1764
   -279168.78946   -211587.47743  24147298.0784                   24147301.7814
   6825209.27315                  23905516.523
  -4559424.59848  -3512375.59446  20586201.1174                   20586203.0474
  -4761025.62947  -3706576.04344  23081963.3834                   23081967.4104
   1031310.62548    806619.91046  21077144.2344                   21077144.4654
    616723.00848    481718.82446  21310833.8834                   21310834.0944
 11  9 21 19 31  0.0000000  0  7G02G20G08G04G09G17G28
  -5061880.36346  -3938135.01244  23841386.7814                   23841390.7424
   -310330.67645   -235869.46543  24141367.2584                   24141372.9344
   6916223.473 5                  23922836.336
  -4649048.95748  -3582212.72746  20569146.2114                   20569147.6914
  -4864948.55947  -3787554.91844  23062188.0634                   23062191.1374
   1025343.09848    801969.86346  21076008.4774                   21076009.1644
    607778.73448    474749.21546  21309132.3914                   21309132.1914
 11  9 21 19 31 30.0000000  0  7G02G20G08G04G09G17G28
  -5188723.50446  -4036973.62944  23817248.5784                   23817253.5164
   -341042.33246   -259800.64543  24135523.3134                   24135528.9574
   7007300.176 5                  23940168.328
  -4738185.60248  -3651669.80546  20552184.1804                   20552186.2114
  -4968403.93747  -3868169.42244  23042500.8134                   23042504.1914
   1019495.14548    797412.99246  21074895.5004                   21074896.3554
    599131.97348    468011.43046  21307486.9384                   21307487.6094
 11  9 21 19 32  0.0000000  0  7G02G20G08G04G09G17G28
  -5315442.32846  -4135715.32044  23793133.8204                   23793139.8524
   -371304.94946   -283381.93043  24129765.2274                   24129768.4384
                                  23957515.453
  -4826835.07048  -3720747.27746  20535314.8524                   20535316.3554
  -5071391.56247  -3948419.45344  23022902.7734                   23022906.7034
   1013763.13748    792946.47346  21073805.2114                   21073805.7734
    590781.83648    461504.78546  21305897.9384                   21305898.1994
 11  9 21 19 32 30.0000000  0  6G02G20G04G09G17G28
  -5442033.87546  -4234357.86344  23769045.6484                   23769049.9574
   -401116.37545   -306611.66443  24124091.3834                   24124097.1094
  -4914994.37147  -3789442.80946  20518538.4924                   20518540.3204
  -5173907.55547  -4028301.99644  23003394.7424                   23003398.8204
   1008147.63748    788570.72746  21072736.6484                   21072737.4574
    582730.24248    455230.77046  21304365.7034                   21304365.7304
 11  9 21 19 33  0.0000000  0  6G02G20G04G09G17G28
  -5568496.55546  -4332900.00844  23744979.0704                   23744984.3634
   -430475.91846   -329489.23442  24118504.9064                   24118510.4774
  -5002662.16448  -3857755.32046  20501855.6174                   20501857.6564
  -5275949.60247  -4107815.24244  22983976.8914                   22983980.2704
   1002647.42647    784284.83646  21071689.9144                   21071690.3404
    574978.27748    449190.23046  21302890.7974                   21302890.4454
 11  9 21 19 33 30.0000000  0  6G02G20G04G09G17G28
  -5694827.34946  -4431339.34444  23720939.5314                   23720942.9734
   -459381.24646   -352012.84843  24113004.6564                   24113009.0394
  -5089835.72348  -3925682.72346  20485267.2344                   20485268.9414
  -5377514.14547  -4186956.40244  22964649.8284                   22964652.9104
    997262.87948    780089.07446  21070664.7894                   21070665.5704
    567528.11348    443384.85946  21301472.7734                   21301472.8014
 11  9 21 19 34  0.0000000  0  6G02G20G04G09G17G28
  -5821023.07046  -4529673.50044  23696924.6094                   23696928.9494
   -487830.63745   -374181.24242  24107589.3444                   24107595.3554
  -5176512.37548  -3993222.94946  20468773.3444                   20468774.7894
  -5478597.35247  -4265722.46944  22945414.1484                   22945417.9104
    991993.91848    775983.37146  21069662.7194                   21069662.9924
    560381.72748    437816.18846  21300113.2734                   21300113.7624
 11  9 21 19 34 30.0000000  0  6G02G20G04G09G17G28
  -5947083.38746  -4627902.12144  23672936.5004                   23672940.5164
   -515824.54746   -395994.68443  24102264.0164                   24102268.0784
  -5262692.36748  -4060376.14846  20452373.5554                   20452375.6684
  -5579198.53147  -4344112.95744  22926270.2274                   22926273.8634
    986837.96947    771965.73046  21068681.3594                   21068681.9104
    553538.53947    432483.77746  21298811.0084                   21298811.9024
 11  9 21 19 35  0.0000000  0  6G02G20G04G09G17G28
  -6073004.66846  -4726022.37544  23648974.5944                   23648979.0084
   -543360.38346   -417451.16843  24097023.6804                   24097028.8594
  -5348372.24248  -4127139.64546  20436069.1334                   20436070.8914
  -5679313.21947  -4422124.35544  22907218.3914                   22907222.7234
    981796.37548    768037.19946  21067722.1094                   21067722.6524
    547001.55547    427389.99246  21297566.5944                   21297567.3794
 11  9 21 19 35 30.0000000  0  6G02G20G04G09G17G28
  -6198786.35546  -4824033.89144  23625038.9304                   23625043.6374
   -570438.52746   -438551.00042  24091871.0554                   24091875.6724
  -5433551.88748  -4193513.36746  20419860.0474                   20419862.0664
  -5778940.57847  -4499756.00844  22888260.3134                   22888264.1844
    976866.55948    764195.76646  21066783.9064                   21066784.6564
    540770.67248    422534.70746  21296380.8834                   21296381.8204
 11  9 21 19 36  0.0000000  0  6G02G20G04G09G17G28
  -6324428.12546  -4921936.38344  23601129.8134                   23601134.4774
   -597059.61346   -459294.68742  24086804.4454                   24086809.6804
  -5518231.13348  -4259497.16446  20403745.9924                   20403747.6954
  -5878079.44547  -4577007.01644  22869394.9844                   22869398.9734
    972046.05948    760439.51646  21065866.6484                   21065866.7814
    534845.30948    417917.48446  21295253.5004                   21295253.8714
 11  9 21 19 36 30.0000000  0  6G02G20G04G09G17G28
  -6449924.01646  -5019725.19144  23577248.6804                   23577252.7624
   -623218.84845   -479678.53943  24081828.1564                   24081832.6334
  -5602404.75448  -4325086.96946  20387728.2894                   20387730.2114
  -5976723.57447  -4653872.53544  22850623.4144                   22850627.4144
    967337.91848    756770.80946  21064970.6724                   21064970.6334
    529230.14848    413541.98046  21294184.9224                   21294185.9804
 11  9 21 19 37  0.0000000  0  6G02G20G04G09G17G28
  -6575272.03547  -5117398.80944  23553396.2344                   23553399.4064
   -648915.10946   -499701.57442  24076937.5704                   24076942.9734
  -5686071.27748  -4390281.62146  20371807.2114                   20371809.2704
  -6074870.46147  -4730350.58644  22831946.8914                   22831950.4144
    962741.45348    753189.14546  21064096.2894                   21064096.3554
    523926.31648    409409.06346  21293175.9224                   21293176.4844
 11  9 21 19 37 30.0000000  0  6G02G20G04G09G17G28
  -6700474.94947  -5214959.34044  23529570.7424                   23529574.3914
   -674152.35545   -519366.87942  24072133.8204                   24072140.0944
  -5769233.67248  -4455083.45746  20355981.7034                   20355983.8594
  -6172522.06247  -4806442.69944  22813364.5864                   22813367.6254
    958251.60248    749690.55146  21063241.3054                   21063241.8444
    518930.34448    405516.05546  21292225.3134                   21292225.8754
 11  9 21 19 38  0.0000000  0  6G02G20G04G09G17G28
  -6825528.20347  -5312403.25044  23505773.5864                   23505777.1804
   -698926.93745   -538671.75042  24067421.6564                   24067424.0084
  -5851887.60248  -4519489.08646  20340253.2194                   20340255.1764
  -6269673.05547  -4882144.71144  22794877.1884                   22794879.9884
    953869.98448    746276.28146  21062408.0084                   21062408.8244
    514246.34448    401866.13346  21291333.7734                   21291334.4694
 11  9 21 19 38 30.0000000  0  6G02G20G04G09G17G28
  -6950428.71147  -5409728.16844  23482005.9694                   23482008.7974
   -723237.62546   -557615.14142  24062795.5474                   24062798.9344
  -5934031.16848  -4583497.01646  20324621.8594                   20324623.5394
  -6366320.63747  -4957454.47744  22776485.7894                   22776488.6804
    949596.46548    742946.25046  21061594.5394                   21061594.9264
    509875.75048    398460.41446  21290502.6024                   21290502.9344
 11  9 21 19 39  0.0000000  0  6G02G20G04G09G17G28
  -7075177.33646  -5506934.72744  23458266.4844                   23458269.8524
   -747085.64145   -576197.98442  24058254.8054                   24058259.9654
  -6015665.23048  -4647107.93746  20309087.3674                   20309089.4614
  -6462464.76646  -5032371.90644  22758190.1954                   22758193.1644
    945427.80948    739697.92646  21060801.2734                   21060801.9344
    505817.28548    395297.91046  21289730.2584                   21289730.6374
 11  9 21 19 39 30.0000000  0  6G02G20G04G09G17G28
  -7199778.66846  -5604026.50044  23434555.0944                   23434559.7344
   -770477.34855   -594425.17652  24053803.1724                   24053808.9144
  -6096795.41048  -4710326.21946  20293648.8444                   20293650.5784
  -6558109.93747  -5106900.57044  22739989.5474                   22739993.1294
    941356.47748    736525.44146  21060026.6564                   21060027.0744
    502064.93448    392373.94146  21289016.2504                   21289016.1134
 11  9 21 19 40  0.0000000  0  6G02G20G04G09G17G28
  -7324239.25046  -5701008.61344  23410871.0634                   23410874.9454
   -793420.36746   -612302.85242  24049439.2274                   24049442.3714
  -6177428.52748  -4773157.18446  20278304.9774                   20278306.2304
  -6653262.13747  -5181045.09844  22721882.5944                   22721885.7274
    937373.19148    733421.57446  21059268.5164                   21059269.2704
    498611.33247    389682.76246  21288359.1414                   21288359.3444
 11  9 21 19 40 30.0000000  0  6G02G20G04G09G17G28
  -7448550.68446  -5797874.49644  23387215.4614                   23387219.0744
   -815906.84845   -629824.76242  24045159.6094                   24045162.6844
  -6257556.56648  -4835594.59046  20263056.7344                   20263058.2814
  -6747912.41847  -5254798.49644  22703871.1174                   22703874.4574
    933484.00448    730391.00846  21058528.3674                   21058529.0084
    495464.48048    387230.60946  21287759.9144                   21287760.5744
 11  9 21 19 41  0.0000000  0  6G02G20G04G09G17G28
  -7572710.03546  -5894621.85944  23363587.8524                   23363592.1564
   -837935.46545   -646989.91042  24040967.0164                   24040972.0864
  -6337177.31648  -4897636.68046  20247905.1884                   20247907.0704
  -6842057.24247  -5328158.05944  22685955.8444                   22685959.3204
    929688.87548    727433.75046  21057806.2734                   21057807.1254
    492626.15247    385018.88346  21287219.7034                   21287219.9964
 11  9 21 19 41 30.0000000  0  6G02G20G04G09G17G28
  -7696710.57047  -5991245.48844  23339992.0314                   23339996.3404
   -859500.86345   -663794.09042  24036863.3204                   24036868.6764
  -6416284.68748  -4959278.74646  20232851.8524                   20232853.5704
  -6935689.63747  -5401118.28545  22668138.2034                   22668140.8324
    925992.22748    724553.21946  21057102.9774                   21057103.4654
    490102.18848    383052.07846  21286739.4774                   21286740.4104
 11  9 21 19 42  0.0000000  0  6G02G20G04G09G17G28
  -7820546.86746  -6087741.15245  23316426.8984                   23316430.6764
   -880598.26245   -680233.64542  24032849.7504                   24032853.2624
  -6494873.46148  -5020516.71946  20217896.9304                   20217898.0824
  -7028803.50046  -5473674.47745  22650419.1414                   22650423.5314
    922396.98847    721751.72346  21056418.7814                   21056419.0824
    487897.24247    381333.88346  21286320.3204                   21286320.4344
 11  9 21 19 42 30.0000000  0  6G02G20G04G09G17G28
  -7944216.93446  -6184107.28144  23292892.9844                   23292896.4494
   -901227.49245   -696308.25042  24028923.9454                   24028926.8754
  -6572942.71948  -5081349.86746  20203040.7894                   20203042.3094
  -7121396.91846  -5545825.12944  22632798.9694                   22632803.0234
    918902.14147    719028.45746  21055754.2814                   21055754.4654
    486011.89147    379864.71546  21285961.7424                   21285962.0394
 11  9 21 19 43  0.0000000  0  6G02G20G04G09G17G28
  -8067718.28147  -6280341.95744  23269391.4924                   23269394.2544
   -921387.41845   -712017.43742  24025087.5784                   24025091.0314
  -6650490.78548  -5141776.88746  20188283.7034                   20188285.1684
  -7213467.04346  -5617568.02745  22615279.0394                   22615283.2814
    915507.18848    716383.02346  21055107.7974                   21055108.4414
    484447.75448    378645.84446  21285664.0474                   21285664.5944
 11  9 21 19 43 30.0000000  0  6G02G20G04G09G17G28
  -8191050.48447  -6376444.82844  23245921.4384                   23245925.0864
   -941078.695 5                  24021338.289
  -6727517.51248  -5201797.67646  20173625.9924                   20173627.3954
  -7305012.98847  -5688902.44145  22597857.3754                   22597861.3594
    912210.46948    713814.14846  21054480.1484                   21054481.1844
    483204.66848    377677.13346  21285427.1094                   21285428.8794
 11  9 21 19 44  0.0000000  0  6G02G20G04G09G17G28
  -8314209.06247  -6472412.40644  23222484.7664                   23222488.5744
   -960298.535 6                  24017683.602
  -6804019.57448  -5261409.63346  20159068.2424                   20159070.0864
  -7396030.39547  -5759825.02344  22580537.2974                   22580540.5554
    909013.23448    711322.77746  21053872.0704                   21053872.6524
    482285.34048    376960.71946  21285252.9454                   21285252.3204
 11  9 21 19 44 30.0000000  0  6G02G20G04G09G17G28
  -8437191.52747  -6568242.73844  23199081.9224                   23199085.1724
   -979045.219 5                  24014116.242
  -6879994.80948  -5320611.08246  20144610.6954                   20144612.1134
  -7486515.85547  -5830333.14544  22563319.1954                   22563322.5044
    905915.90248    708909.25446  21053282.4614                   21053283.1414
    481691.90248    376498.23846  21285139.8054                   21285140.1254
 11  9 21 19 45  0.0000000  0  6G02G20G04G09G17G28
  -8559984.48047  -6663925.37944  23175715.1414                   23175718.9844
   -997306.699 5                  24010640.250
  -6955430.48848  -5379392.09846  20130255.6644                   20130256.8484
  -7576455.60547  -5900416.00844  22546204.0704                   22546206.8014
    902929.71948    706582.33646  21052714.4384                   21052715.0274
    481437.10948    376299.64146  21285091.1174                   21285091.9694
 11  9 21 19 45 30.0000000  0  6G02G20G04G09G17G28
  -8682582.22747  -6759455.94545  23152386.3054                   23152390.1644
  -1015078.812 5                  24007259.023
  -7030321.77048  -5437748.89546  20116004.1724                   20116005.9304
  -7665844.02747  -5970069.28544  22529193.6644                   22529196.6884
    900057.39547    704344.14146  21052168.0164                   21052168.6254
    481525.23448    376368.25446  21285108.4534                   21285109.4694
 11  9 21 19 46  0.0000000  0  6G02G20G04G09G17G28
  -8804990.18047  -6854838.62944  23129092.0474                   23129095.2854
  -1032368.117 6                  24003968.930
  -7104674.91048  -5495686.37946  20101855.1804                   20101857.1254
  -7754685.94547  -6039296.67644  22512287.5864                   22512291.1724
    897290.78948    702188.33646  21051641.4924                   21051641.8674
    481950.08248    376699.26646  21285188.9454                   21285189.8134
 11  9 21 19 46 30.0000000  0  6G02G20G04G09G17G28
  -8927209.28147  -6950074.14144  23105834.0554                   23105838.0434
  -1049177.309 6                  24000769.695
  -7178491.45348  -5553205.71946  20087808.3444                   20087810.1524
  -7842982.43447  -6108099.08644  22495485.4774                   22495488.7424
    894626.35948    700112.13746  21051134.5004                   21051135.4924
    482709.40647    377290.89546  21285333.2814                   21285333.9264
 11  9 21 19 47  0.0000000  0  6G02G20G04G09G17G28
  -9049239.52046  -7045162.49644  23082613.1024                   23082615.6214
  -1065507.375 6                  23997663.070
  -7251772.06648  -5610307.46946  20073863.2584                   20073864.9774
  -7930733.00047  -6176476.12544  22478787.0234                   22478789.0634
    892061.85548    698113.80946  21050646.2974                   21050646.9264
    483802.72348    378142.77046  21285541.6024                   21285541.8524
 11  9 21 19 47 30.0000000  0  6G02G20G04G09G17G28
  -9171076.89147  -7140100.53944  23059428.1094                   23059430.3594
  -1081356.109 5                  23994645.008
  -7324513.88348  -5666989.36346  20060021.0234                   20060022.7544
  -8017933.53547  -6244424.56244  22462193.7034                   22462196.0514
    889598.76248    696194.48846  21050177.9384                   21050178.5084
    485232.78548    379257.05945  21285813.3204                   21285813.9534
 11  9 21 19 48  0.0000000  0  6G02G20G04G09G17G28
  -9292724.46547  -7234890.72345  23036279.4064                   23036281.8404
  -1096728.020 5                  23991722.102
  -7396720.59448  -5723254.30146  20046280.7584                   20046282.2424
  -8104587.11347  -6311946.78544  22445704.0314                   22445705.8324
    887231.70748    694350.02346  21049727.3754                   21049727.7814
    486995.37147    380630.43846  21286149.1024                   21286149.5744
 11  9 21 19 48 30.0000000  0  6G02G20G04G09G17G28
  -9414181.99647  -7329532.80545  23013166.4454                   23013169.0784
                                  23988886.266
  -7468392.67648  -5779102.64146  20032642.1024                   20032643.3444
  -8190692.84047  -6379042.13745  22429318.2584                   22429321.1884
    884958.36748    692578.56646  21049294.7664                   21049295.7934
    489089.84848    382262.45746  21286547.5554                   21286548.2704
 11  9 21 19 49  0.0000000  0  5G02G04G09G17G28
  -9535445.44947  -7424023.67245  22990090.4224                   22990093.6564
  -7539527.10248  -5834532.03546  20019105.3204                   20019107.0394
  -8276246.74247  -6445707.46944  22413037.5554                   22413040.8834
    882779.78148    690880.96546  21048880.2194                   21048880.9064
    491519.19548    384155.39846  21287010.0394                   21287010.9574
 11  9 21 19 49 30.0000000  0  5G02G04G09G17G28
  -9656514.93047  -7518363.38745  22967051.5394                   22967055.4774
  -7610124.91448  -5889543.27746  20005671.0234                   20005672.2034
  -8361248.60947  -6511942.66445  22396862.4844                   22396865.4924
    880693.91048    689255.60246  21048483.0474                   21048483.7814
    494282.63748    386308.67246  21287536.0704                   21287537.0234
 11  9 21 19 50  0.0000000  0  5G02G04G09G17G28
  -9777385.16047  -7612547.82845  22944050.3914                   22944054.6134
  -7680181.88748  -5944133.10546  19992339.7034                   19992341.0394
  -8445693.25447  -6577743.66045  22380793.2344                   22380796.2114
    878703.12548    687704.31646  21048104.2664                   21048105.2504
    497383.50048    388724.86346  21288126.2584                   21288126.7194
 11  9 21 19 50 30.0000000  0  5G02G04G09G17G28
  -9898054.77747  -7706575.94545  22921087.4844                   22921091.5044
  -7749697.00848  -5998300.68746  19979111.2194                   19979112.9184
  -8529579.07047  -6643109.18745  22364830.4304                   22364833.7584
    876807.15648    686226.90646  21047743.7034                   21047744.6024
    500822.86348    391404.82046  21288780.5314                   21288781.3404
 11  9 21 19 51  0.0000000  0  6G02G04G10G09G17G28
 -10018522.09447  -7800446.43745  22898163.9384                   22898167.5514
  -7818669.72348  -6052045.63346  19965985.9694                   19965987.3754
   1240912.76215                  24056951.953
  -8612904.12147  -6708037.76645  22348974.4144                   22348976.7894
    875004.74248    684822.41046  21047400.5314                   21047401.3634
    504601.62548    394349.24246  21289499.8364                   21289500.2894
 11  9 21 19 51 30.0000000  0  6G02G04G10G09G17G28
  -8563363.21947  -6666556.27045  23175071.1024                   23175074.7304
  -6311679.04748  -4877767.15646  20252757.0474                   20252758.6804
   2693787.516 5                  24333423.813
  -7120245.57047  -5544927.14845  22633017.3674                   22633020.5944
   2448713.59848   1911089.03546  21346867.9614                   21346868.2664
   2084138.04748   1625156.78946  21590075.7974                   21590076.2894
 11  9 21 19 52  0.0000000  0  6G02G04G10G09G17G28
  -8683425.10547  -6760110.87545  23152224.0164                   23152227.2704
  -6379569.43048  -4930668.71546  20239838.0704                   20239839.1174
   2571152.000 5                  24310086.172
  -7202448.39847  -5608981.24645  22617374.7194                   22617377.7544
   2447091.96948   1909825.41046  21346559.3284                   21346559.9964
   2088592.32448   1628627.59446  21590923.2034                   21590924.3674
 11  9 21 19 52 30.0000000  0  6G02G04G10G09G17G28
  -8803281.38747  -6853505.24245  23129416.0634                   23129418.8404
  -6446916.69948  -4983147.07446  20227022.1954                   20227023.5044
                                  24286734.195
  -7284086.71547  -5672595.51645  22601839.5084                   22601842.1454
   2445560.68848   1908632.18046  21346267.3054                   21346268.1414
   2093386.29348   1632363.08246  21591835.7664                   21591836.7734
 11  9 21 19 53  0.0000000  0  6G02G04G10G09G17G28
  -8922929.84847  -6946737.67645  23106647.6094                   23106650.3594
  -6513719.98448  -5035201.54746  20214310.2114                   20214311.5664
   2325638.035 5                  24263364.766
  -7365158.67647  -5735768.42245  22586411.9694                   22586414.9144
   2444118.84448   1907508.65246  21345992.7894                   21345993.9104
   2098520.66048   1636363.82846  21592812.9144                   21592813.7774
 11  9 21 19 53 30.0000000  0  6G02G04G10G09G17G28
  -9042368.12147  -7039806.31245  23083918.5164                   23083921.8594
  -6579978.39548  -5086831.43446  20201700.9534                   20201702.7544
   2202765.738 5                  24239983.359
  -7445661.94547  -5798498.19945  22571092.7664                   22571096.1884
   2442766.48048   1906454.82846  21345735.7584                   21345736.6564
   2103996.14548   1640630.37146  21593854.7114                   21593856.1174
 11  9 21 19 54  0.0000000  0  6G02G04G10G09G17G28
  -9161594.70347  -7132709.98845  23061230.2194                   23061233.1214
  -6645690.75448  -5138035.84846  20189196.4774                   20189197.5164
   2079821.18815                  24216588.195
  -7525594.92247  -5860783.60545  22555882.3444                   22555886.0634
   2441503.12547   1905470.36346  21345495.4454                   21345496.5744
   2109813.87948   1645163.61746  21594961.9144                   21594963.1724
 11  9 21 19 54 30.0000000  0  6G02G04G10G09G17G28
  -9280606.15247  -7225446.03545  23038583.7584                   23038586.1644
  -6710854.91848  -5188813.08646  20176796.2974                   20176797.6254
   1956808.500 5                  24193178.523
  -7604954.10947  -5922621.89145  22540780.5784                   22540784.0354
   2440329.99248   1904556.21546  21345272.1804                   21345273.3594
   2115975.95748   1649965.18446  21596134.1254                   21596136.5904
 11  9 21 19 55  0.0000000  0  6G02G04G10G09G17G28
  -9399402.99647  -7318014.89545  23015977.1724                   23015979.5354
  -6775472.18748  -5239164.16046  20164499.8984                   20164501.5044
   1833728.691 6                  24169757.648
  -7683739.95747  -5984013.42645  22525787.8754                   22525790.6294
   2439244.14547   1903710.07846  21345065.4844                   21345066.0904
   2122481.23848   1655034.17646  21597372.2814                   21597373.8834
 11  9 21 19 55 30.0000000  0  6G02G04G10G09G17G28
  -9517982.23047  -7410414.15245  22993412.3284                   22993414.7894
  -6839540.76248  -5289087.69546  20152308.0084                   20152309.1724
   1710586.063 6                  24146323.742
  -7761949.60247  -6044955.96145  22510904.9224                   22510908.1484
   2438246.16048   1902932.41446  21344875.5394                   21344876.2734
   2129331.38748   1660371.87946  21598675.9144                   21598677.0474
 11  9 21 19 56  0.0000000  0  6G02G04G10G09G17G28
  -9636344.89147  -7502644.66845  22970888.4694                   22970891.0004
  -6903062.99648  -5338585.50846  20140220.1804                   20140221.5824
   1587380.270 6                  24122879.219
  -7839584.32047  -6105450.50845  22496131.3134                   22496134.4024
   2437332.92248   1902220.77346  21344701.8524                   21344702.3484
   2136524.08648   1665976.52046  21600044.6334                   21600045.8364
 11  9 21 19 56 30.0000000  0  6G02G04G10G09G17G28
  -9754485.09447  -7594701.82845  22948406.8524                   22948409.3484
  -6966034.12948  -5387653.88746  20128237.1094                   20128238.3634
   1464118.801 6                  24099423.102
  -7916638.14547  -6165492.40645  22481468.4064                   22481471.5744
   2436507.89547   1901577.87146  21344544.9384                   21344545.2734
   2144064.32048   1671851.95346  21601479.2424                   21601481.2734
 11  9 21 19 57  0.0000000  0  6G02G04G10G09G17G28
  -9872403.00847  -7686585.75045  22925967.4384                   22925971.0434
  -7028455.30948  -5436293.73846  20116358.6484                   20116359.6484
   1340802.688 5                  24075956.430
  -7993111.50847  -6225081.99645  22466915.8134                   22466918.8984
   2435768.60247   1901001.78146  21344404.4534                   21344404.6254
   2151950.74648   1677997.15646  21602979.8674                   21602981.6094
 11  9 21 19 57 30.0000000  0  6G02G04G10G09G17G28
  -9990094.27747  -7778293.09445  22903571.8364                   22903574.7154
  -7090323.28548  -5484502.51246  20104585.5474                   20104586.8834
   1217437.852 5                  24052481.172
  -8068999.85547  -6284215.75445  22452475.2424                   22452478.7544
   2435117.39148   1900494.33246  21344280.1804                   21344281.1054
   2160186.64848   1684414.68046  21604547.6334                   21604549.0594
 11  9 21 19 58  0.0000000  0  6G02G04G10G09G17G28
 -10107560.77747  -7869825.29345  22881218.7814                   22881221.6994
  -7151641.07448  -5532282.57446  20092916.9694                   20092918.5944
   1094023.688 5                  24028995.531
  -8144305.28947  -6342895.27745  22438145.5004                   22438148.9064
   2434550.28947   1900052.41046  21344172.7584                   21344173.6524
   2168769.03147   1691102.18446  21606180.8594                   21606182.6174
 11  9 21 19 58 30.0000000  0  6G02G04G10G09G17G28
 -10224799.85247  -7961180.27045  22858908.6954                   22858910.8014
  -7212407.32848  -5579632.87146  20081354.0314                   20081354.8324
    970563.898 6                  24005502.602
  -8219025.43747  -6401118.73445  22423926.1564                   22423929.5084
   2434067.74648   1899676.37546  21344080.7344                   21344082.2034
   2177699.54348   1698060.94146  21607880.7424                   21607881.7974
 11  9 21 19 59  0.0000000  0  6G02G04G10G09G17G28
 -10341809.22347  -8052356.27045  22836642.4224                   22836644.3484
  -7272620.76248  -5626552.39546  20069895.3524                   20069897.1414
    847062.402 5                  23981999.539
  -8293157.95347  -6458884.28145  22409819.1174                   22409821.8164
   2433670.02747   1899366.45346  21344004.9064                   21344005.9454
   2186979.42648   1705291.96546  21609646.5864                   21609647.4264
 11  9 21 19 59 30.0000000  0  6G02G04G10G09G17G28
 -10458586.44947  -8143351.36345  22814420.4844                   22814422.2464
  -7332279.97348  -5673040.05546  20058542.3134                   20058544.0084
    723523.33615                  23958490.156
  -8366700.38347  -6516190.03545  22395824.4454                   22395827.2544
   2433356.93048   1899122.46546  21343945.5554                   21343946.0824
   2196609.84048   1712796.10246  21611479.1884                   21611480.6374
 11  9 21 20  0  0.0000000  0  6G02G04G10G09G17G28
 -10575131.58647  -8234165.62945  22792242.4844                   22792244.4414
  -7391386.75448  -5719097.25846  20047295.1484                   20047295.9654
    599947.05115                  23934976.055
  -8439653.61347  -6573036.66845  22381942.1174                   22381944.1524
   2433126.44948   1898942.84446  21343901.7344                   21343902.0394
   2206589.62148   1720572.48846  21613378.2584                   21613379.8954
 11  9 21 20  0 30.0000000  0  6G02G04G10G09G17G28
 -10691440.53147  -8324795.83245  22770109.0084                   22770112.2544
  -7449937.91848  -5764721.51246  20036153.1414                   20036154.3054
    476339.746 6                  23911454.867
  -8512013.65647  -6629421.09445  22368172.2974                   22368174.7854
   2432980.96147   1898829.46146  21343873.8754                   21343874.0784
   2216921.65648   1728623.34846  21615344.4144                   21615345.4804
 11  9 21 20  1  0.0000000  0  6G02G04G10G09G17G28
 -10807509.72347  -8415239.19145  22748021.9694                   22748025.3794
  -7507931.34848  -5809911.15246  20025117.0314                   20025118.7154
    352706.305 5                  23887925.727
  -8583777.13347  -6685340.67245  22354516.7814                   22354519.1954
   2432921.32447   1898782.98046  21343862.9924                   21343863.0514
   2227608.27748   1736950.51246  21617378.2194                   21617379.5394
 11  9 21 20  1 30.0000000  0  6G02G04G10G09G17G28
 -10923341.97747  -8505497.96145  22725979.7424                   22725982.2344
  -7565371.13748  -5854669.39546  20014186.8054                   20014187.9924
    229045.27046    251056.98852  23864394.8054                   23864401.2774
  -8654946.87947  -6740797.56645  22340972.7814                   22340975.7934
   2432942.71548   1898799.62946  21343866.4694                   21343867.2234
   2238645.54348   1745550.90246  21619478.5944                   21619479.5004
 11  9 21 20  2  0.0000000  0  6G02G04G10G09G17G28
 -11038929.44147  -8595565.98845  22703984.6644                   22703986.7464
  -7622250.57048  -5898991.00446  20003362.7814                   20003364.3204
    105366.00846    154683.81343  23840859.1334                   23840866.3134
  -8725515.76247  -6795786.26645  22327544.3444                   22327547.4614
   2433050.98048   1898883.96546  21343886.5394                   21343887.9734
   2250040.28148   1754429.84445  21621646.8364                   21621647.7544
 11  9 21 20  2 30.0000000  0  6G02G04G10G09G17G28
 -11154278.20747  -8685448.01645  22682034.2344                   22682036.5394
  -7678577.00848  -5942881.71546  19992644.4144                   19992645.3094
    -18335.94946     58292.86742  23817318.8984                   23817327.1564
  -8795489.61347  -6850311.30145  22314228.6804                   22314231.8524
   2433238.30948   1899029.90646  21343922.5234                   21343923.2584
   2261785.21148   1763581.64845  21623882.0704                   21623882.7584
 11  9 21 20  3  0.0000000  0  6G02G04G10G09G17G28
 -11269381.86747  -8775139.03945  22660130.4144                   22660132.6054
  -7734345.32448  -5986337.51246  19982032.1174                   19982033.5274
   -142053.14846    -38109.93042  23793775.0394                   23793783.9694
  -8864862.49647  -6904368.06645  22301027.0704                   22301030.0004
   2433509.15248   1899240.92646  21343974.7274                   21343974.9924
   2273885.79348   1773010.60546  21626184.3674                   21626185.8874
 11  9 21 20  3 30.0000000  0  6G02G04G10G09G17G28
 -11384239.18447  -8864638.10945  22638273.1484                   22638276.2114
  -7789555.61748  -6029358.48446  19971526.0314                   19971527.7384
   -265782.44146   -134522.14542  23770231.4384                   23770239.5594
  -8933633.45348  -6957955.77745  22287940.3594                   22287943.1414
   2433862.45348   1899516.21546  21344041.9844                   21344042.5314
   2286342.03148   1782716.68845  21628555.0784                   21628555.9184
 11  9 21 20  4  0.0000000  0  6G02G04G10G09G17G28
 -11498848.23847  -8953943.75045  22616464.2344                   22616466.7034
  -7844207.19948  -6071944.10546  19961125.8674                   19961127.5044
   -389520.52046   -230941.24643  23746684.4774                   23746692.0864
  -9001801.02347  -7011073.32845  22274968.7344                   22274971.8094
   2434298.34048   1899855.84446  21344124.5004                   21344125.0664
   2299154.41848   1792700.28945  21630993.0394                   21630994.4734
 11  9 21 20  4 30.0000000  0  6G02G04G10G09G17G28
 -11613207.15647  -9043054.46545  22594702.0634                   22594705.3404
  -7898300.09048  -6114094.38347  19950832.4304                   19950833.8634
   -513264.14846   -327364.66043  23723137.0864                   23723143.5314
  -9069363.75847  -7063719.59445  22262111.4614                   22262114.0744
   2434816.04348   1900259.22746  21344222.8054                   21344224.1994
   2312323.56648   1802961.89145  21633499.1024                   21633500.1094
 11  9 21 20  5  0.0000000  0  6G02G04G10G09G17G28
 -11727314.89147  -9131969.46145  22572988.1254                   22572990.1024
  -7951834.36348  -6155809.37946  19940645.3054                   19940646.4614
   -637010.39846   -423790.10943  23699588.6564                   23699595.3674
  -9136321.02047  -7115894.04345  22249370.4144                   22249373.5084
   2435415.20348   1900726.09046  21344337.1724                   21344338.0124
   2325849.66848   1813501.62545  21636073.1724                   21636074.6994
 11  9 21 20  5 30.0000000  0  6G02G04G10G09G17G28
 -11841170.00447  -9220687.62945  22551322.2584                   22551324.1604
  -8004809.81248  -6197088.92246  19930564.2974                   19930565.4964
   -760756.27746   -520215.30543  23676040.6254                   23676047.4454
  -9202671.46147  -7167595.63745  22236744.3834                   22236746.9924
   2436095.22747   1901255.94946  21344466.4774                   21344467.8484
   2339733.20348   1824319.86745  21638714.7504                   21638715.8324
 11  9 21 20  6  0.0000000  0  6G02G04G10G09G17G28
 -11954769.34047  -9309206.44945  22529704.7584                   22529707.3524
  -8057224.82048  -6237931.75446  19920590.0864                   19920591.2854
   -884496.96546   -616636.44942  23652492.8754                   23652500.0554
  -9268412.63347  -7218822.49245  22224233.9454                   22224236.9614
   2436857.25848   1901849.71146  21344611.6174                   21344613.0004
   2353975.77748   1835417.90245  21641425.3834                   21641426.2544
 11  9 21 20  6 30.0000000  0  6G02G04G10G09G17G28
 -12068111.05947  -9397524.55545  22508136.6414                   22508138.3634
  -8109078.98848  -6278337.57046  19910722.5474                   19910723.5864
  -1008229.07846   -713050.89843  23628947.2114                   23628953.8524
  -9333543.35547  -7269573.69945  22211840.5084                   22211843.3134
   2437701.26648   1902507.37146  21344772.1094                   21344772.9694
   2368577.81648   1846796.03545  21644204.0944                   21644205.8164
 11  9 21 20  7  0.0000000  0  6G02G04G10G09G17G28
 -12181194.51247  -9485641.41845  22486617.3284                   22486619.5784
  -8160372.91848  -6318306.84446  19900961.7424                   19900962.2974
  -1131950.23046   -809456.81643  23605403.9224                   23605410.4574
  -9398063.05947  -7319848.76645  22199562.2814                   22199564.6804
   2438626.11348   1903228.00846  21344948.3054                   21344949.0274
   2383539.10948   1858454.09845  21647051.4384                   21647052.4264
 11  9 21 20  7 30.0000000  0  6G02G04G10G09G17G28
 -12294017.11747  -9573554.98845  22465147.7114                   22465150.0204
  -8211105.75848  -6357838.89846  19891307.5704                   19891308.5904
  -1255656.74246   -905851.30543  23581863.2344                   23581870.2384
  -9461969.77347  -7369646.17645  22187401.2344                   22187404.0514
   2439632.34048   1904012.05946  21345139.4844                   21345140.8794
   2398860.92647   1870393.09445  21649966.7274                   21649968.7194
 11  9 21 20  8  0.0000000  0  6G02G04G10G09G17G28
 -12406577.98047  -9661264.62145  22443728.0234                   22443729.7814
  -8261277.85248  -6396934.00846  19881759.8754                   19881760.8204
  -1379345.53146  -1002232.03143  23558325.6884                   23558332.8444
  -9525263.17647  -7418965.69145  22175357.2424                   22175360.3094
   2440719.34048   1904859.04346  21345346.6254                   21345347.5514
   2414542.96547   1882612.77045  21652951.2734                   21652952.5704
 11  9 21 20  8 30.0000000  0  6G02G04G10G09G17G28
 -12518874.94947  -9748768.65245  22422358.5704                   22422359.4064
  -8310888.57448  -6435591.68746  19872319.5004                   19872320.3634
  -1503012.92246  -1098596.02343  23534792.8914                   23534799.0474
  -9587941.67647  -7467806.03545  22163429.4614                   22163432.9774
   2441886.78148   1905768.71546  21345568.6724                   21345569.4414
   2430586.00847   1895113.76245  21656004.4694                   21656005.9344
 11  9 21 20  9  0.0000000  0  6G02G04G10G09G17G28
 -12630907.47747  -9836066.60945  22401039.5084                   22401041.4184
  -8359939.23448  -6473812.96146  19862985.2114                   19862986.6914
  -1626656.80946  -1194941.73843  23511264.2274                   23511270.7074
  -9650005.35547  -7516167.31645  22151619.0784                   22151622.1804
   2443133.55948   1906740.20746  21345806.0634                   21345806.9804
   2446989.53147   1907895.63745  21659125.4454                   21659127.4144
 11  9 21 20  9 30.0000000  0  6G02G04G10G09G17G28
 -12742672.48848  -9923156.11345  22379770.8674                   22379773.0084
  -8408428.02748  -6511596.41046  19853758.3054                   19853759.1724
  -1750272.16446  -1291265.21543  23487740.2894                   23487747.1334
  -9711451.60947  -7564047.45745  22139926.1644                   22139929.8634
   2444461.09848   1907774.62146  21346058.7424                   21346059.6374
   2463755.41047   1920959.87945  21662315.7274                   21662318.3134
 11  9 21 20 10  0.0000000  0  6G02G04G10G09G17G28
 -12854167.31248 -10010035.06245  22358554.1804                   22358556.1804
  -8456353.77748  -6548941.11346  19844637.9924                   19844639.5784
  -1873855.11746  -1387563.44943  23464222.9534                   23464230.6024
  -9772278.34047  -7611444.89145  22128351.3674                   22128354.5474
   2445870.27048   1908872.66046  21346326.9144                   21346327.4104
   2480885.05547   1934307.57046  21665575.5704                   21665577.7584
 11  9 21 20 10 30.0000000  0  6G02G04G10G09G17G28
 -12965389.10248 -10096701.27046  22337390.0634                   22337391.6914
  -8503715.23848  -6585846.13346  19835625.4844                   19835626.6804
  -1997400.79346  -1483832.68043  23440713.8444                   23440720.0594
  -9832483.34847  -7658357.86345  22116894.8754                   22116897.5204
   2447362.07848   1910035.07846  21346610.6804                   21346611.4454
   2498379.90648   1947939.82445  21668905.5314                   21668906.3444
 11  9 21 20 11  0.0000000  0  6G02G04G10G09G17G28
 -13076338.98448 -10183155.58246  22316276.5784                   22316278.6254
  -8550514.77348  -6622313.28546  19826720.0704                   19826721.2464
  -2120908.15646  -1580072.02043  23417210.6484                   23417217.3444
  -9892067.82447  -7704787.29345  22105556.3524                   22105558.9614
   2448934.09848   1911260.00846  21346910.1334                   21346910.7584
   2516237.96148   1961855.10545  21672303.4924                   21672305.1804
 11  9 21 20 11 30.0000000  0  6G02G04G10G09G17G28
 -13187012.15648 -10269394.30545  22295216.1484                   22295217.3324
  -8596749.60248  -6658340.39846  19817921.9064                   19817923.0434
  -2244370.97746  -1676276.64143  23393716.0944                   23393722.1024
  -9951027.99247  -7750730.25445  22094336.3914                   22094338.9304
   2450589.19948   1912549.66446  21347224.8364                   21347225.6684
   2534462.41847   1976055.89545  21675771.3134                   21675772.9064
 11  9 21 20 12  0.0000000  0  6G02G04G10G09G17G28
 -13297405.51248 -10355414.96945  22274208.6644                   22274209.6024
  -8642418.02748  -6693926.16846  19809231.1564                   19809232.4024
  -2367784.30146  -1772442.73843  23370230.8754                   23370237.8914
 -10009361.66447  -7796185.02745  22083235.7584                   22083237.8404
   2452328.15648   1913904.66446  21347556.0634                   21347556.8714
   2553055.22747   1990543.70345  21679309.6804                   21679311.1334
 11  9 21 20 12 30.0000000  0  6G02G04G10G09G17G28
 -13407518.76647 -10441217.38345  22253254.4924                   22253255.9414
  -8687521.60948  -6729071.80546  19800648.4844                   19800649.1414
  -2491146.08646  -1868568.66443  23346756.6954                   23346761.8014
 -10067069.18747  -7841151.89545  22072253.9844                   22072256.2274
   2454149.77048   1915324.08646  21347902.3834                   21347903.7384
   2572015.38348   2005317.78545  21682918.0164                   21682919.3914
 11  9 21 20 13  0.0000000  0  6G02G04G10G09G17G28
 -13517350.21548 -10526800.21545  22232354.4304                   22232355.3054
  -8732060.11748  -6763777.11746  19792173.0944                   19792173.4694
  -2614453.15246  -1964651.93743  23323291.9844                   23323298.1804
 -10124149.37547  -7885629.95345  22061392.2424                   22061395.3134
   2456054.01247   1916807.87946  21348264.8984                   21348266.5394
   2591343.42248   2020378.50845  21686595.8204                   21686598.4024
 11  9 21 20 13 30.0000000  0  6G02G04G10G09G17G28
 -13626897.11348 -10612161.31645  22211507.8674                   22211509.6884
  -8776032.13348  -6798041.01647  19783805.4304                   19783806.2774
  -2737700.22746  -2060688.45743  23299837.7194                   23299845.3484
 -10180600.10547  -7929617.51645  22050649.9304                   22050653.0514
   2458042.40247   1918357.24646  21348643.1724                   21348644.3244
   2611040.61748   2035726.88745  21690344.5474                   21690346.4884
 11  9 21 20 14  0.0000000  0  6G02G04G10G09G17G28
 -13736155.38748 -10697297.52045  22190717.3054                   22190718.3134
  -8819435.56248  -6831861.84846  19775545.8594                   19775547.3164
  -2860881.37546  -2156673.60943  23276397.9774                   23276403.3054
 -10236418.14547  -7973112.08245  22040028.9924                   22040031.7034
   2460117.14148   1919973.89546  21349038.1644                   21349039.1724
   2631110.40648   2051365.61745  21694163.5704                   21694165.9104
 11  9 21 20 14 30.0000000  0  6G02G04G10G09G17G28
 -13845124.63748 -10782208.51245  22169980.5164                   22169982.6294
  -8862271.47348  -6865240.45346  19767394.6724                   19767395.2194
  -2983994.73846  -2252605.92243  23252970.1254                   23252975.5744
 -10291603.89547  -8016113.94145  22029526.7664                   22029530.2974
   2462277.00448   1921656.87946  21349449.2664                   21349450.3404
   2651551.30948   2067293.49645  21698053.2114                   21698055.3634
 11  9 21 20 15  0.0000000  0  6G02G04G10G09G17G28
 -13953802.99648 -10866892.82045  22149299.9064                   22149301.2734
  -8904539.81648  -6898176.81247  19759351.2814                   19759352.3404
  -3107036.77046  -2348482.70743  23229555.7344                   23229562.5514
 -10346156.41047  -8058622.41045  22019145.6724                   22019149.2304
   2464521.99248   1923406.20346  21349876.5474                   21349877.5474
   2672364.05948   2083511.12945  21702014.2274                   21702016.5204
 11  9 21 20 15 30.0000000  0  6G02G04G10G09G17G28
 -14062187.93748 -10951348.51645  22128674.5234                   22128675.9414
  -8946239.73848  -6930670.23847  19751415.7814                   19751417.0744
  -3230002.75846  -2444300.18743  23206155.5164                   23206162.5984
 -10400073.96547  -8100636.05945  22008885.3204                   22008889.0164
   2466853.17248   1925222.67646  21350319.7664                   21350321.1524
   2693550.03948   2100019.59845  21706045.9224                   21706048.0554
 11  9 21 20 16  0.0000000  0  6G02G04G10G09G17G28
 -14170277.74647 -11035574.22745  22108105.4614                   22108106.2194
  -8987371.51248  -6962720.95346  19743588.7894                   19743589.6994
  -3352889.31646  -2540055.76643  23182770.6254                   23182776.7934
 -10453355.77747  -8142154.35945  21998746.2814                   21998749.8094
   2469270.72348   1927106.46146  21350780.2194                   21350780.8014
   2715109.07048   2116818.76645  21710148.2504                   21710150.3554
 11  9 21 20 16 30.0000000  0  6G02G04G10G09G17G28
 -14278073.35948 -11119570.69145  22087592.8914                   22087593.5434
  -9027937.37548  -6994330.69546  19735869.1724                   19735870.0084
  -3475694.93746  -2635748.27744  23159401.3364                   23159407.6684
 -10506003.20347  -8183178.32045  21988728.0164                   21988730.9024
   2471772.46948   1929055.85546  21351256.3444                   21351257.1214
   2737039.47348   2133907.31345  21714321.6804                   21714324.0554
 11  9 21 20 17  0.0000000  0  6G02G04G10G09G17G28
 -14385572.07448 -11203335.82445  22067136.0784                   22067137.2344
  -9067936.19948  -7025498.59446  19728257.6174                   19728258.6954
  -3598415.16446  -2731374.25444  23136049.3524                   23136056.3404
 -10558014.16048  -8223706.32445  21978830.0634                   21978834.1054
   2474359.39548   1931071.61746  21351748.3834                   21351750.0634
   2759342.84848   2151286.48045  21718565.4694                   21718567.9654
 11  9 21 20 17 30.0000000  0  6G02G04G10G09G17G28
 -14492773.76648 -11286869.51645  22046736.2424                   22046737.6454
  -9107370.10948  -7056226.29747  19720753.8364                   19720754.5704
  -3721047.67246  -2826931.86744  23112712.6254                   23112719.5274
 -10609389.63347  -8263739.16845  21969053.9614                   21969057.2854
   2477029.73448   1933152.37546  21352256.7344                   21352257.5274
   2782017.46947   2168954.94145  21722880.7894                   21722883.0474
 11  9 21 20 18  0.0000000  0  6G02G04G10G09G17G28
 -13024253.20348 -10142567.66445  22326186.5944                   22326188.1994
  -7570817.73048  -5858912.73047  20013149.7424                   20013150.8524
  -2268165.40246  -1694815.60944  23389186.2114                   23389193.5944
  -9084707.52047  -7075675.20345  22259191.3754                   22259193.5664
   4055203.62148   3162898.24246  21652573.1804                   21652574.1134
   4380483.00847   3414512.41045  22027058.9534                   22027061.1484
 11  9 21 20 18 30.0000000  0  6G02G04G10G09G17G28
 -13130859.84848 -10225637.66446  22305899.9454                   22305901.8094
  -7609125.55548  -5888762.97346  20005860.3054                   20005861.2304
  -2390616.25446  -1790231.64844  23365884.5314                   23365892.1884
  -9134814.34848  -7114719.48045  22249656.6644                   22249659.1914
   4058037.65648   3165106.55146  21653112.6564                   21653113.3014
   4403897.65247   3432757.50845  22031514.3674                   22031516.5784
 11  9 21 20 19  0.0000000  0  6G02G04G10G09G17G28
 -13237167.47748 -10308474.69145  22285670.1564                   22285671.3554
  -7646871.36348  -5918175.26246  19998677.4534                   19998678.3594
  -2512971.47346  -1885573.19944  23342600.8984                   23342608.0744
  -9184286.56248  -7153269.26245  22240242.2504                   22240244.9454
   4060953.20748   3167378.38346  21653667.3054                   21653668.2974
   4427682.00447   3451290.69145  22036040.3984                   22036042.4264
 11  9 21 20 19 30.0000000  0  6G02G04G10G09G17G28
 -13343175.88748 -10391078.53946  22265497.5004                   22265498.6764
  -7684057.19148  -5947151.20346  19991601.2504                   19991601.9304
  -2635229.37946  -1980838.91044  23319336.0084                   23319341.9614
  -9233125.27047  -7191325.38745  22230948.4774                   22230951.7734
   4063948.48848   3169712.35246  21654237.5084                   21654238.8634
   4451834.45747   3470110.70345  22040636.1724                   22040638.9694
 11  9 21 20 20  0.0000000  0  6G02G04G10G09G17G28
 -13448882.79348 -10473447.45346  22245382.0634                   22245382.8714
  -7720682.44548  -5975690.34446  19984631.6484                   19984632.4964
  -2757385.35246  -2076025.20744  23296090.1644                   23296096.4844
  -9281328.81248  -7228886.61745  22221776.1564                   22221778.4734
   4067024.53548   3172109.24246  21654823.0084                   21654824.0744
   4476356.26247   3489218.49245  22045302.7664                   22045305.1804
 11  9 21 20 20 30.0000000  0  6G02G04G10G09G17G28
 -13554287.23448 -10555580.68746  22225324.2734                   22225325.1954
  -7756747.80948  -6003793.19946  19977768.4614                   19977768.8204
  -2879436.11746  -2171129.51644  23272864.7274                   23272871.7154
  -9328897.18747  -7265952.89545  22212723.9454                   22212727.2074
   4070180.66848   3174568.53146  21655423.2584                   21655424.3984
   4501246.97347   3508613.78545  22050039.8054                   22050040.8284
 11  9 21 20 21  0.0000000  0  6G02G04G10G09G17G28
 -13659390.32848 -10637479.09846  22205323.8364                   22205324.1414
  -7792256.09448  -6031461.97746  19971011.3524                   19971012.5044
  -3001380.68746  -2266151.08244  23249659.2034                   23249666.5164
  -9375832.48047  -7302525.85245  22203792.4924                   22203794.5474
   4073414.90248   3177088.68446  21656038.9304                   21656039.5704
   4526504.51247   3528294.89145  22054846.2664                   22054847.0474
 11  9 21 20 21 30.0000000  0  6G02G04G10G09G17G28
 -13764188.91048 -10719140.23445  22185381.1174                   22185382.0594
  -7827206.29348  -6058695.86346  19964360.4304                   19964361.2814
  -3123214.37146  -2361086.21144  23226474.6254                   23226481.3714
  -9422132.87147  -7338604.06245  22194981.3674                   22194983.9924
   4076728.38348   3179670.57046  21656669.4384                   21656670.1724
   4552130.19147   3548262.85245  22059721.8204                   22059724.3484
 11  9 21 20 22  0.0000000  0  6G02G04G10G09G17G28
 -13868683.17647 -10800564.24246  22165496.6644                   22165497.7234
  -7861600.47748  -6085496.50446  19957815.3914                   19957816.2704
  -3244934.98446  -2455933.25044  23203312.2664                   23203319.3794
  -9467799.41047  -7374188.39845  22186291.6724                   22186294.2544
   4080120.12148   3182313.44146  21657314.7664                   21657315.5434
   4578122.76247   3568516.69545  22064668.5864                   22064670.4384
 11  9 21 20 22 30.0000000  0  6G02G04G10G09G17G28
 -13972873.05148 -10881751.05546  22145669.7424                   22145670.9304
  -7895440.12948  -6111865.05946  19951376.2584                   19951376.5704
  -3366540.65646  -2550690.73444  23180171.2734                   23180178.8244
  -9512832.96947  -7409279.46945  22177722.3754                   22177724.6994
   4083588.50448   3185016.03546  21657975.0004                   21657975.6524
   4604480.71947   3589055.26245  22069684.5554                   22069686.0704
 11  9 21 20 23  0.0000000  0  6G02G04G10G09G17G28
 -14076754.69548 -10962697.69546  22125901.5394                   22125902.5434
  -7928723.46948  -6137800.10546  19945042.2424                   19945043.2154
  -3488024.94146  -2645353.65244  23157053.4064                   23157060.0314
  -9557231.16847  -7443875.47345  22169273.3524                   22169276.5004
   4087136.03548   3187780.32046  21658650.2814                   21658650.9734
   4631206.73847   3609880.62145  22074770.4694                   22074772.4104
 11  9 21 20 23 30.0000000  0  6G02G04G10G09G17G28
 -14180328.95348 -11043404.78946  22106191.7194                   22106193.6804
  -7961453.14548  -6163303.74246  19938814.4694                   19938814.9654
  -3609386.42246  -2739920.86744  23133959.2664                   23133964.5984
  -9600995.56647  -7477977.61345  22160945.2814                   22160948.6334
   4090760.84048   3190604.81646  21659339.9924                   21659340.6644
   4658298.73047   3630991.16445  22079925.9454                   22079928.0434
 11  9 21 20 24  0.0000000  0  6G02G04G10G09G17G28
 -14283593.45748 -11123870.52346  22086541.4534                   22086542.8284
  -7993628.93448  -6188375.77746  19932691.1024                   19932692.0124
  -3730621.10946  -2834389.28144  23110888.5084                   23110894.4734
  -9644125.54747  -7511585.38745  22152738.1414                   22152741.1954
   4094463.50847   3193489.98046  21660044.0234                   21660044.9694
   4685757.10947   3652387.19545  22085150.9304                   22085153.1644
 11  9 21 20 24 30.0000000  0  6G02G04G10G09G17G28
 -14386548.27048 -11204094.94946  22066949.2974                   22066950.6844
  -8025252.57848  -6213017.56646  19926673.5554                   19926674.5704
  -3851726.37146  -2928756.85544  23087842.9384                   23087848.4924
  -9686621.82847  -7544699.37145  22144651.3834                   22144653.6604
   4098243.27347   3196435.21546  21660763.6484                   21660765.0354
   4713581.12547   3674068.17245  22090446.5314                   22090447.1414
 11  9 21 20 25  0.0000000  0  8G02G20G12G04G10G09G17G28
 -14489198.46147 -11284082.01246  22047416.0084                   22047417.5164
                                  24628083.086
   4484510.67656   3509474.15252  24704025.0234                   24704028.7274
  -8056331.08248  -6237234.58646  19920759.4304                   19920760.2194
  -3972705.34846  -3023026.00844  23064820.8364                   23064827.1524
  -9728490.71947  -7577324.49245  22136684.1564                   22136686.0864
   4102093.73447   3199435.52346  21661496.5234                   21661497.5474
   4741764.06647   3696028.79745  22095809.6484                   22095810.6884
 11  9 21 20 25 30.0000000  0  8G02G20G12G04G10G09G17G28
 -14591552.98047 -11363838.68046  22027938.2974                   22027939.4184
                                  24631953.641
   4356888.76646   3410028.68043  24679739.1334                   24679744.6094
  -8086875.53547  -6261035.45346  19914947.2504                   19914947.9614
  -4093564.70746  -3117201.97344  23041822.8444                   23041829.1604
  -9769742.56647  -7609468.78545  22128833.9384                   22128836.2544
   4106004.38747   3202482.74646  21662240.3204                   21662241.4384
   4770295.45747   3718260.93045  22101239.0784                   22101240.2344
 11  9 21 20 26  0.0000000  0  7G02G12G04G10G09G17G28
 -14693612.41448 -11443365.41446  22008516.8984                   22008518.3874
   4229220.02746   3310546.62943  24655444.2194                   24655449.7934
  -8116888.12148  -6284421.86346  19909235.8754                   19909236.7424
  -4214302.80946  -3211283.43744  23018846.9384                   23018852.8874
  -9810378.69547  -7641133.28145  22121101.3914                   22121103.3094
   4109973.85547   3205575.79746  21662995.8444                   21662996.9454
   4799173.71147   3740763.34845  22106734.2274                   22106735.9884
 11  9 21 20 26 30.0000000  0  7G02G12G04G10G09G17G28
 -14795362.58248 -11522651.14546  21989154.2814                   21989155.1564
   4101519.37146   3211039.76643  24631143.5164                   24631150.3714
  -8146356.79748  -6307384.46546  19903628.0084                   19903629.1564
  -4334903.00846  -3305257.43444  22995897.1644                   22995903.2734
  -9850386.30147  -7672308.05545  22113487.8364                   22113490.0044
   4114014.83648   3208724.58646  21663764.8054                   21663766.0234
   4828411.48047   3763545.90645  22112297.7734                   22112300.1644
 11  9 21 20 27  0.0000000  0  7G02G12G04G10G09G17G28
 -14896785.69948 -11601682.05546  21969854.0864                   21969854.7894
   3973804.70346   3111521.95743  24606840.4064                   24606845.5204
  -8175265.78548  -6329910.94146  19898126.8834                   19898128.0124
  -4455345.52746  -3399108.56644  22972977.3834                   22972982.8874
  -9889749.31247  -7702980.52345  22105997.2894                   22105999.8164
   4118144.05548   3211942.12546  21664551.0784                   21664552.1174
   4858025.07047   3786621.33245  22117933.2274                   22117936.0634
 11  9 21 20 27 30.0000000  0  7G02G12G04G10G09G17G28
 -14997876.64848 -11680454.12946  21950617.3134                   21950618.6094
   3846081.92646   3011997.83643  24582535.5004                   24582540.6644
  -8203612.00848  -6351998.90246  19892732.8834                   19892733.4694
  -4575623.12546  -3492831.19144  22950088.8834                   22950094.0784
  -9928463.67247  -7733147.55545  22098629.8054                   22098632.6724
   4122365.33648   3215231.39846  21665354.0234                   21665354.9064
   4888018.15647   3809992.45345  22123641.0234                   22123643.1724
 11  9 21 20 28  0.0000000  0  7G02G12G04G10G09G17G28
 -15098635.06248 -11758967.07846  21931443.4924                   21931444.4104
   3718352.14146   2912468.25443  24558229.2504                   24558234.0044
  -8231397.17247  -6373649.65647  19887445.6094                   19887446.5164
  -4695733.06247  -3586423.20344  22927233.3984                   22927238.0554
  -9966530.38347  -7762809.93445  22091386.2274                   22091388.6564
   4126677.96547   3218591.85546  21666174.8364                   21666176.0164
   4918389.61747   3833658.41845  22129421.0084                   22129423.5044
 11  9 21 20 28 30.0000000  0  7G02G12G04G10G09G17G28
 -15199064.80948 -11837223.92246  21912332.2114                   21912332.8134
   3590612.08646   2812930.67244  24533920.6024                   24533925.5204
  -8258627.05148  -6394867.73046  19882263.6564                   19882264.7664
  -4815676.82847  -3679885.71944  22904408.6804                   22904414.0394
 -10003954.57847  -7791971.64845  22084264.2814                   22084267.8484
   4131076.94947   3222019.61746  21667011.9144                   21667012.8554
   4949134.41447   3857615.28545  22135271.0004                   22135274.4694
 11  9 21 20 29  0.0000000  0  7G02G12G04G10G09G17G28
 -15299164.00048 -11915223.19546  21893283.9454                   21893284.2424
   3462864.49246   2713387.23844  24509610.6254                   24509616.1644
  -8285301.37548  -6415652.90647  19877188.0554                   19877189.0124
  -4935450.20347  -3773215.43744  22881616.2734                   22881622.0434
 -10040735.26647  -7820631.91045  22077265.5004                   22077268.0704
   4135563.32848   3225515.47746  21667865.7274                   21667866.8714
   4980252.98047   3881863.41845  22141192.0634                   22141196.0204
 11  9 21 20 29 30.0000000  0  7G02G12G04G10G09G17G28
 -15398930.52348 -11992963.24646  21874299.0314                   21874298.7544
   3335112.33246   2613840.19944  24485300.6644                   24485304.0204
  -8311420.44148  -6436005.40246  19872217.3134                   19872218.3914
  -5055048.60947  -3866408.84444  22858857.1564                   22858862.0904
 -10076871.88347  -7848790.31645  22070388.6724                   22070391.8324
   4140138.00447   3229080.12946  21668735.8674                   21668737.2774
   5011746.24247   3906403.50845  22147185.3524                   22147188.8444
 11  9 21 20 30  0.0000000  0  7G02G12G04G10G09G17G28
 -15498367.97348 -12070446.88346  21855376.5704                   21855376.6994
   3207352.39846   2514287.10944  24460988.7034                   24460992.7344
  -8336989.85548  -6455929.60246  19867351.6254                   19867352.0124
  -5174473.70347  -3959467.20344  22836130.9384                   22836135.9344
 -10112369.96947  -7876451.16045  22063633.5084                   22063636.6604
   4144795.99247   3232709.69546  21669622.2894                   21669624.1254
   5043608.69947   3931231.29745  22153248.3284                   22153251.2894
 11  9 21 20 30 30.0000000  0  7G02G12G04G10G09G17G28
 -15597473.03948 -12147671.52746  21836517.4774                   21836517.7464
   3079588.66046   2414731.05944  24436675.7194                   24436679.7774
  -8362008.46948  -6475424.61746  19862590.8984                   19862591.6414
  -5293719.50047  -4052385.86744  22813439.6024                   22813444.8674
 -10147227.04347  -7903612.52745  22057000.6884                   22057003.5824
   4149539.77347   3236406.10546  21670525.3984                   21670526.1994
   5075842.62147   3956348.52045  22159382.7584                   22159385.8634
 11  9 21 20 31  0.0000000  0  7G02G12G04G10G09G17G28
 -15696245.68448 -12224637.12546  21817721.3204                   21817721.9184
   2951822.26246   2315172.94944  24412362.6334                   24412365.9534
  -8386478.03948  -6494491.80547  19857934.4454                   19857935.9024
  -5412783.98847  -4145163.23044  22790782.2194                   22790787.8444
 -10181444.56648  -7930275.53145  22050489.2424                   22050492.9804
   4154368.43047   3240168.68046  21671444.1414                   21671445.0554
   5108446.33647   3981753.87545  22165587.0784                   22165590.6174
 11  9 21 20 31 30.0000000  0  7G02G12G04G10G09G17G28
 -15794684.37548 -12301342.50046  21798989.0234                   21798989.4774
   2824055.22746   2215614.36743  24388049.4694                   24388051.9964
  -8410399.27348  -6513131.71947  19853382.5634                   19853383.7814
  -5531663.07847  -4237796.13344  22768159.8134                   22768165.6054
 -10215022.75447  -7956440.37145  22044100.0004                   22044102.6724
   4159282.39147   3243997.71546  21672379.5234                   21672380.9654
   5141419.97347   4007447.49645  22171861.7424                   22171865.7344
 11  9 21 20 32  0.0000000  0  7G02G12G04G10G09G17G28
 -15892787.59048 -12377786.47346  21780320.8524                   21780321.0744
   2696290.23046   2116057.32843  24363736.7584                   24363739.0904
  -8433772.50048  -6531344.59447  19848934.7974                   19848935.7194
  -5650352.35547  -4330281.14544  22745573.7974                   22745579.4694
 -10247961.07047  -7982106.59445  22037832.0164                   22037834.4694
   4164282.52347   3247893.89846  21673331.0164                   21673332.0204
   5174764.09847   4033429.79745  22178207.6254                   22178210.0904
 11  9 21 20 32 30.0000000  0  7G02G12G04G10G09G17G28
 -15990555.05548 -12453968.82046  21761715.8444                   21761716.5044
   2568528.40246   2016502.77743  24339423.8594                   24339426.5394
  -8456599.55548  -6549131.89846  19844590.7814                   19844591.8484
  -5768849.37547  -4422616.35944  22723025.1174                   22723029.5004
 -10280260.64548  -8007275.10945  22031685.8364                   22031688.2154
   4169368.06347   3251856.62946  21674298.8364                   21674299.9734
   5208477.13747   4059699.58245  22184623.3984                   22184625.1884
 11  9 21 20 33  0.0000000  0  7G02G12G04G10G09G17G28
 -16087988.00048 -12529890.49646  21743175.2344                   21743175.8134
   2440769.59446   1916950.59443  24315112.6804                   24315115.3634
  -8478883.73448  -6566496.18047  19840350.1564                   19840351.1724
  -5887153.04347  -4514800.88744  22700511.9844                   22700516.9144
 -10311924.40647  -8031948.20345  22025659.8444                   22025662.7114
   4174536.60947   3255884.03546  21675282.3204                   21675283.6994
   5242556.66047   4086254.91445  22191108.1174                   22191110.4964
 11  9 21 20 33 30.0000000  0  7G02G12G04G10G09G17G28
 -16185082.58248 -12605548.51646  21724698.7194                   21724699.2584
   2313018.41046   1817404.32443  24290801.5704                   24290804.6414
  -8500623.30548  -6583436.10247  19836213.4144                   19836214.2894
  -6005257.05147  -4606829.84844  22678037.7194                   22678042.2934
 -10342949.96947  -8056123.97345  22019755.9534                   22019758.0824
   4179791.63747   3259978.82846  21676282.1884                   21676283.8874
   5277005.05947   4113097.69945  22197663.6414                   22197665.6564
 11  9 21 20 34  0.0000000  0  7G02G12G04G10G09G17G28
 -16281841.24248 -12680944.78946  21706285.8054                   21706286.4304
   2185272.62146   1717862.34443  24266491.3284                   24266496.0164
  -8521822.77048  -6599955.15246  19832179.2114                   19832180.0634
  -6123161.65247  -4698703.41044  22655600.8524                   22655605.5594
 -10373341.36347  -8079805.60945  22013972.5314                   22013975.1024
   4185129.33247   3264138.02746  21677297.4694                   21677299.6024
   5311818.11347   4140224.61345  22204288.2424                   22204291.9384
 11  9 21 20 34 30.0000000  0  7G02G12G04G10G09G17G28
 -16378260.94548 -12756076.93046  21687937.5634                   21687938.1844
   2057536.58646   1618327.87543  24242184.3984                   24242187.3754
  -8542481.68448  -6616052.99647  19828248.3054                   19828249.0514
  -6240861.52747  -4790417.43744  22633202.6804                   22633208.3324
 -10403097.50047  -8102992.22745  22008310.4144                   22008312.9264
   4190551.26647   3268362.86346  21678329.9144                   21678331.1524
   5346997.45347   4167636.94945  22210983.1484                   22210986.2974
 11  9 21 20 35  0.0000000  0  7G02G12G04G10G09G17G28
 -16474341.73448 -12830945.00446  21669653.9144                   21669654.3014
   1929811.55146   1518802.03543  24217879.5554                   24217881.4454
  -8562601.67248  -6631730.89846  19824419.1414                   19824419.9104
  -6358353.72747  -4881969.67644  22610844.7274                   22610849.6334
 -10432219.41447  -8125684.63745  22002768.6724                   22002771.2114
   4196057.03948   3272653.05546  21679377.3914                   21679378.6414
   5382541.82447   4195333.72745  22217747.0944                   22217750.3244
 11  9 21 20 35 30.0000000  0  7G02G12G04G10G09G17G28
 -16570083.78948 -12905549.11346  21651435.0084                   21651435.6684
   1802097.98047   1419285.05943  24193576.8674                   24193577.6174
  -8582185.07848  -6646990.68447  19820692.5634                   19820693.6914
  -6475635.96546  -4973358.29344  22588526.5864                   22588531.4884
 -10460708.84447  -8147884.20345  21997347.5864                   21997350.2934
   4201645.71147   3277007.84046  21680440.9144                   21680441.8794
   5418449.78947   4223313.82845  22224579.7814                   22224582.5704
 11  9 21 20 36  0.0000000  0  7G02G12G04G10G09G17G28
 -16665485.64148 -12979888.12146  21633280.4924                   21633281.0124
   1674398.26247   1319778.89143  24169276.1724                   24169278.9844
  -8601232.94548  -6661833.16047  19817068.0784                   19817069.3134
  -6592704.52347  -5064580.38344  22566248.6254                   22566253.6454
 -10488566.07847  -8169591.16045  21992045.9304                   21992049.0354
   4207317.93848   3281427.71146  21681520.8364                   21681521.4454
   5454721.18447   4251577.12945  22231481.9144                   22231484.5084
 11  9 21 20 36 30.0000000  0  7G02G12G04G10G09G17G28
 -16760546.09448 -13053961.12146  21615190.7664                   21615191.5514
   1546714.93847   1220285.51244  24144979.0234                   24144982.2234
  -8619745.62148  -6676258.62147  19813545.5004                   19813546.2704
  -6709555.67647  -5155633.08644  22544012.4774                   22544017.9964
 -10515791.59447  -8190805.86745  21986866.1334                   21986868.4844
   4213074.19548   3285913.07046  21682615.4844                   21682617.0394
   5491355.66447   4280123.35245  22238453.7584                   22238455.9574
 11  9 21 20 37  0.0000000  0  7G02G12G04G10G09G17G28
 -16855263.47748 -13127766.79346  21597166.3984                   21597166.9924
   1419050.73847   1120807.06644  24120685.1024                   24120688.1214
  -8637723.82048  -6690267.59047  19810124.0234                   19810124.5204
  -6826184.90647  -5246512.88744  22521819.4614                   22521823.6334
 -10542385.32447  -8211528.25845  21981804.6094                   21981807.9844
   4218915.26647   3290464.51246  21683727.4694                   21683728.5434
   5528353.36347   4308952.59845  22245494.6334                   22245497.6804
 11  9 21 20 37 30.0000000  0  7G02G12G04G10G09G17G28
 -16949639.31248 -13201306.31646  21579207.4534                   21579207.7274
   1291405.11347   1021343.09044  24096394.5084                   24096398.3524
  -8655171.44948  -6703863.12547  19806803.6094                   19806804.7154
  -6942591.53547  -5337219.19944  22499667.3674                   22499672.9454
 -10568350.14847  -8231760.58645  21976864.3674                   21976866.5004
   4224838.92247   3295080.31346  21684854.4614                   21684856.3634
   5565711.47747   4338062.67645  22252604.0554                   22252606.2074
 11  9 21 20 38  0.0000000  0  7G02G12G04G10G09G17G28
 -17043669.86748 -13274576.78146  21561314.1564                   21561314.7774
   1163782.85947    921897.34844  24072108.4694                   24072112.5434
  -8672086.78948  -6717043.90247  19803585.0004                   19803585.7544
  -7058769.09847  -5427747.03144  22477559.7114                   22477565.3164
 -10593684.41847  -8251501.58645  21972042.6334                   21972045.7344
   4230847.77047   3299762.50446  21685998.1644                   21686000.0554
   5603431.83647   4367455.02345  22259781.3674                   22259784.2734
 11  9 21 20 38 30.0000000  0  7G02G12G04G10G09G17G28
 -17137361.09448 -13347582.83646  21543484.9534                   21543485.9144
   1036179.29347    822466.16444  24047826.4064                   24047830.5354
  -8688477.71948  -6729816.05147  19800466.0084                   19800467.1294
  -7174720.88347  -5518098.93045  22455495.1724                   22455500.0044
 -10618395.41047  -8270756.92245  21967340.7344                   21967343.5864
   4236935.59847   3304506.24246  21687156.4614                   21687158.1644
   5641507.97347   4397124.60945  22267026.9694                   22267030.4574
 11  9 21 20 39  0.0000000  0  7G02G12G04G10G09G17G28
 -17230707.12148 -13420319.92246  21525721.9534                   21525722.6134
    908600.94547    723054.63344  24023549.2274                   24023553.1914
  -8704340.80548  -6742176.87546  19797446.8674                   19797447.7034
  -7290438.87547  -5608268.66445  22433474.0784                   22433478.6254
 -10642479.12147  -8289523.46145  21962757.3524                   21962760.4534
   4243107.56648   3309315.52746  21688331.2034                   21688332.5704
   5679943.73047   4427074.42245  22274341.7114                   22274345.4924
 11  9 21 20 39 30.0000000  0  7G02G12G04G10G09G17G28
 -17323710.67248 -13492790.14146  21508023.7194                   21508023.9574
    781046.36347    623661.61344  23999275.9224                   23999279.4734
  -8719680.99248  -6754130.26247  19794527.7894                   19794529.0234
  -7405923.21147  -5698256.30545  22411497.9534                   22411503.0744
 -10665940.22347  -8307804.85945  21958292.9304                   21958295.3754
   4249359.98448   3314187.49646  21689520.7424                   21689522.2464
   5718734.75447   4457301.04345  22281723.2194                   22281726.7704
 11  9 21 20 40  0.0000000  0  7G02G12G04G10G09G17G28
 -17416370.50448 -13564992.52046  21490391.2814                   21490391.6254
    653518.44147    524289.38744  23975007.6954                   23975011.0664
  -8734499.07448  -6765676.81247  19791708.4534                   19791709.2344
  -7521169.75047  -5788058.65245  22389566.9454                   22389572.2894
 -10688778.79747  -8325601.17245  21953947.0864                   21953948.9614
   4255693.36347   3319122.57846  21690726.2584                   21690727.0944
   5757881.14547   4487804.59445  22289172.4384                   22289175.2344
 11  9 21 20 40 30.0000000  0  7G02G12G04G10G09G17G28
 -17508684.96148 -13636925.76246  21472824.2194                   21472824.5004
    526019.60546    424939.80944  23950745.4384                   23950749.4774
  -8748795.59448  -6776816.95347  19788987.6804                   19788988.9184
  -7636174.27047  -5877672.43045  22367682.7734                   22367688.3524
 -10710995.12947  -8342912.60245  21949719.4614                   21949721.9414
   4262109.03947   3324121.78546  21691947.2114                   21691947.9734
   5797382.86747   4518585.03545  22296689.2894                   22296692.3134
 11  9 21 20 41  0.0000000  0  7G02G12G04G10G09G17G28
 -17600652.80548 -13708588.94146  21455323.0234                   21455323.6564
    398552.39147    325614.86344  23926489.5474                   23926492.6644
  -8762571.52348  -6787551.43447  19786366.0944                   19786367.3674
  -7750933.25847  -5967094.87145  22345844.2584                   22345850.2544
 -10732589.79347  -8359739.62945  21945610.1954                   21945613.8404
   4268607.43447   3329185.43046  21693183.7034                   21693184.6604
   5837239.41047   4549641.94545  22304273.5554                   22304276.7344
 11  9 21 20 41 30.0000000  0  7G02G12G04G10G09G17G28
 -17692274.02048 -13779982.00446  21437888.3754                   21437889.1054
    271118.12947    226315.53543  23902239.4614                   23902241.5944
  -8775828.86748  -6797881.82447  19783843.5784                   19783844.7424
  -7865443.24247  -6056323.30545  22324054.2114                   22324059.1564
 -10753564.41447  -8376083.50845  21941618.9454                   21941622.3834
   4275188.05948   3334313.14846  21694435.9224                   21694437.5434
   5877449.89547   4580974.65645  22311926.0474                   22311929.7584
 11  9 21 20 42  0.0000000  0  7G02G12G04G10G09G17G28
 -17783547.99248 -13851104.48846  21420519.5554                   21420519.9694
    143718.54747    127043.25844  23877995.6804                   23877998.7974
  -8788569.53948  -6807809.61747  19781419.0234                   19781419.9414
  -7979701.78147  -6145355.80545  22302311.5234                   22302315.7774
 -10773920.60547  -8391945.48045  21937745.3444                   21937748.3204
   4281850.52748   3339504.63346  21695703.6884                   21695705.6954
   5918013.13747   4612582.23444  22319644.6564                   22319648.4144
 11  9 21 20 42 30.0000000  0  7G02G12G04G10G09G17G28
 -17874475.27048 -13921956.83646  21403216.3674                   21403216.7664
     16354.67647     27798.78943  23853758.9224                   23853761.9304
  -8800796.03948  -6817336.75847  19779092.3444                   19779093.3364
  -8093706.59847  -6234190.58245  22280616.5704                   22280622.0904
 -10793660.53147  -8407327.26645  21933988.8524                   21933991.8204
   4288593.86748   3344759.14846  21696986.7814                   21696989.1214
   5958927.28547   4644463.23444  22327430.6644                   22327434.0824
 11  9 21 20 43  0.0000000  0  7G02G12G04G10G09G17G28
 -17965055.21148 -13992538.50846  21385979.6724                   21385980.2774
   -110971.26647    -71416.16444  23829530.3444                   23829532.1374
  -8812509.82448  -6826464.38747  19776863.1334                   19776864.1644
  -8207453.98047  -6322824.75845  22258971.2734                   22258976.4614
 -10812784.89148  -8422229.37545  21930349.6804                   21930353.2584
   4295418.85247   3350077.27346  21698285.4454                   21698287.3094
   6000191.59047   4676617.09444  22335283.3444                   22335285.6374
 11  9 21 20 43 30.0000000  0  7G02G12G04G10G09G17G28
 -16479863.15648 -12835245.91846  21668602.3984                   21668602.4614
   1337167.59447   1057003.81643  24105101.7584                   24105104.7194
  -7248291.39548  -5607592.87947  20074523.6254                   20074525.0234
  -6745516.01647  -5183652.21545  22537168.7584                   22537173.2384
  -9255873.76247  -7209051.90245  22226619.9844                   22226623.0704
   5877745.83647   4583059.28946  21999392.8984                   21999394.4184
   7617224.56647   5936642.66845  22642994.6414                   22642997.1214
 11  9 21 20 44  0.0000000  0  7G02G12G04G10G09G17G28
 -16569748.60248 -12905286.43446  21651497.4224                   21651497.6524
   1209920.50447    957850.33644  24080887.3754                   24080890.3674
  -7258986.92248  -5615927.05947  20072488.7034                   20072490.0904
  -6858741.06247  -5271879.40245  22515622.6804                   22515626.7854
  -9273773.40247  -7222999.69545  22223213.5944                   22223216.6604
   5884731.52748   4588502.64546  22000722.0784                   22000723.1134
   7659184.16447   5969338.31644  22650979.2974                   22650981.9414
 11  9 21 20 44 30.0000000  0  7G02G12G04G10G09G17G28
 -16659284.73448 -12975054.77346  21634459.2114                   21634459.5784
   1082716.79347    858730.64544  24056681.0554                   24056683.4884
  -7269174.82048  -5623865.67647  20070549.9774                   20070551.2304
  -6971699.23847  -5359898.64145  22494127.6484                   22494131.4024
  -9291061.64147  -7236471.07045  22219924.1094                   22219926.1994
   5891798.40248   4594009.26246  22002066.8444                   22002068.4844
   7701491.12547   6002304.59844  22659030.3984                   22659032.6644
 11  9 21 20 45  0.0000000  0  7G02G12G04G10G09G17G28
 -16748470.38348 -13044549.99246  21617487.8444                   21617488.1914
    955559.46147    759647.09044  24032484.1484                   24032486.6844
  -7278855.57048  -5631409.11747  20068707.5864                   20068708.5744
  -7084385.98847  -5447706.37945  22472683.5314                   22472687.5004
  -9307738.96947  -7249466.41845  22216750.2504                   22216752.3674
   5898947.52048   4599579.95346  22003427.4694                   22003429.0864
   7744145.17247   6035541.36744  22667147.2114                   22667150.3404
 11  9 21 20 45 30.0000000  0  7G02G12G04G10G09G17G28
 -16837306.53948 -13113772.89146  21600582.9534                   21600583.2234
    828448.55947    660599.72744  24008295.8674                   24008298.5864
  -7288032.92648  -5638560.30146  20066961.6024                   20066962.0784
  -7196799.93447  -5535301.55145  22451291.9454                   22451295.6564
  -9323808.31647  -7261988.03145  22213692.7894                   22213694.7114
   5906177.58248   4605213.72746  22004803.0784                   22004804.6604
   7787143.97347   6069046.76244  22675329.7734                   22675332.5634
 11  9 21 20 46  0.0000000  0  7G02G12G04G10G09G17G28
 -16925793.34448 -13182723.57046  21583744.2034                   21583744.4184
    701385.54746    561589.69144  23984116.2274                   23984119.7774
  -7296709.14148  -5645320.98846  20065310.2584                   20065310.9184
  -7308938.67647  -5622682.29345  22429952.8594                   22429956.7114
  -9339272.10247  -7274037.74645  22210749.8984                   22210751.8674
   5913487.83247   4610909.96146  22006193.7504                   22006195.6134
   7830485.65647   6102819.37144  22683577.2974                   22683581.6994
 11  9 21 20 46 30.0000000  0  7G02G12G04G10G09G17G28
 -17013931.69948 -13251402.73046  21566971.8674                   21566971.9774
    574370.98046    462617.39844  23959946.2034                   23959950.1884
  -7304887.17648  -5651693.48046  20063754.1254                   20063754.7774
  -7420800.39147  -5709847.10945  22408666.0084                   22408670.7584
  -9354132.89847  -7285617.60545  22207922.1954                   22207924.3364
   5920876.80547   4616667.55546  22007600.1724                   22007601.3364
   7874168.02347   6136857.38744  22691889.8834                   22691894.4024
 11  9 21 20 47  0.0000000  0  7G02G12G04G10G09G17G28
 -17101717.30948 -13319807.01646  21550267.0474                   21550266.8094
    447410.79746    363687.48044  23935786.2344                   23935789.8484
  -7312564.93748  -5657676.15246  20062293.1484                   20062294.2584
  -7532377.52747  -5796790.20345  22387433.9304                   22387437.8914
  -9368388.10947  -7296725.58245  22205209.5084                   22205211.9264
   5928348.80547   4622489.85546  22009021.7814                   22009023.6374
   7918194.16047   6171163.30945  22700268.0784                   22700272.0944
 11  9 21 20 47 30.0000000  0  7G02G12G04G10G09G17G28
 -17189154.59848 -13387939.88746  21533627.8524                   21533627.9574
    320502.13346    264797.71544  23911636.3284                   23911639.9184
  -7319749.25448  -5663274.31646  20060925.9144                   20060926.7424
  -7643672.10547  -5883513.13345  22366254.5164                   22366258.5554
  -9382044.12147  -7307366.66445  22202610.7194                   22202613.2194
   5935898.77047   4628372.90246  22010458.6884                   22010460.9804
   7962557.80147   6205732.19144  22708710.4614                   22708714.1134
 11  9 21 20 48  0.0000000  0  7G02G12G04G10G09G17G28
 -17276241.28948 -13455799.56246  21517055.8444                   21517055.4884
    193648.43846    165950.78544  23887496.7344                   23887500.0124
  -7326440.16448  -5668488.00846  20059652.4224                   20059653.8714
  -7754679.35947  -5970012.17245  22345130.5234                   22345135.0084
  -9395101.05148  -7317540.91845  22200126.0554                   22200129.1294
   5943528.66047   4634318.21946  22011911.0554                   22011912.9964
   8007259.41047   6240564.46144  22717217.1644                   22717220.5984
 11  9 21 20 48 30.0000000  0  7G02G12G04G10G09G17G28
 -17362977.49648 -13523386.12946  21500550.4224                   21500550.2664
     66851.38746     67147.99244  23863367.8444                   23863371.4414
  -7332639.87548  -5673318.94546  20058472.8444                   20058474.3554
  -7865396.17647  -6056284.89545  22324062.2584                   22324066.1564
  -9407560.93747  -7327249.93745  22197754.4384                   22197758.3444
   5951237.92648   4640325.39546  22013377.7274                   22013379.9024
   8052297.67247   6275659.05944  22725787.1724                   22725791.7304
 11  9 21 20 49  0.0000000  0  7G02G12G04G10G09G17G28
 -17449361.93748 -13590698.60246  21484112.0394                   21484111.7464
    -59886.38346    -31608.58644  23839250.4844                   23839254.1764
  -7338349.69148  -5677768.15246  20057386.2664                   20057387.1484
  -7975818.55147  -6142328.18745  22303048.9614                   22303053.3914
  -9419424.41447  -7336494.23445  22195497.5234                   22195500.3674
   5959027.41448   4646395.08646  22014860.3984                   22014862.2234
   8097672.28947   6311015.75844  22734421.7034                   22734425.3404
 11  9 21 20 49 30.0000000  0  7G02G12G04G10G09G17G28
 -17535391.81248 -13657734.78546  21467740.9454                   21467741.5354
   -186560.45347   -130315.54345  23815145.0004                   23815149.2934
  -7343568.84448  -5681835.02346  20056393.3984                   20056394.0704
  -8085941.26647  -6228137.97745  22282093.5944                   22282097.2234
  -9430690.88348  -7345273.32845  22193353.9064                   22193357.5354
   5966899.95348   4652529.48046  22016358.4224                   22016360.1994
   8143384.59847   6346635.56644  22743121.0084                   22743124.3244
 11  9 21 20 50  0.0000000  0  7G02G12G04G10G09G17G28
 -17621067.23848 -13724494.78546  21451437.7424                   21451437.7074
   -313168.89547   -228971.34844  23791051.8594                   23791056.5664
  -7348299.50448  -5685521.25447  20055493.0784                   20055494.3834
  -8195761.19947  -6313711.81645  22261194.8204                   22261199.3164
  -9441362.06647  -7353588.53945  22191322.9304                   22191326.6094
   5974855.14148   4658728.29746  22017872.6414                   22017874.0314
   8189433.19947   6382517.43044  22751883.2664                   22751887.2074
 11  9 21 20 50 30.0000000  0  7G02G12G04G10G09G17G28
 -17706386.62948 -13790977.34446  21435201.8284                   21435201.4694
   -439708.91047   -327573.85944  23766972.5234                   23766976.1604
  -7352542.37548  -5688827.38347  20054685.5634                   20054686.8484
  -8305274.25847  -6399046.56245  22240355.5084                   22240359.5274
  -9451438.86747  -7361440.62545  22189405.5314                   22189408.4574
   5982893.92248   4664992.23446  22019402.4614                   22019404.1914
   8235818.05947   6418661.28144  22760710.1334                   22760714.1844
 11  9 21 20 51  0.0000000  0  7G02G12G04G10G09G17G28
 -17791350.04748 -13857182.51646  21419033.4694                   21419033.5044
   -566178.67647   -426121.60944  23742906.3524                   23742909.3134
  -7356300.03148  -5691755.42246  20053970.6644                   20053971.5634
  -8414477.57047  -6484139.93045  22219574.5234                   22219578.6954
  -9460923.34047  -7368831.12945  22187600.6414                   22187603.0514
   5991016.25448   4671321.27746  22020948.2504                   22020949.8714
   8282537.39547   6455065.78944  22769600.7504                   22769604.6724
 11  9 21 20 51 30.0000000  0  7G02G12G04G10G09G17G28
 -17875956.69948 -13923109.70346  21402933.6954                   21402933.4414
   -692575.93447   -524612.89844  23718853.6334                   23718856.5124
  -7359573.74648  -5694306.37147  20053347.7504                   20053347.8484
  -8523367.68047  -6568989.25845  22198853.4774                   22198857.8794
  -9469816.91447  -7375761.21145  22185908.0554                   22185911.2814
   5999222.69148   4677715.85946  22022509.8284                   22022511.1804
   8329590.52047   6491730.37144  22778554.8204                   22778559.0204
 11  9 21 20 52  0.0000000  0  7G02G12G04G10G09G17G28
 -17960204.78948 -13988757.48446  21386901.3594                   21386901.3794
   -818896.95347   -623044.76244  23694815.0394                   23694818.8594
  -7362363.93448  -5696480.52746  20052816.8834                   20052817.3094
  -8631939.70347  -6653590.70745  22178192.6024                   22178197.7424
  -9478119.63747  -7382230.90245  22184328.4844                   22184331.3364
   6007514.70348   4684177.12946  22024087.7734                   22024088.8634
   8376978.00447   6528655.50444  22787572.5474                   22787577.9654
 11  9 21 20 52 30.0000000  0  7G02G12G04G10G09G17G28
 -18044091.65648 -14054123.78946  21370938.3444                   21370938.2154
   -945137.71547   -721414.10944  23670792.4454                   23670795.1214
  -7364670.31648  -5698277.69946  20052377.6644                   20052378.8164
  -8740187.97747  -6737939.86745  22157593.4924                   22157597.6644
  -9485831.11747  -7388239.87945  22182860.8834                   22182863.4144
   6015894.86748   4690707.09046  22025682.2274                   22025684.1334
   8424700.73447   6565841.85944  22796654.2734                   22796660.2114
 11  9 21 20 53  0.0000000  0  7G02G12G04G10G09G17G28
 -18127617.27748 -14119208.60246  21355044.1024                   21355044.0234
  -1071296.18447   -819719.31244  23646785.0944                   23646787.6454
  -7366495.03548  -5699699.56647  20052030.6564                   20052032.0554
  -8848110.11747  -6822034.93445  22137056.5394                   22137060.2384
  -9492953.37947  -7393789.71945  22181505.5004                   22181508.1724
   6024363.10947   4697305.68846  22027293.6334                   22027296.0204
   8472757.13747   6603288.24644  22805798.7424                   22805804.1454
 11  9 21 20 53 30.0000000  0  7G02G12G04G10G09G17G28
 -18210780.05548 -14184010.68046  21339218.6334                   21339218.7894
  -1197368.63347   -917957.45744  23622793.7194                   23622797.3834
  -7367838.72348  -5700746.59047  20051774.6644                   20051775.6604
  -8955701.54747  -6905872.28145  22116582.7034                   22116586.9224
  -9499486.89547  -7398880.79345  22180262.3134                   22180265.1844
   6032920.75047   4703973.91446  22028922.2894                   22028924.4384
   8521147.83647   6640995.08244  22815007.3284                   22815011.7034
 11  9 21 20 54  0.0000000  0  7G02G12G04G10G09G17G28
 -18293580.19948 -14248530.19546  21323462.2424                   21323462.4344
  -1323353.87547  -1016127.64844  23598819.2114                   23598822.8444
  -7368704.13748  -5701420.93746  20051610.2424                   20051611.0634
  -9062959.42647  -6989449.75045  22096171.8754                   22096176.3164
  -9505434.41847  -7403515.23445  22179130.6334                   22179133.7344
   6041567.28947   4710711.42646  22030567.4144                   22030569.1604
   8569870.52347   6678960.62144  22824279.3674                   22824283.8404
 11  9 21 20 54 30.0000000  0  7G02G12G04G10G09G17G28
 -18376015.99248 -14312765.77746  21307774.7584                   21307774.3444
  -1449248.54347  -1114227.24244  23574861.7194                   23574865.9304
  -7369091.81648  -5701723.02047  20051536.3524                   20051537.1524
  -9169879.47347  -7072763.95745  22075825.4924                   22075829.7274
  -9510796.31247  -7407693.36745  22178109.9304                   22178113.2704
   6050304.66047   4717519.71946  22032230.4144                   22032231.9264
   8618925.64547   6717185.17644  22833614.4144                   22833618.6484
 11  9 21 20 55  0.0000000  0  7G02G12G04G10G09G17G28
 -18458086.11748 -14376716.44546  21292157.4064                   21292156.8754
  -1575049.38347  -1212253.75444  23550922.9144                   23550926.7584
  -7369002.44548  -5701653.37547  20051553.3754                   20051554.7544
  -9276457.22347  -7155811.42245  22055544.8444                   22055548.4804
  -9515573.25447  -7411415.69945  22177201.7504                   22177204.2504
   6059134.11347   4724399.75046  22033910.4924                   22033912.3794
   8668312.74647   6755668.43444  22843012.5634                   22843016.5164
 11  9 21 20 55 30.0000000  0  7G02G12G04G10G09G17G28
 -18539791.52048 -14440382.91446  21276609.6024                   21276609.7584
  -1700755.07847  -1310206.12944  23527002.0704                   23527005.8404
  -7368439.18748  -5701214.49647  20051660.6564                   20051661.6524
  -9382690.80147  -7238590.69545  22035328.5634                   22035332.5904
  -9519768.35547  -7414684.63345  22176402.8834                   22176406.7934
   6068053.97347   4731350.23046  22035608.4454                   22035609.2974
   8718029.68847   6794408.73844  22852473.3134                   22852477.8444
 11  9 21 20 56  0.0000000  0  7G02G12G04G10G09G17G28
 -18621128.85548 -14503762.58646  21261131.5704                   21261131.4454
  -1826360.70347  -1408080.55144  23503099.8444                   23503103.7704
  -7367401.18448  -5700405.66446  20051858.0864                   20051858.8524
  -9488574.11747  -7321097.07045  22015179.8444                   22015183.8094
  -9523380.71147  -7417499.50845  22175715.3284                   22175718.8834
   6077067.93848   4738374.04346  22037323.4304                   22037324.5474
   8768078.22347   6833407.38744  22861998.1564                   22862001.7114
 11  9 21 20 56 30.0000000  0  7G02G12G04G10G09G17G28
 -18702099.71148 -14566856.68446  21245723.1334                   21245722.9534
  -1951866.10547  -1505876.83644  23479216.9384                   23479220.9574
  -7365892.19948  -5699229.83246  20052145.3984                   20052146.1844
  -9594106.07047  -7403329.64545  21995098.1334                   21995101.4104
  -9526413.91447  -7419863.07845  22175138.9924                   22175142.0904
   6086174.21148   4745469.80146  22039056.5554                   22039057.5904
   8818455.12147   6872661.95744  22871584.7584                   22871588.3754
 11  9 21 20 57  0.0000000  0  7G02G12G04G10G09G17G28
 -18782701.15248 -14629662.92646  21230384.9384                   21230384.4924
  -2077266.15247  -1603591.04744  23455354.0864                   23455357.5234
  -7363911.67248  -5697686.55946  20052522.1954                   20052523.2344
  -9699280.35247  -7485283.48845  21975083.8284                   21975087.7504
  -9528867.33647  -7421774.87545  22174671.9064                   22174675.1484
   6095376.05948   4752640.01246  22040807.8054                   22040809.3554
   8869161.91447   6912173.55144  22881234.4454                   22881237.9654
 11  9 21 20 57 30.0000000  0  7G02G12G04G10G09G17G28
 -18862934.88348 -14692182.64546  21215117.1334                   21215117.0124
  -2202560.69547  -1701223.03545  23431511.3204                   23431513.9964
  -7361463.00048  -5695778.52347  20052988.1954                   20052989.1644
  -9804095.83647  -7566957.75845  21955137.7034                   21955142.7974
  -9530744.73847  -7423237.82445  22174314.3444                   22174317.8794
   6104671.87147   4759883.45745  22042576.3364                   22042578.4574
   8920195.59447   6951939.85544  22890945.4774                   22890950.2194
 11  9 21 20 58  0.0000000  0  7G02G12G04G10G09G17G28
 -18942798.37148 -14754413.86346  21199919.6334                   21199919.2814
  -2327745.34847  -1798769.39845  23407689.6094                   23407691.8284
  -7358546.64148  -5693506.03946  20053543.2114                   20053543.7974
  -9908547.24647  -7648348.35945  21935261.1094                   21935265.1604
  -9532046.15647  -7424251.94945  22174066.6174                   22174070.0234
   6114063.68847   4767201.71145  22044363.5704                   22044365.7304
   8971556.78947   6991961.32444  22900719.4304                   22900723.8244
 11  9 21 20 58 30.0000000  0  7G02G12G04G10G09G17G28
 -19022289.10948 -14816354.64146  21184793.0394                   21184792.7854
  -2452815.51247  -1896226.56244  23383888.8524                   23383891.6174
  -7355161.83248  -5690868.52346  20054187.3054                   20054187.7034
 -10012629.06248  -7729450.94945  21915455.5084                   21915459.0124
  -9532771.12947  -7424816.91445  22173929.0314                   22173931.6054
   6123554.48847   4774597.09446  22046169.6174                   22046171.9144
   9023246.58647   7032238.87144  22910555.6804                   22910560.3794
 11  9 21 20 59  0.0000000  0  7G02G12G04G10G09G17G28
 -19101408.65648 -14878006.16446  21169736.6804                   21169736.3524
  -2577771.06647  -1993594.43045  23360111.1724                   23360113.6524
  -7351312.80948  -5687869.28946  20054919.5784                   20054920.3404
 -10116340.07048  -7810264.61345  21895719.9144                   21895723.4574
  -9532923.81247  -7424935.94145  22173899.9454                   22173902.6954
   6133142.57047   4782068.27045  22047994.0554                   22047995.6484
   9075261.82447   7072770.02044  22920454.2034                   22920459.0234
 11  9 21 20 59 30.0000000  0  7G02G12G04G10G09G17G28
 -19180153.30548 -14939365.58246  21154752.4304                   21154751.7544
  -2702605.91847  -2090868.25044  23336355.8674                   23336358.1764
  -7346997.96148  -5684507.09446  20055740.7894                   20055741.3634
 -10219673.35947  -7890783.94145  21876055.3204                   21876059.5634
  -9532502.74647  -7424607.88745  22173980.1024                   22173982.7544
   6142831.83247   4789618.29745  22049837.9534                   22049839.9964
   9127605.07047   7113556.73444  22930414.8204                   22930419.6024
 11  9 21 21  0  0.0000000  0  7G02G12G04G10G09G17G28
 -19258523.18048 -15000432.95746  21139838.6334                   21139838.5984
  -2827318.20347  -2188046.54744  23312623.1954                   23312626.0274
  -7342219.66448  -5680783.74247  20056650.1484                   20056650.8794
 -10322626.46547  -7971007.00445  21856463.7814                   21856468.1524
  -9531510.27347  -7423834.58645  22174169.0944                   22174172.1954
   6152621.92647   4797246.87945  22051701.0784                   22051702.3244
   9180274.14847   7154597.32044  22940437.3444                   22940441.5864
 11  9 21 21  0 30.0000000  0  7G02G12G04G10G09G17G28
 -19336519.77048 -15061209.45746  21124996.5234                   21124996.3244
  -2951907.59047  -2285129.07044  23288914.9384                   23288917.3634
  -7336981.72748  -5676702.23847  20057646.6024                   20057647.7304
 -10425197.73447  -8050932.54345  21836945.2974                   21836949.8284
  -9529950.10947  -7422618.91045  22174465.8204                   22174469.1954
   6162511.20347   4804952.74645  22053582.5474                   22053584.2384
   9233266.16847   7195889.59044  22950521.8594                   22950526.5944
 11  9 21 21  1  0.0000000  0  7G02G12G04G10G09G17G28
 -19414140.74648 -15121693.28546  21110225.7894                   21110225.3914
  -3076369.18747  -2382112.02344  23265230.7034                   23265233.0164
  -7331283.72348  -5672262.25846  20058730.8834                   20058731.7114
 -10527381.77048  -8130556.35545  21817500.9384                   21817503.9494
  -9527822.07847  -7420960.73445  22174870.7584                   22174873.2704
   6172502.95347   4812738.44945  22055484.4384                   22055486.0554
   9286582.38347   7237434.49244  22960668.1484                   22960672.8244
 11  9 21 21  1 30.0000000  0  7G02G12G04G10G09G17G28
 -19491386.15248 -15181884.45346  21095526.3914                   21095525.8444
  -3200701.29747  -2478994.06644  23241570.8364                   23241572.7934
  -7325128.17248  -5667465.72747  20059902.7194                   20059903.8674
 -10629175.85248  -8209876.30145  21798129.9304                   21798132.9224
  -9525128.81247  -7418862.12145  22175383.5314                   22175386.9384
   6182596.58647   4820603.56645  22057404.8984                   22057406.5354
   9340220.75447   7279230.39144  22970875.1564                   22970879.0944
 11  9 21 21  2  0.0000000  0  8G02G05G12G04G10G09G17G28
 -19568260.37148 -15241786.39546  21080897.8204                   21080896.8954
   6048384.58656   4725118.24654  24596145.6884                   24596159.1054
  -3324905.92647  -2575776.78544  23217935.1414                   23217937.6094
  -7318521.74248  -5662317.86747  20061159.8834                   20061160.5004
 -10730581.37547  -8288893.45745  21778832.2194                   21778836.0084
  -9521876.77047  -7416328.11745  22176002.0394                   22176005.5274
   6192788.34847   4828545.16045  22059344.4304                   22059346.0204
   9394175.77347   7321273.03544  22981142.6884                   22981146.6454
 11  9 21 21  2 30.0000000  0  8G02G05G12G04G10G09G17G28
 -19644775.05148 -15301408.16046  21066337.4614                   21066336.7234
   5912491.90646   4619228.22743  24570285.6334                   24570299.2734
  -3448992.82447  -2672467.78544  23194322.5314                   23194324.6174
  -7311478.09848  -5656829.32047  20062500.0004                   20062501.2894
 -10831607.18447  -8367614.77045  21759607.9614                   21759612.1914
  -9518080.21947  -7413369.83645  22176725.1564                   22176727.6254
   6203066.66847   4836554.18045  22061300.5084                   22061302.4844
   9448434.03947   7363552.00044  22991467.8054                   22991472.3404
 11  9 21 21  3  0.0000000  0  8G02G05G12G04G10G09G17G28
 -19720928.05548 -15360748.11346  21051845.9224                   21051846.0044
   5776512.91046   4513270.93444  24544409.7274                   24544423.4574
  -3572957.73047  -2769063.69945  23170732.4844                   23170734.6134
  -7303997.84448  -5651000.56646  20063923.4844                   20063924.6914
 -10932248.28548  -8446036.30945  21740456.8834                   21740460.8524
  -9513739.60947  -7409987.58245  22177550.7504                   22177553.5664
   6213433.59847   4844632.26245  22063273.1644                   22063275.0594
   9502996.02347   7406067.62144  23001850.5704                   23001855.2974
 11  9 21 21  3 30.0000000  0  8G02G05G12G04G10G09G17G28
 -19796719.17648 -15419806.06646  21037423.3674                   21037422.6564
   5640450.32446   4407248.56344  24518517.9534                   24518530.8444
  -3696798.13747  -2865562.61744  23147166.6414                   23147168.8164
  -7296082.62548  -5644832.87146  20065429.5864                   20065430.6484
 -11032501.18447  -8524155.33245  21721378.9534                   21721382.9534
  -9508856.84447  -7406182.87945  22178479.9694                   22178483.5354
   6223889.79747   4852779.88345  22065263.4144                   22065265.6134
   9557860.75847   7448819.14844  23012290.9064                   23012296.1414
 11  9 21 21  4  0.0000000  0  8G02G05G12G04G10G09G17G28
 -19872141.27048 -15478576.47346  21023070.8364                   21023070.0234
   5504313.32446   4301168.20344  24492611.0394                   24492624.3444
  -3820504.76247  -2961957.27745  23123626.1334                   23123628.9304
  -7287727.48447  -5638322.38746  20067019.5784                   20067020.7584
 -11132355.78148  -8601964.00045  21702377.0944                   21702380.4574
  -9503427.39547  -7401952.18445  22179512.9304                   22179517.0744
   6234442.72347   4861002.87945  22067271.4844                   22067273.8984
   9613033.64847   7491810.78943  23022789.9384                   23022794.9184
 11  9 21 21  4 30.0000000  0  8G02G05G12G04G10G09G17G28
 -19947189.07848 -15537055.23446  21008789.7814                   21008789.1024
   5368109.50046   4195035.77743  24466691.9614                   24466705.7774
  -3944069.97747  -3058241.74645  23100112.1254                   23100114.5314
  -7278929.75448  -5631467.04746  20068693.6954                   20068694.4804
 -11231804.26648  -8679456.22345  21683453.1804                   21683456.6294
  -9497448.43047  -7397293.30145  22180650.8364                   22180654.0664
   6245097.44547   4869305.21545  22069298.9224                   22069301.0904
   9668518.19547   7535045.27344  23033348.8134                   23033353.9224
 11  9 21 21  5  0.0000000  0  8G02G05G12G04G10G09G17G28
 -20021859.51248 -15595239.92646  20994580.7734                   20994579.9844
   5231844.84446   4088856.00043  24440760.8984                   24440774.8984
  -4067488.35247  -3154411.78945  23076626.0164                   23076629.1334
  -7269688.20748  -5624265.84446  20070452.5004                   20070453.2704
 -11330840.10548  -8756626.90645  21664607.0394                   21664610.8094
  -9490918.99647  -7392205.50045  22181893.7034                   22181896.7624
   6255857.85947   4877689.90245  22071346.3204                   22071349.1134
   9724316.47347   7578524.23043  23043966.6254                   23043972.5864
 11  9 21 21  5 30.0000000  0  8G02G05G12G04G10G09G17G28
 -20096152.02748 -15653130.14546  20980443.2034                   20980442.3524
   5095522.14846   3982631.00843  24414819.4844                   24414833.1334
  -4190757.26247  -3250465.40245  23053168.8834                   23053171.2854
  -7260004.57448  -5616720.18446  20072295.3594                   20072296.4654
 -11429460.05948  -8833473.52346  21645840.3444                   21645843.9574
  -9483841.00447  -7386690.24645  22183240.6174                   22183245.2194
   6266724.23847   4886157.16845  22073414.5554                   22073416.7344
   9780427.40646   7622246.81644  23054644.2734                   23054651.2424
 11  9 21 21  6  0.0000000  0  8G02G05G12G04G10G09G17G28
 -20170064.14848 -15710723.95346  20966378.0314                   20966376.9304
   4959147.35946   3876365.39543  24388867.7814                   24388880.8634
  -4313871.89847  -3346398.78945  23029740.7664                   23029742.9264
  -7249878.61348  -5608829.83247  20074222.5704                   20074222.9574
 -11527658.78148  -8909991.92245  21627153.6884                   21627156.0744
  -9476214.40247  -7380747.50845  22184691.9844                   22184696.1914
   6277699.75447   4894709.44545  22075502.9304                   22075505.0394
   9836851.67246   7666213.55943  23065381.4614                   23065388.6374
 11  9 21 21  6 30.0000000  0  8G02G05G12G04G10G09G17G28
 -20243595.35248 -15768020.93746  20952385.5394                   20952384.7774
   4822721.86746   3770060.31643  24362907.3444                   24362918.3914
  -4436829.64147  -3442209.92645  23006343.2114                   23006345.4614
  -7239312.21548  -5600596.29346  20076232.9384                   20076234.3634
 -11625432.81647  -8986179.38345  21608547.2734                   21608550.2774
  -9468041.08647  -7374378.73845  22186246.8834                   22186251.1524
   6288784.84447   4903347.12145  22077613.0084                   22077615.8834
   9893588.47746   7710423.85543  23076178.7114                   23076184.3914
 11  9 21 21  7  0.0000000  0  8G02G05G12G04G10G09G17G28
 -20316742.51248 -15825018.66446  20938465.8284                   20938465.3094
   4686252.14846   3663720.76643  24336937.1724                   24336948.4384
  -4559624.91847  -3537894.45745  22982975.2814                   22982978.4184
  -7228304.25048  -5592018.67646  20078327.3054                   20078328.5164
 -11722775.77348  -9062030.94545  21590023.7344                   21590026.0824
  -9459320.30146  -7367583.38345  22187906.7114                   22187911.0704
   6299983.18047   4912073.02745  22079743.6484                   22079746.0434
   9950639.38346   7754878.87543  23087035.7034                   23087041.8794
 11  9 21 21  7 30.0000000  0  8G02G05G12G04G10G09G17G28
 -20389506.35948 -15881717.71146  20924619.6564                   20924618.8594
   4549740.12945   3557348.20342  24310958.9064                   24310971.3204
  -4682256.17647  -3633451.19945  22959639.7974                   22959642.0984
  -7216857.59848  -5583099.21147  20080505.8134                   20080507.0514
 -11819685.82448  -9137545.17245  21571582.2584                   21571585.3364
  -9450055.40647  -7360364.04345  22189669.4694                   22189673.5944
   6311294.56647   4920887.04345  22081896.4774                   22081897.9384
  10008002.09046   7799576.86344  23097951.4064                   23097958.8284
 11  9 21 21  8  0.0000000  0  8G02G05G12G04G10G09G17G28
 -20461885.40248 -15938116.90646  20910846.4454                   20910845.2734
   4413189.89545   3450945.85942  24284972.7194                   24284986.7194
  -4804719.35547  -3728876.97345  22936335.6484                   22936337.8834
  -7204973.20348  -5573838.66046  20082767.0554                   20082768.2624
 -11916158.48847  -9212718.56645  21553223.9304                   21553227.2664
  -9440247.75847  -7352721.82045  22191536.1334                   22191539.4414
   6322720.89148   4929790.59846  22084070.7734                   22084073.0124
  10065676.50046   7844517.74643  23108926.0004                   23108933.4774
 11  9 21 21  8 30.0000000  0  8G02G05G12G04G10G09G17G28
 -20533878.84848 -15994215.64546  20897146.2584                   20897145.4614
   4276605.12545   3344516.55943  24258981.6094                   24258995.6644
  -4927011.30147  -3824169.32045  22913063.8054                   22913066.3364
  -7192652.30548  -5564237.98446  20085111.5474                   20085112.6954
 -12012189.72347  -9287548.00845  21534949.8754                   21534952.6054
  -9429898.29747  -7344657.35245  22193505.9694                   22193509.4064
   6334263.04347   4938784.42246  22086267.2894                   22086269.4804
  10123662.18046   7889701.16443  23119959.8914                   23119968.2234
 11  9 21 21  9  0.0000000  0  8G02G05G12G04G10G09G17G28
 -20605485.62948 -16050013.08646  20883519.8204                   20883518.9344
   4139989.07046   3238062.90643  24232984.8524                   24232999.1214
  -5049128.72747  -3919325.66044  22889825.6174                   22889827.3134
  -7179896.14148  -5554298.13746  20087539.5314                   20087540.2114
 -12107775.48447  -9362030.30945  21516760.5784                   21516762.7974
  -9419009.01647  -7336172.28145  22195578.1644                   22195581.9534
   6345922.55147   4947869.68845  22088485.8674                   22088487.5864
  10181958.39145   7935126.53943  23131053.6024                   23131061.3834
 11  9 21 21  9 30.0000000  0  8G02G05G12G04G10G09G17G28
 -19101282.14848 -14877906.42646  21169760.1484                   21169759.4614
   5578770.41846   4359191.56343  24506775.5004                   24506788.4384
  -3595643.76647  -2786739.89544  23166414.7034                   23166416.9804
  -5591285.91848  -4316420.05946  20389841.8134                   20389842.9064
 -10627488.40247  -8208559.75845  21798449.9844                   21798451.3874
  -7832161.29747  -6099667.64145  22497545.0864                   22497548.8014
   7933120.74247   6184647.43845  22390519.8834                   22390521.7464
  11815983.25046   9208392.42643  23441998.6954                   23442005.8014
 11  9 21 21 10  0.0000000  0  8G02G05G12G04G10G09G17G28
 -19172118.20748 -14933103.30146  21156280.6024                   21156279.5554
   5442097.50046   4252693.54344  24480768.0864                   24480779.9414
  -3717407.36347  -2881620.56645  23143244.1644                   23143245.0514
  -5577668.12148  -4305808.80146  20392433.5164                   20392434.3244
 -10722177.07447  -8282343.05145  21780430.6094                   21780432.5274
  -7820201.85947  -6090348.66445  22499821.1094                   22499824.5554
   7945013.71147   6193914.61745  22392783.0554                   22392785.0394
  11874894.07846   9254296.73443  23453209.5864                   23453216.4884
 11  9 21 21 10 30.0000000  0  8G02G05G12G04G10G09G17G28
 -19242572.15648 -14988002.43746  21142873.6334                   21142872.8984
   5305397.01246   4146174.04344  24454754.7194                   24454766.1294
  -3838993.26247  -2976362.73845  23120106.7894                   23120107.5944
  -5563625.95348  -4294866.87546  20395105.7344                   20395106.5944
 -10816415.64848  -8355775.60545  21762498.2344                   21762499.6524
  -7807714.38747  -6080618.22345  22502197.1724                   22502200.7114
   7957020.70347   6203270.66445  22395067.5864                   22395069.9144
  11934106.33646   9300435.91843  23464478.1644                   23464484.6174
 11  9 21 21 11  0.0000000  0  8G02G05G12G04G10G09G17G28
 -19312641.92248 -15042602.19946  21129539.5634                   21129538.7854
   5168673.55546   4039636.67644  24428736.5474                   24428748.5824
  -3960397.55147  -3070963.39145  23097004.1334                   23097006.0474
  -5549159.82048  -4283594.58646  20397858.2504                   20397859.0984
 -10910199.64148  -8428853.93745  21744651.2974                   21744653.8244
  -7794699.20747  -6070476.60945  22504674.1644                   22504677.9964
   7969144.36347   6212717.59845  22397374.8524                   22397377.1994
  11993620.59846   9346810.46543  23475804.0864                   23475809.5944
 11  9 21 21 11 30.0000000  0  8G02G05G12G04G10G09G17G28
 -19382328.45748 -15096903.34046  21116278.4304                   21116278.4024
   5031929.06346   3933082.90244  24402714.7734                   24402725.8364
  -4081618.32047  -3165421.05945  23073936.7504                   23073938.4774
  -5534272.73448  -4271994.27346  20400691.0704                   20400692.0904
 -11003527.01247  -8501576.47345  21726891.3134                   21726893.9694
  -7781159.83246  -6059926.50845  22507250.2424                   22507252.9964
   7981384.29347   6222255.13745  22399704.3594                   22399706.4844
  12053434.38346   9393418.39143  23487186.2034                   23487191.8954
 11  9 21 21 12  0.0000000  0  8G02G05G12G04G10G09G17G28
 -19451631.91448 -15150905.98846  21103090.5084                   21103090.3164
   4895166.22346   3826514.89844  24376688.7584                   24376699.9774
  -4202653.27347  -3259733.92645  23050904.6724                   23050906.5514
  -5518966.73048  -4260067.54746  20403603.8754                   20403604.7034
 -11096394.44547  -8573940.61345  21709219.3284                   21709221.9184
  -7767098.99646  -6048970.06645  22509925.9774                   22509929.0354
   7993740.74647   6231883.49246  22402055.4064                   22402057.9384
  12113546.43046   9440258.71143  23498625.2584                   23498631.8204
 11  9 21 21 12 30.0000000  0  8G02G05G12G04G10G09G17G28
 -19520555.75048 -15204612.81246  21089974.9534                   21089973.7274
   4758384.42646   3719932.10544  24350658.8834                   24350670.7814
  -4323503.38747  -3353902.73845  23027907.6414                   23027910.0314
  -5503247.53548  -4247818.84046  20406595.0164                   20406596.0004
 -11188802.76247  -8645946.99246  21691634.6804                   21691638.3054
  -7752522.55547  -6037611.87945  22512700.1954                   22512703.6884
   8006211.00447   6241600.49645  22404428.4924                   22404430.8754
  12173951.48846   9487327.37143  23510119.6334                   23510126.3594
 11  9 21 21 13  0.0000000  0  8G02G05G12G04G10G09G17G28
 -19589098.15248 -15258022.44146  21076931.3204                   21076930.0314
   4621587.64146   3613337.67243  24324626.0394                   24324638.8164
  -4444164.43047  -3447924.23845  23004946.3674                   23004948.8324
  -5487115.95348  -4235248.79346  20409665.0314                   20409665.8754
 -11280747.43748  -8717592.10546  21674138.2584                   21674141.0664
  -7737431.71547  -6025852.84845  22515571.9384                   22515575.9844
   8018796.84447   6251407.58245  22406823.7424                   22406825.4734
  12234649.56646   9534624.35243  23521670.2114                   23521676.9304
 11  9 21 21 13 30.0000000  0  8G02G05G12G04G10G09G17G28
 -19657259.82048 -15311135.38346  21063960.7814                   21063959.9264
   4484778.71546   3506733.68843  24298592.6804                   24298604.5164
  -4564634.57447  -3541796.95745  22982021.5704                   22982023.6914
  -5470574.52748  -4222359.39146  20412812.7974                   20412813.5864
 -11372226.01647  -8788874.01246  21656730.2424                   21656733.2734
  -7721829.49247  -6013695.34845  22518541.3674                   22518544.7074
   8031498.48048   6261304.90245  22409240.7424                   22409241.8524
  12295638.78946   9582148.15243  23533275.7814                   23533283.4844
 11  9 21 21 14  0.0000000  0  8G02G05G12G04G10G09G17G28
 -19725043.60948 -15363953.85946  21051061.3834                   21051061.3914
   4347957.40246   3400120.09843  24272558.0634                   24272568.6684
  -4684913.52347  -3635520.71945  22959132.4614                   22959134.7894
  -5453628.03548  -4209154.35246  20416037.4774                   20416038.4694
 -11463238.23047  -8859792.52046  21639411.1954                   21639414.4184
  -7705720.87547  -6001143.23445  22521605.9924                   22521610.0824
   8044313.80948   6271290.80945  22411679.6724                   22411681.4414
  12356915.28546   9629895.80543  23544937.0704                   23544944.8794
 11  9 21 21 14 30.0000000  0  8G02G05G12G04G10G09G17G28
 -19792450.95348 -15416479.01246  21038234.4614                   21038234.1254
   4211125.09846   3293497.92244  24246518.3444                   24246529.6684
  -4805000.50447  -3729094.88745  22936281.0084                   22936283.0744
  -5436279.96948  -4195636.38746  20419338.4454                   20419339.9264
 -11553782.67247  -8930346.57046  21622181.0474                   21622184.1764
  -7689110.08247  -5988199.81645  22524767.1644                   22524770.8244
   8057241.83647   6281364.53545  22414139.7814                   22414141.8284
  12418475.58646   9677864.62143  23556651.7344                   23556660.3554
 11  9 21 21 15  0.0000000  0  8G02G05G12G04G10G09G17G28
 -19859479.19948 -15468708.77046  21025479.4304                   21025478.8914
   4074287.21946   3186871.37943  24220478.4384                   24220490.4454
  -4924890.18447  -3822515.30545  22913466.7504                   22913468.8364
  -5418529.80548  -4181805.12146  20422716.6484                   20422717.6174
 -11643853.66047  -9000531.67245  21605040.8444                   21605043.3284
  -7671997.02747  -5974865.01645  22528023.7664                   22528027.6484
   8070285.92647   6291528.69145  22416621.6804                   22416624.0554
  12480320.99646   9726055.59043  23568420.8984                   23568429.2624
 11  9 21 21 15 30.0000000  0  8G02G05G12G04G10G09G17G28
 -19926132.00848 -15520645.98046  21012796.1414                   21012795.3984
   3937443.51646   3080240.28543  24194437.8054                   24194448.5984
  -5044583.60247  -3915782.77745  22890689.4534                   22890691.8244
  -5400383.37148  -4167665.04346  20426169.4614                   20426170.5704
 -11733451.78547  -9070348.30545  21587991.1484                   21587992.7384
  -7654387.84047  -5961143.62945  22531374.5004                   22531378.4534
   8083442.74248   6301780.67245  22419125.7504                   22419127.4614
  12542446.37946   9774464.74643  23580243.4304                   23580250.8954
 11  9 21 21 16  0.0000000  0  8G02G05G12G04G10G09G17G28
 -19992408.84048 -15572290.21146  21000183.9304                   21000183.3594
   3800597.12146   2973607.12143  24168397.1254                   24168407.2234
  -5164077.34847  -4008894.68745  22867950.2894                   22867953.3364
  -5381842.36748  -4153217.51646  20429697.9144                   20429698.9534
 -11822573.73047  -9139793.89545  21571031.1174                   21571033.6294
  -7636284.68047  -5947037.34045  22534819.5004                   22534823.1054
   8096713.47347   6312121.45345  22421650.9614                   22421652.4384
  12604850.62546   9823091.18843  23592119.1804                   23592125.0664
 11  9 21 21 16 30.0000000  0  8G02G05G12G04G10G09G17G28
 -20058311.22348 -15623642.68046  20987642.8444                   20987642.1644
   3663749.08246   2866972.66044  24142355.2814                   24142365.7584
  -5283370.68747  -4101850.44545  22845249.6954                   22845251.7234
  -5362910.57448  -4138465.47746  20433300.3054                   20433301.1214
 -11911218.32447  -9208867.53945  21554162.5634                   21554164.6134
  -7617691.69947  -5932549.35545  22538357.8984                   22538361.9494
   8110097.53947   6322550.50845  22424197.9774                   22424200.9494
  12667530.64846   9871932.53543  23604046.7894                   23604052.7664
 11  9 21 21 17  0.0000000  0  8G02G05G12G04G10G09G17G28
 -20123843.16048 -15674706.47746  20975172.5314                   20975172.1024
   3526898.36347   2760336.10944  24116313.8754                   24116323.9304
  -5402465.05147  -4194651.14845  22822586.6094                   22822589.0354
  -5343593.94948  -4123413.58246  20436976.2194                   20436976.9064
 -11999386.53147  -9277569.95345  21537384.7734                   21537387.1094
  -7598615.78947  -5917685.05945  22541988.0234                   22541992.6564
   8123591.02047   6333064.85545  22426765.7814                   22426767.2734
  12730480.96546   9920984.47743  23616025.7584                   23616033.0554
 11  9 21 21 17 30.0000000  0  8G02G05G12G04G10G09G17G28
 -20189002.56648 -15725480.00446  20962773.1334                   20962772.6214
   3390050.46547   2653701.74644  24090272.1414                   24090282.2934
  -5521355.45747  -4287292.89145  22799962.3134                   22799965.2504
  -5323892.38748  -4108061.72746  20440725.3204                   20440726.2304
 -12087073.35547  -9345897.27345  21520698.7894                   21520700.5784
  -7579056.93747  -5902444.45745  22545710.1484                   22545713.4774
   8137196.91047   6343666.78945  22429353.8754                   22429357.5124
  12793702.25446   9970247.55942  23628056.1804                   23628062.8794
 11  9 21 21 18  0.0000000  0  8G02G05G12G04G10G09G17G28
 -20253792.60548 -15775965.69946  20950444.3054                   20950443.2704
   3253204.88346   2547069.16044  24064231.0004                   24064240.4884
  -5640042.25847  -4379776.03145  22777377.8444                   22777379.2584
  -5303811.28948  -4092414.12946  20444547.0164                   20444547.4184
 -12174278.98047  -9413849.62946  21504103.7734                   21504106.4184
  -7559021.18047  -5886832.23045  22549522.5314                   22549525.7074
   8150912.60247   6354354.26645  22431964.7114                   22431967.1844
  12857189.83645  10019718.11742  23640137.5314                   23640143.7544
 11  9 21 21 18 30.0000000  0  8G02G05G12G04G10G09G17G28
 -20318212.99648 -15826163.36746  20938185.3754                   20938183.8874
   3116365.19146   2440441.21144  24038190.7664                   24038200.7154
  -5758522.40247  -4472098.13745  22754831.3834                   22754833.1134
  -5283352.11348  -4076471.93746  20448439.9304                   20448441.0864
 -12260999.73848  -9481424.17646  21487601.4144                   21487604.1954
  -7538510.66047  -5870850.08245  22553425.7974                   22553429.7384
   8164739.41047   6365128.34845  22434596.1174                   22434598.7704
  12920942.88345  10069395.57442  23652269.7734                   23652275.7704
 11  9 21 21 19  0.0000000  0  8G02G05G12G04G10G09G17G28
 -20382268.37948 -15876076.60946  20925996.1414                   20925994.6804
   2979529.51246   2333816.41444  24012150.2424                   24012161.7154
  -5876797.73447  -4564260.64845  22732324.2734                   22732325.8284
  -5262521.71148  -4060240.48046  20452404.0314                   20452405.0434
 -12347237.65648  -9548622.47346  21471190.8594                   21471193.7734
  -7517532.81647  -5854503.76245  22557417.6174                   22557422.2664
   8178673.37147   6375985.92245  22437247.6024                   22437249.8914
  12984954.73045  10119274.62142  23664451.3134                   23664458.4384
 11  9 21 21 19 30.0000000  0  8G02G05G12G04G10G09G17G28
 -20445955.85548 -15925703.16846  20913876.4844                   20913875.8204
   2842703.73046   2227199.29344  23986114.2274                   23986123.9384
  -5994862.62547  -4656259.16845  22709856.8204                   22709859.1954
  -5241319.45348  -4043719.26646  20456438.6644                   20456439.9654
 -12432987.28547  -9615440.28946  21454873.0474                   21454875.3914
  -7496087.09047  -5837792.87545  22561498.8834                   22561502.6644
   8192718.37947   6386930.01245  22439921.1094                   22439922.8204
  13049226.91446  10169356.51242  23676683.1094                   23676689.8364
 11  9 21 21 20  0.0000000  0  8G02G05G12G04G10G09G17G28
 -20509276.71148 -15975044.05146  20901826.6724                   20901825.8874
   2705889.79646   2120591.44544  23960078.9774                   23960088.9924
  -6112715.48447  -4748092.48445  22687430.3054                   22687432.2234
  -5219748.41848  -4026910.70346  20460543.5394                   20460544.6914
 -12518246.33648  -9681875.82445  21438648.9534                   21438651.0824
  -7474177.58247  -5820720.61745  22565668.5394                   22565671.5234
   8206873.50048   6397959.92245  22442614.2274                   22442616.9104
  13113756.94946  10219639.39542  23688962.3444                   23688969.8324
 11  9 21 21 20 30.0000000  0  8G02G05G12G04G10G09G17G28
 -20572232.38348 -16024100.39546  20889846.7424                   20889845.7544
   2569089.14146   2013993.92844  23934046.1334                   23934056.8634
  -6230355.55147  -4839759.98445  22665043.9144                   22665045.4064
  -5197812.21148  -4009817.57446  20464717.7034                   20464718.9264
 -12603014.01648  -9747928.48446  21422518.0474                   21422520.3484
  -7451808.29347  -5803290.08245  22569924.9614                   22569928.5314
   8221137.89847   6409074.98845  22445329.0864                   22445330.9064
  13178541.72345  10270120.74642  23701290.6954                   23701298.0744
 11  9 21 21 21  0.0000000  0  8G02G05G12G04G10G09G17G28
 -20634823.16448 -16072872.37146  20877936.0164                   20877935.0124
   2432304.74646   1907409.05544  23908016.4694                   23908027.0314
  -6347779.59047  -4931259.16445  22642698.8594                   22642700.6764
  -5175513.08648  -3992441.65246  20468961.3754                   20468962.3794
 -12687287.30148  -9813595.91446  21406481.6644                   21406483.9454
  -7428981.76647  -5785503.25445  22574268.4924                   22574272.5044
   8235512.20347   6420275.71145  22448063.9774                   22448066.1414
  13243579.65645  10320799.46942  23713667.4774                   23713673.8324
 11  9 21 21 21 30.0000000  0  8G02G05G12G04G10G09G17G28
 -20697050.71948 -16121361.34446  20866094.3754                   20866093.2734
   2295538.20346   1800838.11344  23881990.1954                   23882000.0594
  -6464986.85947  -5022589.41845  22620394.8984                   22620396.6454
  -5152854.81248  -3974785.87946  20473272.9844                   20473274.3874
 -12771065.03548  -9878877.19546  21390538.7274                   21390541.5354
  -7405702.69547  -5767363.79345  22578698.4774                   22578702.1994
   8249995.64547   6431561.44945  22450820.3204                   22450821.7814
  13308867.137 5                  23726091.531
 11  9 21 21 22  0.0000000  0  8G02G05G12G04G10G09G17G28
 -20758916.02048 -16169568.02746  20854322.1644                   20854320.7194
   2158791.47346   1694282.60244  23855968.3284                   23855977.3204
  -6581975.50047  -5113749.32845  22598132.9774                   22598135.0664
  -5129840.32048  -3956852.53946  20477652.1414                   20477653.2194
 -12854345.38748  -9943770.88746  21374691.1334                   21374694.4924
  -7381974.77747  -5748874.56645  22583214.0944                   22583217.6334
   8264587.76247   6442931.89845  22453596.7034                   22453598.8094
  13374402.207 5                  23738561.813
 11  9 21 21 22 30.0000000  0  8G02G05G12G04G10G09G17G28
 -20820420.34048 -16217493.43046  20842618.0784                   20842617.4494
   2022066.10247   1587743.69144  23829950.1954                   23829958.4264
  -6698743.80547  -5204737.53545  22575912.3364                   22575914.0864
  -5106472.97748  -3938644.23846  20482098.8834                   20482099.9534
 -12937126.75848 -10008275.78546  21358938.7034                   21358941.0514
  -7357801.85947  -5730038.60945  22587813.8834                   22587818.3244
   8279288.41447   6454386.89145  22456394.3674                   22456396.4924
                                  23751079.250
 11  9 21 21 23  0.0000000  0  8G02G05G12G04G10G09G17G28
 -20881563.66448 -16265137.53546  20830982.7034                   20830982.0784
   1885365.63747   1481224.19144  23803936.9144                   23803945.4304
  -6815288.88347  -5295551.80145  22553734.7584                   22553736.8094
  -5082754.68748  -3920162.47746  20486612.2974                   20486613.5274
 -13019406.35248 -10072389.68045  21343281.4064                   21343283.3054
  -7333186.34047  -5710857.78145  22592498.3204                   22592502.0314
   8294098.44547   6465927.11345  22459212.8054                   22459214.5004
                                  23763645.664
 11  9 21 21 23 30.0000000  0  7G02G05G12G04G10G09G17
 -20942346.90648 -16312501.08246  20819416.4064                   20819415.5824
   1748692.24247   1374725.80144  23777928.5004                   23777938.6914
  -6931608.51247  -5386190.39145  22531599.7344                   22531601.9654
  -5058688.35948  -3901409.52346  20491192.4384                   20491193.6414
 -13101181.94148 -10136110.84046  21327719.5864                   21327720.9924
  -7308131.81647  -5691334.85945  22597265.6024                   22597269.1844
   8309017.59047   6477552.37145  22462051.8524                   22462053.1844
 11  9 21 21 24  0.0000000  0  7G02G05G12G04G10G09G17
 -21002773.77348 -16359586.91446  20807917.2584                   20807916.2544
   1612045.69547   1268248.33244  23751925.5234                   23751935.4694
  -7047703.43047  -5476653.90245  22509507.7974                   22509510.0434
  -5034279.31248  -3882389.50446  20495837.3054                   20495838.1094
 -13182454.43448 -10199439.98446  21312253.8284                   21312256.0864
  -7282644.64547  -5671474.81645  22602116.0004                   22602119.4104
   8324043.39148   6489260.71145  22464911.8364                   22464913.1134
 11  9 21 21 24 30.0000000  0  7G02G05G12G04G10G09G17
 -21062845.14548 -16406395.75046  20796486.0474                   20796485.4694
   1475428.03947   1161793.34844  23725927.8984                   23725936.8794
  -7163572.19547  -5566941.16045  22487458.8204                   22487460.9264
  -5009530.78148  -3863104.96946  20500546.6094                   20500547.9264
 -13263221.91448 -10262375.61746  21296884.5944                   21296886.2774
  -7256728.22746  -5651280.29344  22607047.8204                   22607051.8404
   8339175.46947   6501051.90645  22467790.6254                   22467792.8594
 11  9 21 21 25  0.0000000  0  7G02G05G12G04G10G09G17
 -21122559.95348 -16452926.74646  20785122.7114                   20785121.9534
   1338843.50047   1055364.18044  23699937.0474                   23699945.3364
  -7279210.61347  -5657048.94145  22465453.6414                   22465454.6844
  -4984443.62148  -3843556.54746  20505320.7814                   20505321.1954
 -13343480.68448 -10324914.84446  21281611.5234                   21281613.3134
  -7230384.17647  -5630752.57044  22612061.1804                   22612064.9064
   8354415.70747   6512927.34445  22470690.2114                   22470692.6844
 11  9 21 21 25 30.0000000  0  7G02G05G12G04G10G09G17
 -21181921.39548 -16499182.38346  20773826.6174                   20773825.5554
   1202292.21547    948960.94144  23673951.3524                   23673959.6524
  -7394618.49247  -5746977.09445  22443492.1724                   22443493.3134
  -4959022.66048  -3823748.00446  20510158.1414                   20510159.1844
 -13423230.63348 -10387057.58246  21266435.9224                   21266437.8094
  -7203618.32047  -5609896.13744  22617153.9064                   22617158.2304
   8369762.57447   6524885.87545  22473611.3284                   22473612.9144
 11  9 21 21 26  0.0000000  0  7G02G05G12G04G10G09G17
 -21240927.88748 -16545161.45346  20762598.1174                   20762596.8954
   1065778.75847    842587.20344  23647973.3594                   23647981.3954
  -7509791.74647  -5836722.39845  22421575.0164                   22421576.6374
  -4933268.68748  -3803680.00046  20515058.8134                   20515060.1604
 -13502467.69548 -10448800.66846  21251357.0554                   21251360.1454
  -7176431.97747  -5588712.05945  22622327.8284                   22622331.5704
   8385217.39847   6536928.53145  22476551.8364                   22476554.4414
 11  9 21 21 26 30.0000000  0  7G02G05G12G04G10G09G17
 -21299577.02348 -16590862.03946  20751437.4144                   20751436.0554
    929309.16447    736247.57844  23622003.5944                   23622011.5434
  -7624724.69547  -5926280.47345  22399704.0784                   22399704.6954
  -4907181.11348  -3783352.04746  20520023.1094                   20520024.1214
 -13581186.57048 -10510139.98046  21236377.3444                   21236379.5664
  -7148825.12147  -5567200.31244  22627581.3284                   22627585.5514
   8400784.19547   6549058.43445  22479514.5474                   22479516.8444
 11  9 21 21 27  0.0000000  0  7G02G05G12G04G10G09G17
 -21357874.94948 -16636288.97746  20740344.0004                   20740343.0434
    792880.30947    629939.71544  23596041.9144                   23596049.5314
  -7739421.03547  -6015654.17245  22377877.7814                   22377879.0944
  -4880768.08648  -3762770.49246  20525049.3674                   20525050.5314
 -13659390.73448 -10571078.23046  21221495.5004                   21221497.8554
  -7120806.75047  -5545367.93745  22632912.8834                   22632916.5354
   8416457.33247   6561271.19145  22482496.6724                   22482499.4144
 11  9 21 21 27 30.0000000  0  7G02G05G12G04G10G09G17
 -21415819.97748 -16681440.93046  20729317.0084                   20729315.8404
    656497.15647    523667.46944  23570088.4694                   23570096.0394
  -7853875.89547  -6104839.68445  22356097.8364                   22356099.3634
  -4854029.73048  -3741935.41846  20530137.8284                   20530138.7194
 -13737075.57848 -10631611.80546  21206712.5234                   21206714.9574
  -7092377.66847  -5523215.51644  22638322.8674                   22638326.0204
   8432239.62947   6573569.03945  22485500.3834                   22485503.3634
 11  9 21 21 28  0.0000000  0  7G02G05G12G04G10G09G17
 -21473414.79348 -16726319.98446  20718357.4064                   20718355.9774
    520160.75447    417431.60544  23544144.3204                   23544152.9414
  -7968088.43747  -6193836.39145  22334363.6804                   22334365.2424
  -4826970.46148  -3720850.30146  20535286.8134                   20535287.8244
 -13814240.84048 -10691740.52746  21192028.4844                   21192030.7194
  -7063542.99647  -5500747.04344  22643810.1724                   22643813.7544
   8448129.55147   6585950.73845  22488524.5864                   22488527.7234
 11  9 21 21 28 30.0000000  0  7G02G05G12G04G10G09G17
 -21530658.17248 -16770925.19546  20707464.0864                   20707463.0824
    383875.43047    311235.55944  23518209.9924                   23518218.5084
  -8082054.77047  -6282641.24645  22312676.6254                   22312678.3054
  -4799591.07048  -3699515.74246  20540497.1254                   20540498.5044
 -13890882.77347 -10751461.44546  21177443.9694                   21177446.0944
  -7034304.61346  -5477963.99644  22649374.0704                   22649378.9144
   8464129.10947   6598417.83645  22491569.0944                   22491571.3484
 11  9 21 21 29  0.0000000  0  7G02G05G12G04G10G09G17
 -21587552.57048 -16815258.46946  20696637.0784                   20696636.1914
    247642.16047    205080.08244  23492285.7424                   23492293.4694
  -8195774.21547  -6371253.70745  22291036.0234                   22291037.6914
  -4771895.82848  -3677935.05946  20545767.4924                   20545768.5984
 -13967000.89148 -10810774.19946  21162958.8834                   21162961.2894
  -7004667.32847  -5454870.10944  22655014.4224                   22655017.9024
   8480237.44147   6610969.73045  22494634.2664                   22494636.8444
 11  9 21 21 29 30.0000000  0  7G02G05G12G04G10G09G17
 -21644100.14848 -16859321.48046  20685876.8984                   20685875.5594
    111461.78946     98965.81344  23466370.9454                   23466378.7034
  -8309246.01247  -6459673.21545  22269443.3444                   22269445.1134
  -4743889.03948  -3656111.62146  20551097.0474                   20551097.5904
 -14042594.80148 -10869678.50846  21148574.2034                   21148576.2734
  -6974636.14847  -5431469.30145  22660728.9384                   22660732.6294
   8496452.30547   6623604.59845  22497720.1804                   22497723.4844
 11  9 21 21 30  0.0000000  0  7G02G05G12G04G10G09G17
 -21700300.57048 -16903113.98846  20675182.0784                   20675181.5664
    -24661.73846     -7104.17644  23440467.0394                   23440474.8014
  -8422466.70747  -6547897.05145  22247898.1414                   22247899.8554
  -4715571.90648  -3634046.34846  20556485.4924                   20556486.3594
 -14117661.20348 -10928171.77046  21134289.6174                   21134291.6024
  -6944213.34047  -5407763.30545  22666518.8914                   22666521.7194
   8512775.82847   6636324.15245  22500826.6254                   22500829.4224
 11  9 21 21 30 30.0000000  0  7G02G05G12G04G10G09G17
 -21756153.93448 -16946636.05546  20664553.6954                   20664553.1174
   -160725.09446   -113127.27344  23414574.9144                   23414582.5394
  -8535433.32447  -6635922.93045  22226401.0554                   22226402.7664
  -4686946.42248  -3611740.81246  20561932.4224                   20561933.5944
 -14192197.70348 -10986252.07846  21120105.3284                   21120107.6214
  -6913401.55547  -5383754.22345  22672382.1254                   22672385.3874
   8529209.00447   6649129.14845  22503953.2034                   22503956.3834
 11  9 21 21 31  0.0000000  0  7G02G05G12G04G10G09G17
 -21811661.80948 -16989888.91846  20653990.9144                   20653989.9454
   -296726.70747   -219102.27344  23388694.8754                   23388702.6374
  -8648144.48048  -6723749.73445  22204953.0474                   22204954.4304
  -4658016.17248  -3589197.79746  20567437.7504                   20567439.0314
 -14266203.09848 -11043918.55546  21106022.7034                   21106024.7624
  -6882205.23447  -5359445.52745  22678318.2424                   22678323.2814
   8545750.86347   6662018.82845  22507101.7504                   22507103.9024
 11  9 21 21 31 30.0000000  0  7G02G05G12G04G10G09G17
 -21866823.52348 -17032872.03947  20643493.9534                   20643492.9774
   -432662.26647   -325025.80544  23362827.0234                   23362835.4414
  -8760596.24648  -6811374.42246  22183554.3674                   22183555.6374
  -4628782.18048  -3566418.11346  20573000.6024                   20573001.9654
 -14339673.59048 -11101168.24246  21092042.0394                   21092043.8594
  -6850626.22347  -5334838.61345  22684327.5784                   22684333.1054
   8562402.92247   6674994.37545  22510270.3834                   22510273.3134
 11  9 21 21 32  0.0000000  0  7G02G05G12G04G10G09G17
 -21921639.68748 -17075585.89546  20633062.6564                   20633061.5744
   -568528.58247   -430895.37144  23336971.9534                   23336980.3204
  -8872785.81648  -6898794.81245  22162205.1334                   22162206.3324
  -4599246.75048  -3543403.52746  20578621.4534                   20578621.9184
 -14412607.25048 -11157999.60946  21078162.8284                   21078164.4494
  -6818667.35947  -5309935.69145  22690408.9614                   22690414.3754
   8579166.19947   6688056.59845  22513461.3594                   22513463.2034
 11  9 21 21 32 30.0000000  0  7G02G05G12G04G10G09G17
 -21976111.27748 -17118031.25447  20622697.3444                   20622696.0984
   -704323.71147   -536709.48044  23311130.8594                   23311138.7424
  -8984711.19147  -6986009.32845  22140906.3364                   22140908.1914
  -4569412.71548  -3520156.25846  20584298.4694                   20584299.4264
 -14485002.67648 -11214411.57446  21064386.2664                   21064388.2854
  -6786332.58647  -5284739.88745  22696562.7274                   22696566.6174
   8596040.71947   6701205.50845  22516671.8054                   22516675.1334
 11  9 21 21 33  0.0000000  0  7G02G05G12G04G10G09G17
 -22030239.00448 -17160208.66846  20612396.9304                   20612395.8444
   -840044.58247   -642465.71944  23285303.6254                   23285311.0554
  -9096370.48047  -7073016.50045  22119658.1724                   22119659.3554
  -4539282.74648  -3496678.40646  20590032.1484                   20590033.3554
 -14556857.64848 -11270402.39846  21050712.8204                   21050714.5984
  -6753625.26247  -5259253.78145  22702786.9454                   22702791.0354
   8613026.78547   6714441.32845  22519904.0164                   22519907.1134
 11  9 21 21 33 30.0000000  0  7G02G05G12G04G10G09G17
 -22084023.16448 -17202118.35946  20602161.9224                   20602160.7034
   -975688.25447   -748161.80544  23259491.1724                   23259498.2194
  -9207760.68747  -7159814.00446  22098461.5474                   22098463.1804
  -4508858.87148  -3472971.53546  20595821.7274                   20595823.1994
 -14628170.14848 -11325970.52346  21037142.3204                   21037143.5944
  -6720548.62147  -5233479.89145  22709080.7664                   22709086.4694
   8630124.87547   6727764.45345  22523158.1094                   22523160.4774
 11  9 21 21 34  0.0000000  0  7G02G05G12G04G10G09G17
 -22137465.00848 -17243761.32046  20591992.1954                   20591991.2194
  -1111252.76647   -853796.23044  23233694.0474                   23233700.8014
  -9318879.50448  -7246400.02746  22077316.1724                   22077317.6564
  -4478144.00848  -3449037.92246  20601666.8834                   20601668.2424
 -14698938.34448 -11381114.50046  21023675.2894                   21023677.3444
  -6687106.12947  -5207420.92645  22715444.9064                   22715449.8324
   8647335.12947   6741174.96545  22526432.8524                   22526435.3834
 11  9 21 21 34 30.0000000  0  7G02G05G12G04G10G09G17
 -22190562.33648 -17285135.83246  20581888.1254                   20581886.9964
  -1246731.95747   -959364.15244  23207913.3674                   23207919.2974
  -9429721.73447  -7332770.53545  22056223.0634                   22056224.7464
  -4447137.74648  -3424877.21946  20607567.3204                   20607568.5314
 -14769157.34448 -11435830.54346  21010313.5634                   21010315.3674
  -6653298.38347  -5181077.33645  22721878.3054                   22721883.0784
   8664660.68447   6754675.34845  22529729.2034                   22529732.2624
 11  9 21 21 35  0.0000000  0  8G02G05G12G04G10G09G17G28
 -22243321.19148 -17326246.59046  20571848.3054                   20571847.5394
  -1382128.44147  -1064867.61744  23182147.7114                   23182154.1484
  -9540290.32847  -7418927.82845  22035183.0394                   22035184.3954
  -4415847.83248  -3400495.50046  20613521.2424                   20613522.8014
 -14838830.70348 -11490121.43446  20997054.9384                   20997056.8554
  -6619134.11747  -5154455.96144  22728379.7974                   22728384.5904
   8682096.88347   6768261.91045  22533047.3754                   22533050.5394
   7947702.69115                  24077846.945
 11  9 21 21 35 30.0000000  0  8G02G05G12G04G10G09G17G28
 -20720319.09448 -16139491.66447  20861666.3914                   20861664.8594
     57987.02747     57300.57045  23456192.7734                   23456199.0044
  -8075157.45747  -6277265.78545  22313988.7344                   22313989.1254
  -2808856.27048  -2148294.31646  20919321.5234                   20919323.7934
 -13332532.67248 -10316382.65646  21283694.1094                   21283695.4184
  -5009196.27047  -3899959.06644  23034740.9534                   23034745.2974
  10275065.02747   8009535.72345  22836179.7584                   22836182.6174
   9594451.980 5                  24391211.875
 11  9 21 21 36  0.0000000  0  8G02G05G12G04G10G09G17G28
 -20772400.77748 -16180074.77347  20851755.4924                   20851754.0124
    -77233.18447    -48065.55945  23430461.2114                   23430467.2384
  -8185168.68447  -6362988.77045  22293053.8984                   22293055.0124
  -2777004.19148  -2123474.54746  20925382.9614                   20925384.8524
 -13401106.77348 -10369816.96146  21270644.3204                   21270646.2234
  -4974326.75447  -3872788.15644  23041376.2664                   23041380.6134
  10292725.79747   8023297.31645  22839539.1024                   22839542.9494
   9665966.449 5                  24404821.852
 11  9 21 21 36 30.0000000  0  8G02G05G12G04G10G09G17G28
 -20824143.98048 -16220394.10946  20841908.8134                   20841907.3874
   -212359.85247   -153358.79345  23404747.2734                   23404752.6684
  -8294896.49247  -6448490.90245  22272173.2734                   22272174.5164
  -2744873.49648  -2098437.68046  20931497.1884                   20931499.1764
 -13469127.36348 -10422819.95746  21257700.4064                   21257702.0904
  -4939108.34447  -3845345.37944  23048077.8284                   23048083.1334
  10310500.87947   8037147.94545  22842922.9304                   22842925.3794
   9737663.188 5                  24418465.492
 11  9 21 21 37  0.0000000  0  8G02G05G12G04G10G09G17G28
 -20875550.87548 -16260451.40246  20832126.5394                   20832125.4884
   -347391.90647   -258578.31645  23379051.3444                   23379056.9774
  -8404340.16447  -6533771.61745  22251346.9384                   22251348.3834
  -2712468.49248  -2073187.07446  20937663.4694                   20937665.1334
 -13536594.31648 -10475391.57846  21244862.3914                   21244864.4024
  -4903546.52047  -3817635.00844  23054845.7894                   23054850.4654
  10328388.78947   8051086.52045  22846326.5554                   22846329.9144
   9809538.258 5                  24432143.297
 11  9 21 21 37 30.0000000  0  7G02G05G12G04G10G09G17
 -20926618.52748 -16300244.33246  20822408.5704                   20822407.1334
   -482322.49247   -363718.75445  23353374.9304                   23353380.5394
  -8513493.16447  -6618825.84445  22230575.7194                   22230576.6684
  -2679787.36348  -2047721.30946  20943882.4224                   20943884.0554
 -13603501.75448 -10527527.21146  21232130.6254                   21232132.4264
  -4867640.27047  -3789656.26244  23061677.9694                   23061682.8444
  10346393.90647   8065116.41845  22849752.9534                   22849756.3014
 11  9 21 21 38  0.0000000  0  7G02G05G12G04G10G09G17
 -20977348.40248 -16339774.07447  20812755.1644                   20812753.5784
   -617150.02747   -468778.88345  23327717.1254                   23327724.0124
  -8622354.01647  -6703652.43746  22209860.0004                   22209860.8874
  -2646834.13348  -2022043.50046  20950153.4534                   20950154.4064
 -13669849.23448 -10579226.48446  21219504.5704                   21219506.6804
  -4831394.42247  -3761412.89544  23068575.9304                   23068579.8554
  10364515.34847   8079236.95745  22853201.6414                   22853204.6454
 11  9 21 21 38 30.0000000  0  7G02G05G12G04G10G09G17
 -21027727.23848 -16379030.26647  20803168.1804                   20803166.6684
   -751857.34447   -573745.35545  23302083.3284                   23302089.2034
  -8730906.32047  -6788238.57046  22189203.2034                   22189204.6724
  -2613596.53948  -1996144.10246  20956478.3914                   20956479.3594
 -13735620.40248 -10630476.69946  21206988.7274                   21206990.2464
  -4794798.12547  -3732896.43744  23075540.0004                   23075544.2344
  10382768.09447   8093459.79345  22856674.1724                   22856677.7854
 11  9 21 21 39  0.0000000  0  7G02G05G12G04G10G09G17
 -21077751.97748 -16418010.55147  20793648.6414                   20793647.4694
   -886437.43447   -678612.69945  23276473.1254                   23276479.2734
  -8839143.20747  -6872578.94146  22168606.2584                   22168607.5594
  -2580073.03548  -1970021.94146  20962857.9694                   20962858.7734
 -13800809.44948 -10681273.32446  21194583.5554                   21194585.4224
  -4757850.48847  -3704106.24244  23082571.0474                   23082575.9694
  10401156.64147   8107788.45345  22860174.3364                   22860176.5904
 11  9 21 21 39 30.0000000  0  7G02G05G12G04G10G09G17
 -21127423.22348 -16456715.39146  20784196.6644                   20784195.2774
  -1020887.69547   -783378.87545  23250888.2034                   23250893.6914
  -8947062.19547  -6956671.59446  22148070.1254                   22148072.0554
  -2546266.10248  -1943678.93046  20969291.0084                   20969292.2734
 -13865414.81648 -10731615.11746  21182289.4614                   21182291.6724
  -4720554.95347  -3675044.93444  23089668.2814                   23089673.2154
  10419681.43447   8122223.31345  22863698.9924                   22863703.3914
 11  9 21 21 40  0.0000000  0  7G02G05G12G04G10G09G17
 -21176748.09048 -16495150.31247  20774810.2504                   20774809.0164
  -1155211.76247   -888046.72745  23225326.7894                   23225332.6644
  -9054667.30547  -7040519.67646  22127593.5864                   22127594.5704
  -2512184.60548  -1917121.96146  20975776.5164                   20975777.6054
 -13929441.40648 -10781505.93046  21170105.7584                   21170108.0314
  -4682921.39847  -3645720.25044  23096829.8834                   23096835.3324
  10438336.32047   8136759.50045  22867249.4454                   22867253.0904
 11  9 21 21 40 30.0000000  0  7G02G05G12G04G10G09G17
 -21225731.66048 -16533319.29747  20765488.8914                   20765487.8444
  -1289410.37947   -992616.80544  23199789.0634                   23199795.3284
  -9161960.16447  -7124124.44146  22107176.5864                   22107177.6054
  -2477834.83248  -1890355.95346  20982313.2974                   20982314.4264
 -13992891.25848 -10830947.31246  21158031.7194                   21158033.1644
  -4644957.23847  -3616137.91444  23104054.3284                   23104059.0904
  10457117.87547   8151394.40245  22870823.2814                   22870826.4024
 11  9 21 21 41  0.0000000  0  7G02G05G12G04G10G09G17
 -21274374.10248 -16571222.46147  20756232.6254                   20756231.6564
  -1423480.73047  -1097086.95745  23174276.2664                   23174282.7074
  -9268938.10547  -7207483.81646  22086818.9614                   22086820.6254
  -2443219.10948  -1863382.68746  20988900.1724                   20988901.1294
 -14055762.68747 -10879938.00446  21146067.4144                   21146068.9224
  -4606665.76247  -3586300.54344  23111341.3364                   23111345.7704
  10476026.78547   8166128.55145  22874421.1804                   22874424.2384
 11  9 21 21 41 30.0000000  0  7G02G05G12G04G10G09G17
 -21322679.70748 -16608863.16047  20747040.4534                   20747039.4144
  -1557423.02747  -1201457.34445  23148788.2504                   23148793.8524
  -9375601.58247  -7290598.16846  22066522.0234                   22066523.3674
  -2408342.93748  -1836206.47746  20995537.4144                   20995538.2074
 -14118057.20748 -10928479.15646  21134213.2664                   21134214.8554
  -4568053.38347  -3556213.10244  23118689.3284                   23118693.6454
  10495060.33647   8180959.82445  22878043.4844                   22878047.0944
 11  9 21 21 42  0.0000000  0  7G02G05G12G04G10G09G17
 -21370648.84048 -16646241.69146  20737912.1644                   20737910.7664
  -1691234.39547  -1305725.69545  23123324.5944                   23123330.1914
  -9481948.40647  -7373465.77046  22046284.3754                   22046285.9304
  -2373208.66448  -1808829.15646  21002222.9534                   21002224.6134
 -14179773.16047 -10976569.44946  21122469.1644                   21122471.2934
  -4529123.59047  -3525878.35944  23126097.5314                   23126101.7974
  10514219.14847   8195888.68045  22881689.8754                   22881693.2624
 11  9 21 21 42 30.0000000  0  7G02G05G12G04G10G09G17
 -21418282.14848 -16683358.53147  20728847.9534                   20728846.3754
  -1824911.43747  -1409889.40645  23097886.3364                   23097891.9534
  -9587975.32047  -7456084.07046  22026108.3834                   22026109.3444
  -2337818.17248  -1781252.18746  21008957.6724                   21008959.4884
 -14240908.23048 -11024207.13346  21110835.5474                   21110837.3094
  -4489879.28147  -3495298.50444  23133565.0314                   23133569.8134
  10533503.99647   8210915.76645  22885359.1954                   22885362.5634
 11  9 21 21 43  0.0000000  0  7G02G05G12G04G10G09G17
 -21465581.58248 -16720215.22346  20719846.8914                   20719845.7854
  -1958452.48447  -1513947.10545  23072473.8834                   23072479.7304
  -9693681.12147  -7538452.18446  22005992.8364                   22005994.1884
  -2302175.03548  -1753478.35946  21015740.5704                   21015741.4104
 -14301462.30148 -11071392.06246  21099312.2734                   21099314.0314
  -4450324.96947  -3464477.11344  23141092.5394                   23141096.9964
  10552914.17247   8226040.49245  22889053.3134                   22889055.8984
 11  9 21 21 43 30.0000000  0  7G02G05G12G04G10G09G17
 -21512547.29748 -16756811.87147  20710909.7504                   20710908.1804
  -2091853.83647  -1617895.98445  23047088.1884                   23047094.0704
  -9799062.36347  -7620567.37946  21985939.3834                   21985940.7194
  -2266280.88348  -1725508.93446  21022571.1644                   21022572.3444
 -14361432.84448 -11118122.30546  21087900.1644                   21087902.0274
  -4410463.44947  -3433416.30944  23148677.5864                   23148682.3444
  10572450.63347   8241263.62145  22892770.8754                   22892774.2854
 11  9 21 21 44  0.0000000  0  7G02G05G12G04G10G09G17
 -21559179.37148 -16793148.53147  20702036.0784                   20702034.5554
  -2225111.94147  -1721733.25445  23021730.5314                   23021735.3714
  -9904115.74647  -7702427.10246  21965948.5704                   21965949.4494
  -2230137.64548  -1697345.41046  21029448.3134                   21029450.1414
 -14420817.79747 -11164396.24246  21076599.0004                   21076601.3674
  -4370297.63747  -3402118.39144  23156321.2974                   23156325.3014
  10592114.78947   8256586.26245  22896513.2894                   22896516.0784
 11  9 21 21 44 30.0000000  0  7G02G05G12G04G10G09G17
 -21605481.85548 -16829228.37946  20693224.6724                   20693223.6844
  -2358226.86747  -1825458.96545  22996398.5394                   22996404.4414
 -10008842.60247  -7784032.39546  21946019.4064                   21946020.5864
  -2193750.50048  -1668991.84446  21036373.2424                   21036374.0824
 -14479618.90648 -11210215.23846  21065409.7734                   21065411.3524
  -4329834.06647  -3370588.49644  23164021.2344                   23164026.1414
  10611904.08647   8272006.40245  22900279.0474                   22900282.1414
 11  9 21 21 45  0.0000000  0  7G02G05G12G04G10G09G17
 -21651452.69948 -16865049.80147  20684476.9064                   20684475.3594
  -2491193.32847  -1929068.96145  22971096.1174                   22971101.7704
 -10113237.37947  -7865378.93446  21926153.6804                   21926154.8444
  -2157119.24248  -1640448.03546  21043343.7114                   21043344.7894
 -14537831.93748 -11255576.00846  21054332.9614                   21054334.3634
  -4289073.48847  -3338827.12544  23171777.7424                   23171782.5634
  10631821.60247   8287526.46545  22904069.4534                   22904071.7854
 11  9 21 21 45 30.0000000  0  7G02G05G12G04G10G09G17
 -21697090.75848 -16900611.90647  20675792.0554                   20675790.7544
  -2624006.39147  -2032559.44145  22945821.8674                   22945827.7934
 -10217295.45347  -7946463.08646  21906351.8204                   21906353.3834
  -2120243.96148  -1611714.09846  21050360.8444                   21050362.3834
 -14595453.38348 -11300475.79746  21043367.4144                   21043368.6884
  -4248017.28147  -3306835.39144  23179590.5004                   23179594.9384
  10651869.97747   8303148.47345  22907884.4304                   22907886.9184
 11  9 21 21 46  0.0000000  0  7G02G05G12G04G10G09G17
 -21742400.34848 -16935918.07847  20667170.2344                   20667168.7664
  -2756666.35947  -2135930.64845  22920578.3834                   22920583.0984
 -10321017.66847  -8027285.55946  21886614.6174                   21886615.1334
  -2083130.57448  -1582794.60946  21057423.1884                   21057424.2664
 -14652485.09848 -11344916.03946  21032514.4224                   21032516.8674
  -4206672.23447  -3274618.60544  23187457.9844                   23187462.0824
  10672046.09047   8318870.03145  22911723.7894                   22911725.9924
 11  9 21 21 46 30.0000000  0  7G02G05G12G04G10G09G17
 -21787382.87148 -16970969.37947  20658609.9694                   20658608.7234
  -2889170.79747  -2239180.65245  22895363.3834                   22895367.9264
 -10424402.44547  -8107845.07846  21866941.1334                   21866942.2854
  -2045781.98448  -1553691.86746  21064530.3054                   21064531.7774
 -14708926.43048 -11388896.26646  21021773.7734                   21021775.8984
  -4165042.38347  -3242179.89144  23195380.3204                   23195384.0944
  10692349.81647   8334691.05545  22915587.1414                   22915589.6094
 11  9 21 21 47  0.0000000  0  8G02G05G12G04G10G09G25G17
 -21832041.91848 -17005768.63347  20650111.9384                   20650110.5234
  -3021519.91447  -2342309.63345  22870177.4614                   22870182.4884
 -10527449.74248  -8188141.62946  21847331.7194                   21847333.0704
  -2008203.28148  -1524409.81246  21071681.4774                   21071682.2584
 -14764778.59848 -11432417.42646  21011145.6414                   21011147.3484
  -4123133.80947  -3209524.01644  23203355.3754                   23203359.8554
   9256304.54756   7224808.50853  24646896.1564                   24646902.4344
  10712778.89147   8350609.71145  22919475.0554                   22919477.6724
 11  9 21 21 47 30.0000000  0  8G02G05G12G04G10G09G25G17
 -21876389.35248 -17040325.05947  20641673.0554                   20641671.5904
  -3153721.16847  -2445323.39145  22845020.5084                   22845025.4064
 -10630167.66847  -8268181.52046  21827785.3204                   21827785.9184
  -1970407.43448  -1494958.55546  21078874.0704                   21078875.1094
 -14820051.27748 -11475487.00846  21000627.5084                   21000629.4884
  -4080960.74647  -3176662.00044  23211380.7974                   23211385.4774
   9122385.46546   7120456.12543  24621412.0864                   24621418.8484
  10733323.31647   8366618.28945  22923384.3754                   22923387.7504
 11  9 21 21 48  0.0000000  0  8G02G05G12G04G10G09G25G17
 -21920427.69548 -17074640.63347  20633292.5314                   20633291.0704
  -3285773.78147  -2548221.32045  22819891.5474                   22819896.0904
 -10732556.35547  -8347964.85946  21808301.2274                   21808301.8874
  -1932398.87548  -1465341.53546  21086106.8364                   21086107.8094
 -14874745.05948 -11518105.50846  20990219.9614                   20990221.7814
  -4038528.63347  -3143598.14844  23219454.6564                   23219460.5204
   8988546.30546   7016165.97743  24595942.9454                   24595949.9774
  10753981.19947   8382715.24645  22927315.8914                   22927318.4384
 11  9 21 21 48 30.0000000  0  8G02G05G12G04G10G09G25G17
 -21964159.17648 -17108717.09446  20624970.7734                   20624969.0634
  -3417675.94947  -2651002.02745  22794790.7584                   22794795.6724
 -10834613.83248  -8427490.09446  21788880.4304                   21788880.6254
  -1894181.14848  -1435561.52046  21093379.4774                   21093380.5704
 -14928859.79348 -11560272.80546  20979922.2114                   20979924.3634
  -3995842.23047  -3110336.14544  23227578.0784                   23227583.4884
   8854788.14546   6911938.99643  24570489.4304                   24570496.6644
  10774752.14147   8398900.32845  22931268.2584                   22931271.3954
 11  9 21 21 49  0.0000000  0  8G02G05G12G04G10G09G25G17
 -22007577.67248 -17142549.68447  20616708.3834                   20616707.0394
  -3549417.78947  -2753657.80145  22769721.3984                   22769725.5824
 -10936330.86347  -8506750.08246  21769524.1254                   21769524.7074
  -1855749.43748  -1405614.76646  21100692.9454                   21100694.2734
 -14982386.96948 -11601982.27346  20969736.2664                   20969738.4494
  -3952897.97747  -3076873.24244  23235750.3444                   23235755.5044
   8721120.44946   6807782.48043  24545052.9924                   24545061.1644
  10795643.43047   8415179.18045  22935243.9144                   22935246.3634
 11  9 21 21 49 30.0000000  0  8G02G05G12G04G10G09G25G17
 -22050681.68448 -17176137.22347  20608505.7814                   20608504.8954
  -3680994.09047  -2856184.59445  22744682.7584                   22744687.9184
 -11037702.51247  -8585740.91046  21750233.7814                   21750234.3984
  -1817103.51248  -1375501.10246  21108046.4064                   21108048.2114
 -15035323.01248 -11643231.09846  20959663.0784                   20959664.5234
  -3909696.95347  -3043210.24644  23243971.6024                   23243976.9384
   8587548.14846   6703700.27743  24519635.5864                   24519643.2854
  10816658.14147   8431554.17645  22939243.4774                   22939245.1914
 11  9 21 21 50  0.0000000  0  8G02G05G12G04G10G09G25G17
 -22093469.38348 -17209478.27047  20600363.9614                   20600362.4884
  -3812399.14147  -2958577.95345  22719677.3364                   22719681.6954
 -11138723.94547  -8664458.83646  21731009.6334                   21731010.9964
  -1778243.21947  -1345220.39846  21115441.3524                   21115443.0004
 -15087664.18047 -11684016.38346  20949702.3754                   20949704.5124
  -3866239.89547  -3009347.73444  23252240.6644                   23252247.9654
   8454076.12946   6599696.21543  24494236.9844                   24494243.8204
  10837799.16847   8448027.64145  22943266.5234                   22943268.5784
 11  9 21 21 50 30.0000000  0  8G02G05G12G04G10G09G25G17
 -22135938.56248 -17242571.12147  20592282.2274                   20592280.7194
  -3943626.95347  -3060833.19145  22694705.2344                   22694710.3524
 -11239389.28948  -8742899.31646  21711853.8524                   21711854.7464
  -1739167.78148  -1314772.06646  21122877.9774                   21122878.8874
 -15139406.18048 -11724334.79746  20939856.2974                   20939857.9344
  -3822527.15247  -2975286.01644  23260559.6414                   23260565.7704
   8320710.02046   6495774.66043  24468857.6954                   24468864.5744
  10859070.42647   8464602.57844  22947313.4694                   22947316.3984
 11  9 21 21 51  0.0000000  0  8G02G05G12G04G10G09G25G17
 -22178090.51248 -17275416.78147  20584260.7504                   20584259.6524
  -4074674.82847  -3162948.21545  22669767.2734                   22669772.6604
 -11339696.61747  -8821060.81246  21692765.7584                   21692766.8204
  -1699879.76248  -1284158.06246  21130353.8674                   21130355.2234
 -15190548.16048 -11764185.66846  20930124.7274                   20930126.2384
  -3778562.28947  -2941027.81644  23268926.2274                   23268931.4184
   8187451.90247   6391937.24644  24443499.0394                   24443507.0354
  10880472.34447   8481279.30544  22951386.1484                   22951389.4344
 11  9 21 21 51 30.0000000  0  8G02G05G12G04G10G09G25G17
 -22219925.24248 -17308015.26647  20576299.9224                   20576298.6174
  -4205538.98847  -3264920.07845  22644864.5004                   22644869.1174
 -11439642.71947  -8898940.82446  21673746.3134                   21673747.5634
  -1660380.36748  -1253379.35946  21137870.4224                   21137872.3834
 -15241088.06648 -11803567.37146  20920506.6954                   20920508.3014
  -3734348.07047  -2906575.28544  23277339.6414                   23277345.4844
   8054305.09446   6288186.58644  24418162.6484                   24418169.8954
  10902005.44947   8498058.27045  22955484.5784                   22955487.5824
 11  9 21 21 52  0.0000000  0  8G02G05G12G04G10G09G25G17
 -22261442.70748 -17340366.52747  20568399.7194                   20568398.1254
  -4336215.53947  -3366745.75045  22619996.8754                   22620002.3674
 -11539223.45747  -8976536.14846  21654797.1724                   21654798.1024
  -1620670.61748  -1222436.75046  21145427.2814                   21145428.5314
 -15291023.59048 -11842478.11346  20911004.1564                   20911006.2544
  -3689886.75047  -2871930.25044  23285800.8674                   23285807.3164
   7921273.28946   6184525.54344  24392847.2894                   24392854.5704
  10923671.66447   8514940.93045  22959606.9534                   22959609.6644
 11  9 21 21 52 30.0000000  0  8G02G05G12G04G10G09G25G17
 -22302645.05548 -17372472.23847  20560558.7814                   20560557.8954
  -4466702.42247  -3468423.64545  22595166.5554                   22595171.0594
 -11638437.74647  -9053845.92246  21635917.1174                   21635918.4264
  -1580754.34448  -1191333.19946  21153022.5314                   21153024.1604
 -15340354.91848 -11880918.07846  20901617.1484                   20901619.0314
  -3645183.05947  -2837096.34844  23294307.6254                   23294314.7704
   7788357.47746   6080954.88344  24367553.8524                   24367561.2304
  10945470.37947   8531926.82445  22963754.9924                   22963759.1954
 11  9 21 21 53  0.0000000  0  8G02G05G12G04G10G09G25G17
 -22343531.02348 -17404331.43047  20552778.5314                   20552777.3014
  -4596994.87547  -3569950.03145  22570371.9924                   22570376.8324
 -11737281.24247  -9130866.77046  21617107.8754                   21617109.0784
  -1540631.43047  -1160068.65646  21160658.0234                   21160659.8874
 -15389079.02747 -11918884.89146  20892344.9384                   20892346.8674
  -3600238.43447  -2802074.71544  23302860.3834                   23302865.8754
   7655562.41846   5977478.30943  24342284.2894                   24342291.6414
  10967404.18447   8549018.00045  22967929.4534                   22967932.3834
 11  9 21 21 53 30.0000000  0  8G02G05G12G04G10G09G25G17
 -22384102.50048 -17435945.55947  20545057.8914                   20545057.1174
  -4727090.88747  -3671323.35545  22545615.9454                   22545620.7034
 -11835752.59848  -9207597.63346  21598369.2034                   21598370.2934
  -1500305.29348  -1128645.75046  21168331.9924                   21168333.4694
 -15437195.69548 -11956378.37946  20883188.8364                   20883190.5274
  -3555057.41847  -2766868.89144  23311458.0554                   23311463.7704
   7522889.47746   5874096.91843  24317036.7974                   24317045.3204
  10989472.41447   8566213.93845  22972128.8594                   22972132.8164
 11  9 21 21 54  0.0000000  0  8G02G05G12G04G10G09G25G17
 -22424356.85948 -17467312.57447  20537397.6334                   20537396.7544
  -4856983.97747  -3772538.56645  22520898.5394                   22520902.1374
 -11933845.34048  -9284033.49646  21579702.8984                   21579703.9454
  -1459774.47748  -1097063.34446  21176044.7814                   21176045.9184
 -15484700.50848 -11993395.08646  20874148.7344                   20874150.1524
  -3509639.94147  -2731478.76644  23320100.7814                   23320106.0594
   7390344.83246   5770815.49643  24291814.0554                   24291822.8834
  11011679.41447   8583518.02744  22976354.4304                   22976358.2154
 11  9 21 21 54 30.0000000  0  8G02G05G12G04G10G09G25G17
 -22464298.49648 -17498435.93447  20529797.5314                   20529795.9414
  -4986674.69147  -3873596.09445  22496218.3754                   22496221.9774
 -12031560.93048  -9360175.46946  21561108.2194                   21561109.4344
  -1419044.69148  -1065325.89846  21183795.2894                   21183797.0234
 -15531595.73848 -12029936.78946  20865224.7894                   20865226.8554
  -3463992.59047  -2695909.54344  23328786.9924                   23328793.4654
   7257927.59046   5667633.35943  24266616.2974                   24266624.6094
  11034021.99846   8600927.75844  22980605.0634                   22980610.0434
 11  9 21 21 55  0.0000000  0  8G02G05G12G04G10G09G25G17
 -22503927.56248 -17529315.70747  20522256.4144                   20522254.4304
  -5116159.46147  -3974493.12545  22471578.3524                   22471581.7934
 -12128896.09048  -9436021.00046  21542586.1174                   21542587.1994
  -1378117.41048  -1033434.57446  21191583.2664                   21191585.4344
 -15577879.74248 -12066002.22746  20856417.6174                   20856419.3014
  -3418118.41047  -2660163.60544  23337517.5164                   23337522.6724
   7125640.72746   5564552.84443  24241442.8284                   24241451.7544
  11056501.45746   8618444.08644  22984883.7194                   22984888.4454
 11  9 21 21 55 30.0000000  0  8G02G05G12G04G10G09G25G17
 -22543245.26248 -17559952.87147  20514774.2664                   20514772.7504
  -5245435.25847  -4075227.34845  22446977.9774                   22446981.8284
 -12225848.43748  -9511568.25446  21524136.8524                   21524137.7584
  -1336994.96548  -1001391.16446  21199408.7664                   21199410.9694
 -15623551.82848 -12101590.84446  20847726.2344                   20847728.5274
  -3372020.87547  -2624243.59444  23346289.6174                   23346294.6954
   6993486.74246   5461575.91843  24216294.0394                   24216303.5864
  11079118.11746   8636067.35545  22989187.3204                   22989192.1844
 11  9 21 21 56  0.0000000  0  8G02G05G12G04G10G09G25G17
 -22582248.86748 -17590345.28147  20507352.3204                   20507350.7704
  -5374495.28547  -4175793.43745  22422418.4844                   22422422.2194
 -12322411.84448  -9586812.43446  21505761.2424                   21505762.3634
  -1295675.83248   -969194.48846  21207271.6024                   21207273.6254
 -15668607.57848 -12136699.18746  20839152.7114                   20839154.2664
  -3325699.55947  -2588149.23044  23355104.0004                   23355109.7074
   6861471.85546   5358707.38743  24191172.7814                   24191181.9614
  11101876.25046   8653800.86745  22993518.7814                   22993523.2384
 11  9 21 21 56 30.0000000  0  8G02G05G12G04G10G09G25G17
 -22620941.55548 -17620495.41447  20499989.4454                   20499987.8244
  -5503339.32847  -4276191.25845  22397900.4534                   22397904.0944
 -12418586.10248  -9661753.38746  21487460.0084                   21487460.7234
  -1254164.30148   -936847.87546  21215170.8524                   21215173.0044
 -15713048.11348 -12171328.15246  20830695.5784                   20830697.5044
  -3279160.31246  -2551885.05144  23363960.1804                   23363966.6174
   6729596.37147   5255947.39144  24166078.1094                   24166086.6054
  11124774.21146   8671643.33645  22997876.2424                   22997879.5704
 11  9 21 21 57  0.0000000  0  8G02G05G12G04G10G09G25G17
 -22659325.53948 -17650404.99247  20492684.4384                   20492683.5554
  -5631965.31247  -4376419.13345  22373423.7894                   22373427.4494
 -12514370.09848  -9736390.24246  21469232.4384                   21469233.2584
  -1212464.13748   -904354.27746  21223105.9774                   21223108.2304
 -15756873.74248 -12205477.96946  20822355.8754                   20822357.3444
  -3232407.82846  -2515454.70744  23372856.8444                   23372864.1914
   6597861.62547   5153297.09044  24141009.2734                   24141018.0164
  11147811.28146   8689594.17245  23002260.2424                   23002264.1334
 11  9 21 21 57 30.0000000  0  8G02G05G12G04G10G09G25G17
 -22697398.92648 -17680072.55947  20485439.9694                   20485438.7034
  -5760367.32047  -4476472.48045  22348989.6024                   22348993.2304
 -12609758.42248  -9810718.77746  21451080.8204                   21451081.0864
  -1170574.34848   -871712.94146  21231077.7114                   21231080.0124
 -15800080.59448 -12239145.62546  20814133.9844                   20814135.2384
  -3185442.64547  -2478858.64844  23381794.3834                   23381801.2774
   6466273.01246   5050760.66044  24115969.1644                   24115976.4614
  11170990.47746   8707655.79345  23006671.3364                   23006675.8594
 11  9 21 21 58  0.0000000  0  8G02G05G12G04G10G09G25G17
 -22735161.44948 -17709497.86746  20478253.7034                   20478252.2974
  -5888541.49647  -4576348.28945  22324598.2734                   22324602.3984
 -12704747.66848  -9884736.33646  21433005.0704                   21433006.1094
  -1128495.87148   -838924.55546  21239085.0234                   21239086.8914
 -15842666.96948 -12272329.79346  20806030.2424                   20806031.9574
  -3138267.00846  -2442098.62544  23390771.9844                   23390779.2934
   6334834.22347   4948340.95344  24090956.5314                   24090964.6214
  11194313.62146   8725829.57845  23011109.2504                   23011112.6334
 11  9 21 21 58 30.0000000  0  8G02G05G12G04G10G09G25G17
 -22772616.08648 -17738683.27746  20471126.0864                   20471124.3834
  -6016486.89547  -4676045.84445  22300250.5004                   22300255.5514
 -12799337.30948  -9958442.52746  21415005.2114                   21415005.8484
  -1086233.25048   -805992.70746  21247127.2974                   21247129.3364
 -15884634.19948 -12305031.50846  20798044.0944                   20798045.5004
  -3090886.59047  -2405178.99244  23399788.0004                   23399795.2504
   6203545.66047   4846038.28544  24065973.5314                   24065980.1764
  11217779.13346   8744114.31645  23015574.6094                   23015578.2194
 11  9 21 21 59  0.0000000  0  8G02G05G12G04G10G09G25G17
 -22809765.14548 -17767630.57047  20464057.3984                   20464055.3524
  -6144202.04347  -4775563.98445  22275947.5474                   22275951.7504
 -12893526.44948 -10031836.64146  21397081.5004                   21397082.3054
  -1043789.78548   -772919.93446  21255204.2344                   21255205.8244
 -15925982.72748 -12337251.10246  20790175.7584                   20790176.3834
  -3043306.12146  -2368103.50044  23408842.9694                   23408849.7194
   6072408.61347   4743853.69144  24041019.0554                   24041025.2234
  11241386.16446   8762509.30945  23020066.9614                   23020071.5864
 11  9 21 21 59 30.0000000  0  8G02G05G12G04G10G09G25G17
 -22846607.76248 -17796339.07447  20457046.2034                   20457045.3404
  -6271681.52047  -4874898.48045  22251688.9454                   22251693.2114
 -12987310.41048 -10104915.01646  21379234.6954                   21379235.1454
  -1001165.47348   -739706.22746  21263315.2114                   21263316.7624
 -15966709.72348 -12368986.40246  20782425.2664                   20782427.1094
  -2995527.09847  -2330873.25444  23417934.9304                   23417941.8524
   5941427.80947   4641790.84044  24016093.6644                   24016099.8794
  11265137.46546   8781016.73444  23024586.6644                   23024591.0084
 11  9 21 22  0  0.0000000  0  8G02G05G12G04G10G09G25G17
 -22883146.55548 -17824810.83647  20450092.9304                   20450091.6684
  -6398924.46147  -4974048.67246  22227475.3054                   22227479.4384
 -13080688.47348 -10177677.11346  21361465.7424                   21361466.0554
   -958364.25048   -706354.67646  21271460.0634                   21271462.0314
 -16006816.57048 -12400238.46546  20774793.3674                   20774794.7664
  -2947554.57447  -2293492.23444  23427063.5164                   23427070.3164
   5810603.99647   4539850.35544  23991198.5474                   23991204.7624
  11289031.84046   8799635.59845  23029133.5554                   23029137.7664
 11  9 21 22  0 30.0000000  0  8G02G05G12G04G10G09G25G17
 -22919381.35948 -17853045.71547  20443197.8444                   20443196.2424
  -6525926.70747  -5073011.30146  22203307.5004                   22203311.7584
 -13173657.21548 -10250120.25046  21343774.0864                   21343774.6954
   -915387.15248   -672866.08246  21279638.9774                   21279640.1334
 -16046301.18448 -12431005.69146  20767279.6804                   20767281.6374
  -2899390.68046  -2255962.13344  23436229.2114                   23436235.4104
   5679940.80147   4438034.99244  23966334.3364                   23966339.6174
  11313070.98446   8818367.29345  23033708.6024                   23033712.5554
 11  9 21 22  1  0.0000000  0  8G02G05G12G04G10G09G25G17
 -21379893.05948 -16653444.41846  20736152.6724                   20736151.9844
  -5077262.21547  -3944181.66845  22478979.1724                   22478983.0704
 -11690792.71548  -9094641.37946  21625953.6254                   21625954.5864
    703181.45348    588356.16846  21587641.9144                   21587643.6294
 -14509742.84848 -11233687.46946  21059676.8054                   21059678.4414
  -1275621.62547   -990687.74644  23745222.1254                   23745227.2544
   7124864.17646   5563949.46144  24241293.4534                   24241299.6254
  12912672.74646  10064810.14844  23338102.2814                   23338106.5164
 11  9 21 22  1 30.0000000  0  8G02G05G12G04G10G09G25G17
 -21415521.57448 -16681206.87947  20729372.4844                   20729371.1994
  -5203772.81247  -4042761.19945  22454904.8524                   22454908.7974
 -11782934.78548  -9166440.37146  21608420.0474                   21608420.1564
    746505.65248    622115.22745  21595886.0004                   21595888.5474
 -14547979.73448 -11263482.40646  21052400.6954                   21052401.9184
  -1227083.76247   -952866.25044  23754458.3594                   23754464.5824
   6994531.63746   5462391.77344  24216491.8134                   24216497.8404
  12937003.28946  10083768.91845  23342732.7424                   23342737.3324
 11  9 21 22  2  0.0000000  0  8G02G05G12G04G10G09G25G17
 -21450847.64848 -16708733.65247  20722650.2584                   20722648.8984
  -5330032.54747  -4141145.26245  22430878.1414                   22430882.5944
 -11874659.19547  -9237913.89846  21590965.3054                   21590966.1644
    790000.87148    656007.55545  21604162.8134                   21604164.3674
 -14585591.24248 -11292790.05146  21045243.4844                   21045245.0744
  -1178363.56247   -914902.68744  23763729.8284                   23763735.8524
   6864368.90646   5360966.37944  24191723.0164                   24191728.6804
  12961481.14146  10102842.51244  23347390.2584                   23347394.9264
 11  9 21 22  2 30.0000000  0  8G02G05G12G04G10G09G25G17
 -21485869.35248 -16736023.27347  20715985.8284                   20715984.3324
  -5456035.29747  -4239329.08246  22406900.7194                   22406905.0634
 -11965960.22748  -9309057.53546  21573591.3204                   21573592.0704
    833668.29348    690034.05945  21612472.4614                   21612474.0904
 -14622573.82848 -11321607.63346  21038205.7114                   21038206.9064
  -1129461.16847   -876797.14144  23773035.8054                   23773041.1564
   6734381.88346   5259677.91844  24166986.9614                   24166993.0904
  12986110.25846  10122033.91844  23352077.1884                   23352081.8524
 11  9 21 22  3  0.0000000  0  8G02G05G12G04G10G09G25G17
 -21520588.38348 -16763077.04347  20709379.1254                   20709377.6094
  -5581779.26647  -4337311.23046  22382971.7734                   22382976.8444
 -12056836.96148  -9379870.53946  21556297.7034                   21556299.0474
    877504.68448    724192.23045  21620814.3674                   21620816.2704
 -14658927.94147 -11349935.47746  21031287.5554                   21031288.9304
  -1080381.27046   -838553.27344  23782375.5864                   23782381.5744
   6604571.98447   5158527.45344  24142285.4694                   24142290.9104
  13010889.92646  10141342.65644  23356792.5314                   23356796.2664
 11  9 21 22  3 30.0000000  0  8G02G05G12G04G10G09G25G17
 -21555003.12947 -16789893.71547  20702830.3524                   20702828.3134
  -5707258.20347  -4435086.87946  22359094.0784                   22359098.7194
 -12147283.73448  -9450348.49646  21539085.9384                   21539087.7274
    921511.16048    758482.93446  21629189.2114                   21629190.7774
 -14694649.91847 -11377770.76646  21024489.7664                   21024491.3364
  -1031124.07446   -800171.26244  23791748.8984                   23791755.4844
   6474944.93447   5057519.41044  24117618.0314                   24117623.1094
  13035823.43846  10160771.27044  23361537.2664                   23361540.7274
 11  9 21 22  4  0.0000000  0  8G02G05G12G04G10G09G25G17
 -21589116.42648 -16816475.49647  20696338.7504                   20696337.3014
  -5832470.91047  -4532655.10245  22335266.5314                   22335270.8054
 -12237299.94147  -9520490.96946  21521956.8834                   21521958.1884
    965683.85548    792903.15646  21637594.9454                   21637597.0354
 -14729741.12947 -11405114.54346  21017811.4774                   21017813.8594
   -981694.71546   -761655.06644  23801155.7814                   23801162.9184
   6345501.69147   4956654.64844  24092986.6334                   24092991.7504
  13060909.66046  10180318.88344  23366311.3444                   23366315.0944
 11  9 21 22  4 30.0000000  0  8G02G05G12G04G10G09G25G17
 -21622928.83248 -16842822.82047  20689904.2894                   20689902.7114
  -5957414.98047  -4630013.98045  22311490.7034                   22311494.6524
 -12326883.28948  -9590296.12546  21504909.9534                   21504910.7624
   1010020.77748    827451.34445  21646032.2814                   21646033.5124
 -14764201.07048 -11431966.43746  21011254.9304                   21011256.3794
   -932096.53547   -723007.37144  23810593.9924                   23810601.6294
   6216244.95747   4855935.18444  24068389.6174                   24068394.0274
  13086149.43846  10199986.13744  23371114.6954                   23371118.3554
 11  9 21 22  5  0.0000000  0  8G02G05G12G04G10G09G25G17
 -21656439.61748 -16868935.11347  20683527.4774                   20683526.2504
  -6082085.14547  -4727159.43046  22287767.0634                   22287770.9574
 -12416029.48048  -9659760.64146  21487945.7664                   21487946.2894
   1054521.68048    862127.30945  21654500.0554                   21654501.6454
 -14798027.37947 -11458324.56246  21004818.0474                   21004819.8714
   -882331.27747   -684229.48044  23820064.5234                   23820071.1024
   6087179.18047   4755364.48444  24043828.9454                   24043833.0394
  13111544.47346  10219774.37544  23375946.8984                   23375950.6724
 11  9 21 22  5 30.0000000  0  8G02G05G12G04G10G09G25G17
 -21689648.61348 -16894812.27047  20677207.8444                   20677206.8284
  -6206477.33247  -4824088.23446  22264095.7344                   22264098.9304
 -12504735.46548  -9728882.15246  21471065.3284                   21471066.2934
   1099185.89548    896930.51645  21662999.5234                   21663001.0984
 -14831218.48847 -11484187.74246  20998501.9384                   20998503.3444
   -832400.88347   -645322.89844  23829565.7274                   23829572.8714
   5958308.16447   4654945.58644  24019305.3914                   24019311.3954
  13137097.10546  10239685.44144  23380809.5944                   23380813.5514
 11  9 21 22  6  0.0000000  0  8G02G05G12G04G10G09G25G17
 -21722556.12147 -16920454.47347  20670945.8594                   20670944.6414
  -6330587.62147  -4920797.42245  22240478.2424                   22240480.8054
 -12592997.48048  -9797657.72346  21454269.8524                   21454270.7664
   1144012.27748    931860.09845  21671529.5784                   21671531.6294
 -14863773.21147 -11509555.06246  20992307.0944                   20992308.8954
   -782307.85547   -606289.62144  23839098.0164                   23839105.3594
   5829635.58647   4554681.33644  23994819.6414                   23994825.6214
  13162808.32446  10259720.05544  23385702.6334                   23385706.7544
 11  9 21 22  6 30.0000000  0  8G02G05G12G04G10G09G25G17
 -21755165.93748 -16945864.71947  20664740.0164                   20664738.6804
  -6454416.30547  -5017287.18746  22216914.2664                   22216917.6294
 -12680816.50048  -9866088.10546  21437558.2424                   21437558.5474
   1188995.61748    966911.98045  21680089.7584                   21680091.8914
 -14895694.12947 -11534428.48046  20986232.7664                   20986233.7384
   -732058.88347   -567134.80944  23848660.6094                   23848667.8404
   5701160.89847   4454571.29744  23970371.4224                   23970377.8834
  13188675.56347  10279876.23044  23390624.9694                   23390628.7464
 11  9 21 22  7  0.0000000  0  8G02G05G12G04G10G09G25G17
 -21787477.08647 -16971042.23446  20658591.7974                   20658590.2504
  -6577958.34447  -5113553.58246  22193405.0944                   22193408.7114
 -12768188.18748  -9934169.89846  21420931.9534                   21420932.3754
   1234136.12548   1002086.33645  21688679.3834                   21688682.4224
 -14926979.10947 -11558806.34846  20980279.4224                   20980281.0704
   -681655.25847   -527859.50844  23858252.1564                   23858259.7774
   5572888.94547   4354619.24244  23945962.5784                   23945968.4654
  13214701.59046  10300156.14544  23395577.3754                   23395580.5984
 11  9 21 22  7 30.0000000  0  8G02G05G12G04G10G09G25G17
 -21819496.61347 -16995992.52347  20652498.5164                   20652497.2384
  -6701216.62547  -5209598.86746  22169949.4304                   22169952.6374
 -12855115.80148 -10001905.66446  21404390.1954                   21404390.8874
   1279426.20348   1037377.24245  21697297.9304                   21697300.4184
 -14957633.60947 -11582692.95746  20974446.4924                   20974447.6844
   -631105.74247   -488470.51644  23867871.8834                   23867879.3014
   5444816.57047   4254822.72344  23921590.7274                   23921596.5944
  13240881.00046  10320555.59044  23400559.5084                   23400562.7584
 11  9 21 22  8  0.0000000  0  8G02G05G12G04G10G09G25G17
 -21851221.55148 -17020713.26647  20646461.7274                   20646460.3714
  -6824184.35247  -5305417.76245  22146549.4384                   22146552.1564
 -12941593.87148 -10069291.12946  21387933.9774                   21387934.4884
   1324867.58248   1072786.03145  21705945.1804                   21705947.3324
 -14987653.62147 -11606085.16446  20968733.4224                   20968735.2814
   -580410.08646   -448967.61344  23877518.8054                   23877526.1684
   5316950.08247   4155186.62944  23897258.6954                   23897263.5594
  13267218.20347  10341077.98444  23405571.6804                   23405575.5984
 11  9 21 22  8 30.0000000  0  8G02G05G12G04G10G09G25G17
 -21882651.92248 -17045204.45747  20640480.7344                   20640479.6454
  -6946857.53147  -5401007.14146  22123204.8914                   22123208.8134
 -13027618.39548 -10136323.20346  21371563.9844                   21371565.1844
   1370459.12548   1108311.84845  21714621.4064                   21714623.1884
 -15017037.80948 -11628981.91046  20963141.5704                   20963143.3204
   -529570.73846   -409352.80144  23887193.5164                   23887200.0704
   5189293.44547   4055714.05144  23872965.5084                   23872971.0394
  13293714.39146  10361724.25044  23410612.9694                   23410617.2154
 11  9 21 22  9  0.0000000  0  8G02G05G12G04G10G09G25G17
 -21913788.08248 -17069466.39846  20634555.4454                   20634554.3404
  -7069232.70347  -5496364.28145  22099917.8054                   22099921.5904
 -13113187.20748 -10203000.16046  21355280.6724                   21355281.3634
   1416199.71947   1143953.78945  21723325.2034                   21723327.6374
 -15045785.18047 -11651382.44546  20957671.2664                   20957672.4224
   -478590.42246   -369628.11344  23896895.4144                   23896901.7234
   5061849.82847   3956407.47344  23848714.1804                   23848719.8834
  13320370.96946  10382495.50044  23415686.2814                   23415690.0824
 11  9 21 22  9 30.0000000  0  8G02G05G12G04G10G09G25G17
 -21944631.96148 -17093500.58647  20628686.1644                   20628684.6914
  -7191307.89147  -5591487.67646  22076687.7034                   22076691.2154
 -13198298.38348 -10269320.52346  21339084.7034                   21339085.5594
   1462086.37948   1179709.56345  21732057.5004                   21732059.3714
 -15073896.53948 -11673287.37546  20952321.7344                   20952323.1914
   -427473.34047   -329796.86744  23906622.7894                   23906628.1094
   4934621.09447   3857268.29744  23824503.2034                   23824509.0864
  13347187.28947  10403391.25844  23420789.1724                   23420792.2894
 11  9 21 22 10  0.0000000  0  8G02G05G12G04G10G09G25G17
 -21975179.91448 -17117304.17646  20622873.1884                   20622871.9304
  -7313075.32847  -5686371.27346  22053516.0164                   22053519.1334
 -13282944.97348 -10335278.85546  21322976.9144                   21322977.4344
   1508122.35948   1215581.68045  21740818.0554                   21740819.9184
 -15101366.91848 -11694692.84046  20947094.2344                   20947096.2424
   -376218.26647   -289858.07844  23916376.0704                   23916381.7584
   4807614.82447   3758302.49644  23800334.8054                   23800340.6524
  13374168.87146  10424415.75444  23425923.2194                   23425927.7774
 11  9 21 22 10 30.0000000  0  8G02G05G12G04G10G09G25G17
 -22005435.96948 -17140880.31247  20617115.3834                   20617113.8444
  -7434535.09047  -5781015.14846  22030403.0944                   22030406.1134
 -13367127.93448 -10400875.93746  21306957.4694                   21306957.7854
   1554302.41848   1251566.06645  21749605.5084                   21749608.0004
 -15128199.39848 -11715601.24646  20941988.3754                   20941989.1644
   -324831.28547   -249816.53544  23926155.4224                   23926161.3754
   4680830.63747   3659509.72344  23776208.3054                   23776214.4924
  13401313.42646  10445567.23844  23431088.9064                   23431092.5594
 11  9 21 22 11  0.0000000  0  8G02G05G12G04G10G09G25G17
 -22035402.38348 -17164230.75847  20611412.9694                   20611411.6954
  -7555685.58247  -5875417.99646  22007348.5554                   22007351.4694
 -13450846.16848 -10466110.89846  21291026.3524                   21291027.0744
   1600623.36348   1287660.25045  21758420.4304                   21758421.5704
 -15154395.09048 -11736013.46946  20937003.4774                   20937005.0044
   -273316.83247   -209675.62944  23935957.8134                   23935964.7234
   4554269.89547   3560891.09445  23752124.9144                   23752130.7114
  13428619.94946  10466844.94544  23436285.7584                   23436288.9384
 11  9 21 22 11 30.0000000  0  8G02G05G12G04G10G09G25G17
 -22065081.38747 -17187357.23446  20605765.0164                   20605763.8164
  -7676525.32047  -5969578.71546  21984353.7114                   21984355.9144
 -13534098.81648 -10530983.06246  21275183.6564                   21275184.4844
   1647082.13748   1323861.83245  21767261.4774                   21767262.8244
 -15179955.28948 -11755930.47746  20932139.2734                   20932140.4144
   -221679.91847   -169439.30544  23945784.1954                   23945790.0434
   4427934.01247   3462447.67645  23728083.6884                   23728090.3244
  13456087.10947  10488247.82844  23441512.5554                   23441516.0164
 11  9 21 22 12  0.0000000  0  8G02G05G12G04G10G09G25G17
 -22094474.38348 -17210260.85947  20600171.9304                   20600170.7544
  -7797051.27047  -6063494.94546  21961417.8754                   21961420.7544
 -13616883.90248 -10595490.88346  21259430.4064                   21259430.7974
   1693676.77048   1360169.28945  21776128.1724                   21776129.9304
 -15204879.99647 -11775352.30946  20927396.4144                   20927397.4064
   -169923.80147   -129110.09844  23955632.8284                   23955640.4264
   4301825.65647   3364181.53144  23704085.7194                   23704092.3134
  13483715.40647  10509776.30544  23446770.4304                   23446774.7544
 11  9 21 22 12 30.0000000  0  8G02G05G12G04G10G09G25G17
 -22123579.40248 -17232940.08247  20594633.7424                   20594632.5784
  -7917257.82047  -6157162.27746  21938543.4224                   21938546.6604
 -13699196.43748 -10659630.48046  21243766.5234                   21243766.8834
   1740408.13748   1396583.28945  21785020.8984                   21785023.1024
 -15229166.28548 -11794276.66846  20922774.7114                   20922775.8364
   -118048.82847    -88688.30544  23965504.5004                   23965513.1994
   4175950.34847   3266096.98844  23680132.4694                   23680139.4414
  13511508.57446  10531433.22344  23452058.6174                   23452063.5704
 11  9 21 22 13  0.0000000  0  8G02G05G12G04G10G09G25G17
 -22152398.79347 -17255396.72746  20589149.3204                   20589148.4144
  -8037143.37147  -6250579.47746  21915729.6724                   21915733.1884
 -13781035.47748 -10723401.14846  21228193.3054                   21228194.0274
   1787273.27048   1433101.53145  21793938.9304                   21793941.0234
 -15252815.58648 -11812704.68746  20918274.6804                   20918275.8794
    -66059.78147    -48177.61344  23975398.7114                   23975406.4654
   4050309.57847   3168195.18444  23656224.1804                   23656229.8794
  13539465.70346  10553217.87144  23457379.1884                   23457383.4884
 11  9 21 22 13 30.0000000  0  8G02G05G12G04G10G09G25G17
 -22180934.32048 -17277632.19146  20583719.2424                   20583717.6484
  -8156706.14147  -6343745.15646  21892977.6024                   21892981.1134
 -13862399.68448 -10786801.80546  21212710.3054                   21212710.9844
   1834269.25448   1469721.72745  21802881.7894                   21802884.6024
 -15275828.74247 -11830636.97346  20913895.0164                   20913896.4614
    -13960.68747     -7581.16044  23985312.3134                   23985321.4384
   3924905.22747   3070477.56644  23632359.7974                   23632364.9104
  13567586.28546  10575129.89144  23462730.6094                   23462735.3524
 11  9 21 22 14  0.0000000  0  8G02G05G12G04G10G09G25G17
 -22209187.57448 -17299647.69947  20578342.7894                   20578341.3094
  -8275943.02047  -6436656.90246  21870287.9924                   21870290.8014
 -13943287.21148 -10849831.03146  21197317.9614                   21197318.5474
   1881394.30948   1506442.49645  21811849.4774                   21811852.3554
 -15298205.80148 -11848073.63346  20909636.7974                   20909638.2304
     38244.91046     33098.28944  23995247.0944                   23995255.3244
   3799739.85947   2972946.20744  23608541.9924                   23608547.2344
  13595870.69146  10597169.59044  23468112.7274                   23468118.9734
 11  9 21 22 14 30.0000000  0  8G02G05G12G04G10G09G25G17
 -22237155.93448 -17321441.20346  20573020.5784                   20573019.2584
  -8394847.93747  -6529309.98046  21847661.1414                   21847664.1134
 -14023692.46548 -10912484.45346  21182017.3204                   21182017.5044
   1928649.82048   1543264.92645  21820842.0394                   21820844.3984
 -15319943.67248 -11865012.21946  20905500.2344                   20905501.5314
     90557.22746     73860.89843  24005202.5164                   24005210.3554
   3674819.52347   2875605.78544  23584769.8674                   23584775.5634
  13624322.55546  10619339.77344  23473526.7664                   23473533.3244
 11  9 21 22 15  0.0000000  0  8G02G05G12G04G10G09G25G17
 -22264842.05148 -17343014.80546  20567751.8594                   20567750.3794
  -8513419.46547  -6621703.25446  21825097.6564                   21825101.1764
 -14103614.69548 -10974761.51646  21166808.3134                   21166808.9144
   1976032.44148   1580186.41045  21829859.2584                   21829861.3244
 -15341044.13347 -11881454.11346  20901484.6724                   20901486.6334
    142971.36747    114702.82844  24015175.8134                   24015183.9844
   3550145.52347   2778457.34044  23561045.0864                   23561050.6884
  13652941.09446  10641639.81344  23478972.5164                   23478979.5124
 11  9 21 22 15 30.0000000  0  8G02G05G12G04G10G09G25G17
 -22292243.25848 -17364366.38747  20562538.2664                   20562536.4184
  -8631651.12947  -6713831.71546  21802598.9224                   21802601.5274
 -14183048.25848 -11036657.78546  21151692.8284                   21151693.4184
   2023544.24648   1617208.55545  21838900.2034                   21838902.8794
 -15361503.57847 -11897396.53546  20897592.1724                   20897593.3874
    195487.75046    155624.44544  24025170.1564                   24025178.3404
   3425724.17247   2681505.77344  23537368.5634                   23537374.2734
  13681730.35546  10664072.89544  23484450.8594                   23484457.7074
 11  9 21 22 16  0.0000000  0  8G02G05G12G04G10G09G25G17
 -22319363.07048 -17385498.69546  20557377.0704                   20557375.4184
  -8749542.47747  -6805694.99646  21780164.6414                   21780166.9414
 -14261993.52748 -11098173.55946  21136670.0164                   21136670.4024
   2071180.73848   1654327.86345  21847964.6334                   21847967.6564
 -15381324.60548 -11912841.47346  20893820.1334                   20893820.5084
    248100.68847    196621.27343  24035182.0554                   24035191.0984
   3301555.94547   2584751.43844  23513739.7584                   23513746.2154
  13710688.37146  10686637.46944  23489961.6884                   23489967.0124
 11  9 21 22 16 30.0000000  0  8G02G05G12G04G10G09G25G17
 -22346199.33648 -17406410.07047  20552270.3754                   20552268.9534
  -8867087.66847  -6897288.53146  21757796.1094                   21757799.1804
 -14340445.11748 -11159304.66846  21121741.3364                   21121741.4104
   2118943.34048   1691545.44545  21857053.7584                   21857056.2664
 -15400504.34048 -11927786.69946  20890170.2424                   20890171.1134
    300809.81346    237693.07043  24045212.4454                   24045221.3834
   3177646.55947   2488198.81345  23490160.2344                   23490167.0434
  13739818.73046  10709336.31644  23495505.0234                   23495510.9614
 11  9 21 22 17  0.0000000  0  8G02G05G12G04G10G09G25G17
 -22372752.02748 -17427100.48847  20547217.5314                   20547216.3204
  -8984282.73447  -6988609.24646  21735494.5704                   21735497.5594
 -14418400.04748 -11220048.76646  21106906.8054                   21106907.3834
   2166831.58248   1728860.90645  21866166.4694                   21866169.3834
 -15419042.00448 -11942231.62946  20886642.7734                   20886643.3984
    353613.14846    278838.23844  24055261.2274                   24055268.4184
   3053999.85947   2391850.85244  23466631.3134                   23466637.3244
  13769122.91446  10732170.62144  23501081.5784                   23501087.0704
 11  9 21 22 17 30.0000000  0  8G02G05G12G04G10G09G25G17
 -22399021.95348 -17447570.55946  20542218.5004                   20542217.4494
  -9101124.52047  -7079654.68446  21713259.8754                   21713263.6254
 -14495855.63748 -11280403.76246  21092167.4304                   21092168.2854
   2214843.77347   1766272.93445  21875303.1954                   21875305.2544
 -15436937.48448 -11956176.15646  20883237.0944                   20883238.5744
    406507.73846    320054.55943  24065326.3914                   24065334.8834
   2930618.97747   2295710.00844  23443152.7034                   23443158.9494
  13798601.92246  10755141.16444  23506692.4384                   23506696.2894
 11  9 21 22 18  0.0000000  0  8G02G05G12G04G10G09G25G17
 -22425014.49248 -17467824.48846  20537272.3984                   20537270.9804
  -9217614.56248  -7170426.03146  21691093.0784                   21691095.7504
 -14572814.52748 -11340371.69946  21077522.7034                   21077523.5824
   2262974.04347   1803776.98845  21884461.8984                   21884463.7274
 -15454195.38748 -11969623.85946  20879952.6174                   20879954.2194
    459485.95746    361336.01644  24075409.0474                   24075416.7274
   2807502.36347   2199775.08644  23419724.5784                   23419729.7424
  13828251.57046  10778244.65644  23512334.4304                   23512339.4964
 11  9 21 22 18 30.0000000  0  8G02G05G12G04G10G09G25G17
 -22450727.22348 -17487860.39546  20532379.4064                   20532378.0784
  -9333746.11747  -7260918.04346  21668993.7734                   21668996.1524
 -14649271.23848 -11399948.33646  21062973.6484                   21062974.1214
   2311223.77747   1841374.14145  21893643.6954                   21893645.6484
 -15470812.61748 -11982572.34046  20876791.2274                   20876791.9844
    512547.93847    402682.74644  24085506.4384                   24085514.1134
   2684656.08647   2104050.83645  23396347.8284                   23396353.5864
  13858075.88746  10801484.26244  23518009.5084                   23518014.4384
 11  9 21 22 19  0.0000000  0  8G02G05G12G04G10G09G25G17
 -22476161.12548 -17507679.03146  20527539.6174                   20527538.5234
  -9449516.74248  -7351128.79346  21646963.2424                   21646965.2344
 -14725223.27348 -11459131.72746  21048520.3754                   21048520.7304
   2359591.80548   1879063.45345  21902848.0164                   21902850.3714
 -15486789.35948 -11995021.73446  20873750.5634                   20873751.9844
    565690.62147    444092.35244  24095619.0704                   24095627.0234
   2562083.09447   2008539.54345  23373023.1644                   23373028.2154
  13888075.32047  10824860.33244  23523718.1804                   23523723.2854
 11  9 21 22 19 30.0000000  0  8G02G05G12G04G10G09G25G17
 -22501317.75448 -17527281.60947  20522751.9694                   20522751.0274
  -9564924.14548  -7441056.53546  21625002.1724                   21625004.3984
 -14800669.58248 -11517921.02746  21034163.3914                   21034163.6884
   2408075.53148   1916842.94945  21912074.4144                   21912076.6374
 -15502126.69148 -12006972.90646  20870831.9304                   20870834.0314
    618910.50447    485562.14143  24105746.6724                   24105755.6214
   2439785.68447   1913242.98845  23349750.3284                   23349755.3594
  13918249.78546  10848372.80544  23529460.8594                   23529465.3554
 11  9 21 22 20  0.0000000  0  8G02G05G12G04G10G09G25G17
 -22526197.93748 -17546668.77746  20518017.8204                   20518016.1844
  -9679965.30548  -7530698.86346  21603109.8754                   21603112.8594
 -14875607.44548 -11576314.14146  21019903.4064                   21019903.6804
   2456673.64148   1954711.53945  21921322.0004                   21921324.0084
 -15516824.66048 -12018425.87546  20868034.8834                   20868036.8444
    672204.68846    527089.80543  24115888.2424                   24115896.8714
   2317766.89847   1818163.50845  23326530.7664                   23326535.3984
  13948599.99247  10872022.19144  23535236.7194                   23535240.7704
 11  9 21 22 20 30.0000000  0  8G02G05G12G04G10G09G25G17
 -22550801.41048 -17565840.31646  20513336.1884                   20513334.3204
  -9794636.22748  -7620052.71946  21581289.1094                   21581292.0744
 -14950034.26648 -11634309.03546  21005740.0394                   21005740.6334
   2505385.66848   1992668.92245  21930591.6564                   21930593.8524
 -15530882.71548 -12029380.18446  20865359.9614                   20865360.8524
    725571.00846    568673.65244  24126043.9534                   24126053.0594
   2196030.45347   1723304.03945  23303364.7274                   23303369.6454
  13979127.41047  10895809.70344  23541045.9384                   23541050.7584
 11  9 21 22 21  0.0000000  0  8G02G05G12G04G10G09G25G17
 -22575129.27348 -17584797.10246  20508706.5474                   20508705.3834
  -9908933.50448  -7709115.41846  21559538.7194                   21559541.5664
 -15023947.82848 -11691903.98846  20991674.9064                   20991675.5234
   2554209.99247   2030713.80545  21939883.0394                   21939884.3444
 -15544300.83647 -12039835.85546  20862806.2664                   20862807.2934
    779006.07446    610311.12144  24136211.9304                   24136220.9774
   2074579.34847   1628666.92244  23280253.7274                   23280258.8674
  14009832.88747  10919735.94944  23546888.8054                   23546894.6374
 11  9 21 22 21 30.0000000  0  8G02G05G12G04G10G09G25G17
 -22599182.45748 -17603539.84447  20504129.1334                   20504127.6994
 -10022854.88748  -7797885.22746  21537860.1724                   21537862.5044
 -15097345.70748 -11749097.09446  20977707.3594                   20977708.2704
   2603145.12547   2068845.03945  21949194.8914                   21949196.7894
 -15557079.47748 -12049793.22346  20860374.6174                   20860376.2624
    832507.00846    651999.89143  24146393.2114                   24146404.4384
   1953416.63747   1534254.50445  23257197.1334                   23257201.6094
  14040716.83247  10943801.21944  23552766.0234                   23552770.6254
 11  9 21 22 22  0.0000000  0  8G02G05G12G04G10G09G25G17
 -22622961.94148 -17622069.30547  20499604.0314                   20499602.8014
 -10136397.57848  -7886359.96146  21516253.5004                   21516255.8914
 -15170226.36748 -11805887.19146  20963839.0634                   20963839.3954
   2652189.31647   2107061.23445  21958528.1484                   21958529.8324
 -15569219.40648 -12059252.92246  20858064.7664                   20858066.2344
    886070.59847    693737.47344  24156585.8204                   24156597.0944
   1832544.73047   1440068.70344  23234195.6094                   23234200.5274
  14071779.46147  10968005.75044  23558677.7114                   23558681.9144
 11  9 21 22 22 30.0000000  0  8G02G05G12G04G10G09G25G17
 -22646469.09448 -17640386.56646  20495130.6174                   20495129.5904
 -10249558.69548  -7974537.35546  21494719.5164                   21494721.8054
 -15242587.99648 -11862272.84846  20950068.7424                   20950069.4264
   2701340.64547   2145360.92245  21967881.1564                   21967882.5634
 -15580721.57847 -12068215.65246  20855875.8754                   20855876.7894
    939693.42646    735521.21144  24166791.3914                   24166800.4534
   1711966.38347   1346111.66044  23211250.1724                   23211255.8134
  14103021.26246  10992349.91044  23564621.8524                   23564626.7854
 11  9 21 22 23  0.0000000  0  8G02G05G12G04G10G09G25G17
 -22669700.75848 -17658489.16447  20490709.9774                   20490708.8484
 -10362331.03948  -8062411.80946  21473259.8914                   21473262.0554
 -15314424.52747 -11918249.33246  20936399.1414                   20936399.7154
   2750601.73447   2183746.13745  21977255.2034                   21977257.1764
 -15591582.25447 -12076678.50846  20853808.9454                   20853809.6334
    993376.62946    777352.01643  24177006.7734                   24177015.6644
   1591688.41047   1252388.68844  23188362.0234                   23188367.1484
  14134446.55947  11016837.05144  23570602.2734                   23570607.5634
 11  9 21 22 23 30.0000000  0  8G02G05G12G04G10G09G25G17
 -22692658.60248 -17676378.39147  20486341.2734                   20486340.1024
 -10474713.38748  -8149982.37146  21451874.3914                   21451876.6844
 -15385734.29748 -11973815.35546  20922828.9384                   20922829.8404
   2799970.16047   2222214.97745  21986648.8134                   21986651.6134
 -15601802.37147 -12084642.22746  20851863.9224                   20851865.3594
   1047116.41847    819226.91444  24187233.2504                   24187241.5084
   1471713.15647   1158901.57844  23165530.7034                   23165535.5204
  14166055.27747  11041467.09044  23576617.7504                   23576622.8674
 11  9 21 22 24  0.0000000  0  8G02G05G12G04G10G09G25G17
 -22715343.32048 -17694054.79347  20482024.6484                   20482023.2274
 -10586702.45348  -8237246.47346  21430563.7424                   21430566.0904
 -15456515.73448 -12028969.69146  20909359.7424                   20909360.3164
   2849444.62147   2260766.43845  21996063.2814                   21996066.5164
 -15611382.56247 -12092107.32046  20850041.0704                   20850042.7344
   1100909.84447    861143.61344  24197469.4384                   24197477.8634
   1352043.44147   1065652.55144  23142758.3284                   23142763.3404
  14197848.02347  11066240.53944  23582668.4694                   23582673.0514
 11  9 21 22 24 30.0000000  0  8G02G05G12G04G10G09G25G17
 -22737756.35948 -17711519.50046  20477759.4144                   20477757.8444
 -10698295.59048  -8324202.05146  21409327.6024                   21409329.9734
 -15526767.36348 -12083711.19546  20895991.1334                   20895992.2154
   2899023.31647   2299399.12545  22005498.7974                   22005501.7664
 -15620323.65247 -12099074.40646  20848339.9304                   20848341.1524
   1154753.58247    903099.51244  24207715.7814                   24207723.0784
   1232681.91847    972643.68044  23120044.8204                   23120049.4614
  14229825.03147  11091157.55944  23588752.7584                   23588758.2704
 11  9 21 22 25  0.0000000  0  8G02G05G12G04G10G09G25G17
 -22759899.18448 -17728773.64147  20473546.1804                   20473544.3324
 -10809490.25847  -8410847.13746  21388167.8444                   21388170.2344
 -15596487.31248 -12138038.41446  20882723.7584                   20882724.8054
   2948704.48847   2338111.65245  22014952.5394                   22014955.3874
 -15628626.73447 -12105544.34846  20846759.9534                   20846760.7974
   1208644.18046    945091.90243  24217970.7814                   24217979.2624
   1113630.98447    879876.84045  23097390.2424                   23097395.4574
  14261986.27347  11116218.12944  23594872.5314                   23594877.4264
 11  9 21 22 25 30.0000000  0  8G02G05G12G04G10G09G25G17
 -22781772.68748 -17745817.91847  20469383.4384                   20469382.2344
 -10920283.94947  -8497179.76646  21367084.7814                   21367087.0044
 -15665673.68448 -12191949.85946  20869558.1724                   20869558.8834
   2998486.45347   2376902.73445  22024425.9454                   22024428.8364
 -15636292.30947 -12111517.51246  20845301.0164                   20845302.2734
   1262578.69946    987118.55544  24228235.1024                   24228243.0004
    994893.39547    787354.16045  23074795.4064                   23074799.9184
  14294332.09446  11141422.57844  23601027.5234                   23601033.1174
 11  9 21 22 26  0.0000000  0  8G02G05G12G04G10G09G25G17
 -22803378.10948 -17762653.30546  20465272.1174                   20465270.6804
 -11030674.03948  -8583197.91046  21346077.9144                   21346079.8954
 -15734325.25448 -12245444.58646  20856494.2894                   20856494.5204
   3048367.30947   2415770.86345  22033917.6254                   22033921.6024
 -15643321.45747 -12116994.76246  20843963.7114                   20843964.8794
   1316553.38746   1029176.50044  24238506.4924                   24238515.3674
    876471.80547    695077.71545  23052260.7584                   23052264.4844
  14326862.89146  11166771.11344  23607218.2664                   23607223.6994
 11  9 21 22 26 30.0000000  0  8G02G05G12G04G10G09G25G17
 -22824718.88348 -17779282.48046  20461211.1804                   20461210.0314
 -11140660.17247  -8668901.31246  21325147.6954                   21325150.2304
 -15802442.39148 -12298522.86746  20843531.9694                   20843532.1604
   3098343.31347   2454713.15245  22043428.1254                   22043430.4924
 -15649717.01248 -12121978.30946  20842746.6174                   20842747.6954
   1370562.66446   1071261.38344  24248785.0784                   24248794.7854
    758366.48847    603047.70745  23029785.6954                   23029789.2894
  14359576.60246  11192262.15244  23613442.9534                   23613449.1954
 11  9 21 22 27  0.0000000  0  8G02G05G12G04G10G09G25G17
 -21270373.69548 -16568104.39847  20756993.2424                   20756991.9064
  -9674814.45747  -7526683.75846  21604089.2894                   21604091.4414
 -14294599.03948 -11123579.99646  21130464.9774                   21130464.8674
   4723832.77047   3721328.23845  22352748.7344                   22352750.8204
 -14080058.21148 -10898867.55946  21141442.6804                   21141443.9654
   3000023.47746   2340970.85244  24558860.0554                   24558871.1884
   2216005.94947   1738870.76245  23307164.9844                   23307169.1214
  15967894.28146  12445496.61344  23919496.5004                   23919502.3014
 11  9 21 22 27 30.0000000  0  8G02G05G12G04G10G09G25G17
 -21291185.22748 -16584321.16847  20753032.6884                   20753031.6214
  -9783981.91447  -7611749.19946  21583315.3134                   21583317.6564
 -14361638.77348 -11175818.75046  21117707.6094                   21117708.6334
   4773997.39147   3760417.48845  22362294.4144                   22362296.7464
 -14085186.50448 -10902863.62946  21140466.7034                   21140468.5864
   3054096.16446   2383105.13744  24569149.4844                   24569162.2274
   2098544.81647   1647342.70745  23284812.5004                   23284817.0394
  16000977.99246  12471275.97744  23925792.0704                   23925798.0474
 11  9 21 22 28  0.0000000  0  8G02G05G12G04G10G09G25G17
 -21311730.31248 -16600330.32047  20749123.5474                   20749122.0354
  -9892732.57448  -7696489.87946  21562621.0554                   21562622.8054
 -14428133.74248 -11227633.01246  21105054.3134                   21105054.7664
   4824257.38747   3799581.05145  22371858.8204                   22371861.2074
 -14089679.00848 -10906364.28146  21139611.9774                   21139613.4804
   3108199.53946   2425263.32044  24579446.5784                   24579457.1054
   1981413.25847   1556071.47745  23262522.9844                   23262527.9734
  16034250.60947  12497202.55944  23932123.2274                   23932129.3014
 11  9 21 22 28 30.0000000  0  8G02G05G12G04G10G09G25G17
 -21332013.22348 -16616135.18046  20745264.0004                   20745262.3834
 -10001066.84848  -7780906.09846  21542005.3524                   21542007.4344
 -14494085.74248 -11279024.18046  21092503.8754                   21092504.3054
   4874608.14847   3838815.33645  22381440.6954                   22381442.5944
 -14093539.87148 -10909372.74246  21138877.3754                   21138878.7664
   3162327.21946   2467440.45344  24589747.4384                   24589756.2734
   1864610.71547   1465056.61345  23240296.2584                   23240301.5594
  16067709.43847  12523274.26244  23938491.2664                   23938495.1414
 11  9 21 22 29  0.0000000  0  8G02G05G12G04G10G09G25G17
 -21352037.59448 -16631738.57446  20741453.1484                   20741451.9774
 -10108984.40248  -7864997.61346  21521469.1724                   21521471.2424
 -14559495.21148 -11329992.60546  21080056.9384                   21080057.2544
   4925045.43047   3878117.05545  22391038.5474                   22391041.1764
 -14096772.46548 -10911891.63346  21138261.9924                   21138263.8674
   3216473.58246   2509632.16443  24600049.9774                   24600059.2544
   1748137.62947   1374298.47745  23218132.0234                   23218137.6844
  16101352.10547  12549489.21544  23944893.2504                   23944896.9734
 11  9 21 22 29 30.0000000  0  8G02G05G12G04G10G09G25G17
 -21371802.58648 -16647139.86346  20737691.6094                   20737690.2774
 -10216481.49648  -7948761.48046  21501012.9924                   21501015.1054
 -14624358.88348 -11380535.73046  21067713.7664                   21067714.2774
   4975569.80547   3917486.60945  22400653.3364                   22400655.5394
 -14099375.78948 -10913920.20346  21137766.6644                   21137768.8714
   3270637.39547   2551837.47344  24610357.7664                   24610366.2624
   1631998.56347   1283800.57045  23196031.8674                   23196036.5434
  16135180.86747  12575849.17644  23951330.3444                   23951333.2034
 11  9 21 22 30  0.0000000  0  8G02G05G12G04G10G09G25G17
 -21391310.88748 -16662341.13746  20733979.3914                   20733978.1054
 -10323556.89848  -8032196.76646  21480637.3284                   21480639.0704
 -14688676.74248 -11430653.56246  21055474.4844                   21055474.9844
   5026177.95348   3956921.48445  22410283.5864                   22410285.9574
 -14101352.59847 -10915460.56646  21137390.4304                   21137391.9024
   3324813.88346   2594052.65643  24620667.1884                   24620676.6374
   1516194.46147   1193563.69945  23173994.6094                   23173999.8164
  16169194.41846  12602353.11344  23957802.6564                   23957806.7114
 11  9 21 22 30 30.0000000  0  8G02G05G12G04G10G09G25G17
 -21410564.32848 -16677343.81246  20730315.7194                   20730314.4774
 -10430208.61748  -8115301.90246  21460341.5554                   21460343.9884
 -14752447.68048 -11480345.20746  21043339.2424                   21043339.7624
   5076867.90247   3996420.07845  22419929.3754                   22419932.2774
 -14102703.98447 -10916513.59046  21137133.2114                   21137134.5824
   3378999.45347   2636274.89844  24630978.6564                   24630987.8954
   1400727.52047   1103589.55945  23152021.8054                   23152027.3404
  16203392.68447  12629000.97344  23964311.2274                   23964314.1374
 11  9 21 22 31  0.0000000  0  8G02G05G12G04G10G09G25G17
 -21429562.48448 -16692147.57446  20726700.5004                   20726699.1804
 -10536432.87948  -8198073.97746  21440128.3524                   21440130.8404
 -14815668.91048 -11529608.50446  21031308.4144                   21031309.3054
   5127639.30948   4035982.13345  22429590.9694                   22429593.7894
 -14103430.14548 -10917079.43446  21136995.0864                   21136996.1414
   3433192.14146   2678502.68444  24641290.6954                   24641301.8874
   1285601.66447   1013881.18045  23130114.0944                   23130119.9534
  16237777.03147  12655793.84444  23970854.2734                   23970858.1954
 11  9 21 22 31 30.0000000  0  8G02G05G12G04G10G09G25G17
 -21448306.12148 -16706753.02347  20723133.8594                   20723132.3324
 -10642226.63748  -8280510.59046  21419996.3594                   21419998.1804
 -14878338.69548 -11578442.10246  21019383.0944                   21019383.8054
   5178491.09848   4075606.83245  22439267.5944                   22439270.3674
 -14103531.87948 -10917158.71146  21136975.9064                   21136977.4844
   3487389.30547   2720733.92644  24651604.4924                   24651616.0434
   1170819.94147    924440.94545  23108271.9454                   23108276.9734
  16272347.80147  12682732.02744  23977432.8134                   23977436.6564
 11  9 21 22 32  0.0000000  0  8G02G05G12G04G10G09G25G17
 -21466796.47748 -16721161.09047  20719614.9144                   20719614.1334
 -10747587.24248  -8362609.66846  21399947.0394                   21399948.8754
 -14940455.19148 -11626844.56646  21007562.6414                   21007563.4774
   5229421.87947   4115293.09445  22448959.6644                   22448962.2704
 -14103010.05948 -10916752.11346  21137074.9384                   21137076.4774
   3541587.95746   2762966.34443  24661918.2504                   24661928.9264
   1056385.27347    835271.15644  23086495.6884                   23086500.3524
  16307105.93446  12709816.16044  23984047.7274                   23984051.3984
 11  9 21 22 32 30.0000000  0  8G02G05G12G04G10G09G25G17
 -21485034.28548 -16735372.37946  20716144.4844                   20716143.2344
 -10852512.10248  -8444369.21946  21379979.7344                   21379982.2664
 -15002016.71548 -11674814.58646  20995848.0004                   20995848.6334
   5280430.34047   4155039.90245  22458666.0234                   22458668.8404
 -14101865.41048 -10915860.19146  21137293.3594                   21137293.5554
   3595785.23446   2805197.68044  24672232.8134                   24672243.3834
    942300.44547    746373.92245  23064785.5704                   23064790.4844
  16342051.48047  12737046.29744  23990697.1174                   23990702.1054
 11  9 21 22 33  0.0000000  0  8G02G05G12G04G10G09G25G17
 -21503023.93748 -16749390.30547  20712721.4304                   20712720.1134
 -10957001.86748  -8525789.72746  21360096.1884                   21360098.7934
 -15063024.91848 -11722353.44146  20984238.6024                   20984238.5864
   5331511.83247   4194843.60545  22468386.6254                   22468388.8874
 -14100102.39848 -10914486.41846  21137628.5784                   21137629.9144
   3649974.93447   2847423.12544  24682545.5554                   24682555.8364
    828565.03947    657748.97745  23043142.7584                   23043147.5634
  16377181.47347  12764420.24644  23997381.9844                   23997388.3524
 11  9 21 22 33 30.0000000  0  8G02G05G12G04G10G09G25G17
 -21520762.89848 -16763212.87546  20709345.6414                   20709344.3714
 -11061050.81648  -8606866.73846  21340296.1564                   21340298.5634
 -15123474.98448 -11769457.38346  20972735.3284                   20972735.3714
   5382668.31647   4234705.73445  22478121.1724                   22478124.1564
 -14097719.31248 -10912629.45746  21138081.7424                   21138083.4574
   3704157.63747   2889643.18044  24692855.7734                   24692865.3054
    715185.14847    569401.06345  23021567.4614                   23021571.5044
  16412500.02047  12791941.05544  24004103.6564                   24004109.2504
 11  9 21 22 34  0.0000000  0  8G02G05G12G04G10G09G25G17
 -21538255.71148 -16776843.64846  20706016.8524                   20706015.6094
 -11164659.69948  -8687600.83246  21320580.1254                   21320582.1334
 -15183368.76248 -11816127.85546  20961337.8674                   20961338.4534
   5433894.98848   4274622.55145  22487869.6094                   22487872.1604
 -14094720.35248 -10910292.62946  21138652.6024                   21138653.7384
   3758326.85247   2931852.69543  24703163.7424                   24703172.0394
    602160.04347    481329.61745  23000059.6174                   23000064.2504
  16448003.70747  12819606.09844  24010859.8284                   24010865.5944
 11  9 21 22 34 30.0000000  0  8G02G05G12G04G10G09G25G17
 -21555502.47348 -16790282.70746  20702735.0314                   20702734.0274
 -11267825.00448  -8767989.28946  21300948.5314                   21300950.4884
 -15242703.78148 -11862362.92247  20950046.7974                   20950047.9844
   5485191.52747   4314593.82445  22497631.2034                   22497633.4654
 -14091105.51248 -10907475.88746  21139340.4454                   21139341.6764
   3812480.74246   2974050.25043  24713468.5704                   24713476.5314
    489493.52747    393537.59845  22978619.5314                   22978624.9494
  16483694.14147  12847416.69544  24017651.8284                   24017657.2424
 11  9 21 22 35  0.0000000  0  8G02G05G12G04G10G09G25G17
 -21572506.51248 -16803532.60946  20699499.3364                   20699497.7584
 -11370546.79748  -8848032.17646  21281400.8984                   21281403.0514
 -15301481.26648 -11908163.54746  20938861.4844                   20938862.0824
   5536553.87947   4354616.37545  22507405.4304                   22507407.7304
 -14086878.75448 -10904182.34046  21140144.7814                   21140146.3634
   3866613.62146   3016231.43443  24723770.3984                   24723779.5554
    377185.71547    306025.09045  22957248.6024                   22957253.9844
  16519569.01246  12875371.04743  24024479.3054                   24024483.0474
 11  9 21 22 35 30.0000000  0  8G02G05G12G04G10G09G25G17
 -21589269.82048 -16816594.93746  20696309.2034                   20696308.1604
 -11472823.58248  -8927728.28546  21261938.0634                   21261940.3554
 -15359700.46148 -11953529.12946  20927783.0474                   20927783.5784
   5587979.94547   4394688.56645  22517191.1804                   22517193.8954
 -14082041.79748 -10900413.27746  21141065.3984                   21141066.4614
   3920721.63747   3058393.28944  24734066.3914                   24734077.2234
    265238.50447    218793.56345  22935945.5634                   22935950.7034
  16555627.19546  12903468.19943  24031339.9774                   24031344.7154
 11  9 21 22 36  0.0000000  0  8G02G05G12G04G10G09G25G17
 -21605791.95348 -16829469.34046  20693165.2344                   20693163.9924
 -11574650.81648  -9007074.10246  21242561.3524                   21242564.0664
 -15417358.09448 -11998457.14846  20916810.9454                   20916811.7304
   5639470.09047   4434810.69945  22526989.2734                   22526992.5864
 -14076594.29748 -10896168.48046  21142102.0234                   21142102.9924
   3974803.65646   3100534.80943  24744358.7114                   24744371.6374
    153656.35548    131846.51245  22914711.9454                   22914716.7584
  16591871.28546  12931710.21543  24038236.6804                   24038242.6914
 11  9 21 22 36 30.0000000  0  8G02G05G12G04G10G09G25G17
 -21622074.09448 -16842156.73446  20690066.7974                   20690065.1024
 -11676026.71948  -9086068.22746  21223269.9064                   21223272.2854
 -15474453.39148 -12042946.98046  20905946.3444                   20905946.6484
   5691022.50847   4474981.35544  22536799.2894                   22536802.3364
 -14070538.08248 -10891449.37546  21143254.0944                   21143255.8954
   4028856.19947   3142653.42644  24754644.8754                   24754656.7464
     42441.53547     45185.69145  22893548.1414                   22893553.1374
  16628300.85946  12960096.75443  24045168.1804                   24045175.7274
 11  9 21 22 37  0.0000000  0  8G02G05G12G04G10G09G25G17
 -21638118.82448 -16854659.12946  20687013.5234                   20687012.5234
 -11776950.06648  -9164709.71946  21204064.8444                   21204067.1454
 -15530986.07048 -12086998.39546  20895188.2894                   20895189.0274
   5742634.63347   4515198.52044  22546621.4924                   22546624.0044
 -14063875.63348 -10886257.87946  21144522.6484                   21144523.5904
   4082875.00047   3184745.75443  24764924.2814                   24764937.3134
    -68404.47747    -41187.75045  22872454.9534                   22872460.1414
  16664915.26646  12988627.30943  24052136.5004                   24052142.7384
 11  9 21 22 37 30.0000000  0  8G02G05G12G04G10G09G25G17
 -21653925.35948 -16866975.93046  20684006.0314                   20684004.8134
 -11877417.23848  -9242995.73046  21184946.3594                   21184949.0784
 -15586953.28148 -12130609.19946  20884537.9454                   20884538.8054
   5794306.70347   4555462.41844  22556454.3914                   22556457.0904
 -14056606.90248 -10880593.94946  21145905.5554                   21145907.1134
   4136858.80546   3226810.73443  24775196.8444                   24775209.0434
   -178877.46947   -127270.53545  22851431.7974                   22851437.3284
  16701715.92646  13017302.94543  24059139.1174                   24059145.0784
 11  9 21 22 38  0.0000000  0  8G02G05G12G04G10G09G25G17
 -21669497.84448 -16879110.33246  20681042.8444                   20681041.1094
 -11977428.69548  -9320926.62546  21165914.6334                   21165916.4024
 -15642357.43748 -12173781.26646  20873995.2034                   20873995.8284
   5846033.96547   4595769.29744  22566297.2114                   22566301.0984
 -14048736.34448 -10874461.07446  21147403.1954                   21147404.7424
   4190801.54346   3268843.74643  24785462.6094                   24785473.3754
   -288978.14547   -213063.19145  22830480.8594                   22830486.6094
  16738700.08646  13046121.57843  24066177.6094                   24066184.2464
 11  9 21 22 38 30.0000000  0  8G02G05G12G04G10G09G25G17
 -21684838.33648 -16891063.96946  20678123.4924                   20678121.7974
 -12076982.67248  -9398501.08646  21146970.2734                   21146971.7194
 -15697197.28548 -12216513.60946  20863559.5634                   20863560.1604
   5897814.59447   4636117.80544  22576150.9534                   22576154.2234
 -14040266.22748 -10867861.00046  21149014.7584                   21149016.5204
   4244699.60947   3310841.97743  24795719.8984                   24795729.6644
   -398704.27347   -298563.98845  22809600.6564                   22809606.0434
  16775867.20745  13075082.81344  24073251.3674                   24073258.0394
 11  9 21 22 39  0.0000000  0  8G02G05G12G04G10G09G25G17
 -21699946.75048 -16902836.75846  20675248.2734                   20675247.3484
 -12176076.46148  -9475716.93746  21128113.3674                   21128115.0004
 -15751471.00048 -12258804.79746  20853231.2664                   20853232.1484
   5949648.05547   4676507.45345  22586014.5864                   22586017.7664
 -14031197.27748 -10860794.31246  21150740.8364                   21150742.0944
   4298550.76247   3352803.69543  24805966.7274                   24805977.2504
   -508052.59447   -383770.39845  22788792.1724                   22788797.8484
  16813218.18046  13104187.34043  24080358.2034                   24080365.4024
 11  9 21 22 39 30.0000000  0  8G02G05G12G04G10G09G25G17
 -21714825.07048 -16914430.26646  20672417.0164                   20672415.7974
 -12274708.00848  -9552572.59846  21109344.1724                   21109345.6454
 -15805177.56648 -12300654.05946  20843011.6804                   20843012.0554
   6001532.49647   4716936.81645  22595887.9924                   22595890.7624
 -14021530.90248 -10853262.08246  21152580.3914                   21152580.9104
   4352351.59046   3394726.15643  24816204.8364                   24816215.1764
   -617020.93447   -468680.72745  22768056.6174                   22768061.8914
  16850752.82046  13133434.94944  24087501.2894                   24087507.9344
 11  9 21 22 40  0.0000000  0  8G02G05G12G04G10G09G25G17
 -21729471.88348 -16925843.35946  20669629.8754                   20669628.0004
 -12372872.53148  -9629064.35946  21090664.3834                   21090665.7974
 -15858313.86748 -12342058.96546  20832899.8914                   20832900.2464
   6053468.91047   4757406.67244  22605771.2274                   22605773.6054
 -14011266.49648 -10845263.86346  21154533.4064                   21154534.4614
   4406101.62146   3436609.03543  24826433.1254                   24826443.2584
   -725604.29747   -553291.08245  22747393.3674                   22747398.0554
  16888473.54746  13162827.55544  24094680.0474                   24094685.8524
 11  9 21 22 40 30.0000000  0  8G02G05G12G04G10G09G25G17
 -21743888.64148 -16937077.19546  20666886.5944                   20666884.4144
 -12470568.38748  -9705190.92246  21072073.4614                   21072075.0984
 -15910879.01248 -12383018.80546  20822896.8204                   20822897.5394
   6105455.75447   4797915.82044  22615664.4304                   22615665.9344
 -14000405.98848 -10836801.14846  21156600.0634                   21156601.9734
   4459797.29746   3478449.53543  24836651.1954                   24836663.0354
   -833800.47347   -637599.74245  22726804.6804                   22726808.0824
  16926380.23446  13192365.11344  24101892.9144                   24101898.5824
 11  9 21 22 41  0.0000000  0  7G02G05G12G04G10G25G17
 -21758078.49648 -16948134.22346  20664186.0784                   20664184.7504
 -12567795.24648  -9780952.02346  21053571.3134                   21053573.6804
 -15962873.89148 -12423534.29346  20813002.9844                   20813003.1214
   6157489.35547   4838461.42244  22625566.2504                   22625568.5274
 -13988953.29348 -10827876.99246  21158779.5234                   21158781.1334
   -941609.02347   -721606.37145  22706289.1884                   22706293.5274
  16964470.72746  13222045.85244  24109141.3914                   24109148.4494
 11  9 21 22 41 30.0000000  0  7G02G05G12G04G10G25G17
 -21772041.39848 -16959014.41046  20661529.1414                   20661527.9184
 -12664549.86348  -9856345.16446  21035159.7424                   21035161.3054
 -16014296.51248 -12463603.87146  20803217.3364                   20803217.6724
   6209569.48447   4879043.26244  22635476.2894                   22635479.3054
 -13976908.85248 -10818491.71946  21161071.5004                   21161072.7274
  -1049026.30148   -805308.10245  22685848.3674                   22685852.6294
  17002746.64546  13251871.07044  24116425.9454                   24116431.6914
 11  9 21 22 42  0.0000000  0  7G02G05G12G04G10G25G17
 -21785766.18048 -16969709.05546  20658917.5164                   20658916.2814
 -12760817.97748  -9931359.18046  21016840.3204                   21016842.1644
 -16065133.01648 -12503216.71546  20793543.2274                   20793543.9494
   6261707.22347   4919669.98844  22645397.9614                   22645401.2194
 -13964261.82448 -10808636.90246  21163477.7584                   21163479.8984
  -1156037.45748   -888693.37545  22665484.8914                   22665488.9844
  17041220.06346  13281850.17643  24123747.2194                   24123752.5904
 11  9 21 22 42 30.0000000  0  7G02G05G12G04G10G25G17
 -21799250.52348 -16980216.34046  20656351.4064                   20656349.6254
 -12856593.62948 -10005989.48446  20998614.5944                   20998616.2624
 -16115379.18748 -12542369.57446  20783982.1644                   20783982.2624
   6313905.07847   4960343.55544  22655331.3204                   22655334.2894
 -13951009.97348 -10798310.80946  21165999.5554                   21166001.9964
  -1262636.19147   -971757.29345  22645199.8054                   22645203.7194
  17079894.96146  13311986.32443  24131106.7974                   24131111.6994
 11  9 21 22 43  0.0000000  0  7G02G05G12G04G10G25G17
 -21812495.46948 -16990537.06246  20653831.1804                   20653829.3674
 -12951874.85548 -10080234.52046  20980482.9454                   20980484.8094
 -16165033.97748 -12581061.60546  20774532.9844                   20774532.9264
   6366161.36347   5001062.64545  22665275.1564                   22665278.1374
 -13937155.41848 -10787515.07446  21168636.4844                   21168638.5744
  -1368820.15647  -1054498.00045  22624993.4064                   22624998.1094
  17118771.44546  13342279.60943  24138504.9774                   24138509.1994
 11  9 21 22 43 30.0000000  0  7G02G05G12G04G10G25G17
 -21825510.70748 -17000678.82046  20651354.1884                   20651352.9344
 -13046668.10948 -10154099.31246  20962444.7034                   20962445.8054
 -16214104.91848 -12619298.69146  20765194.9694                   20765195.2504
   6418466.30547   5041819.66444  22675228.2734                   22675230.8164
 -13922708.71548 -10776257.92246  21171385.6254                   21171387.5204
  -1474595.45747  -1136920.25845  22604865.0314                   22604869.8674
  17157840.68446  13372723.03943  24145939.6884                   24145943.9264
 11  9 21 22 44  0.0000000  0  7G02G05G12G04G10G25G17
 -21838300.85248 -17010645.18046  20648920.6484                   20648919.2814
 -13140974.73448 -10227584.93046  20944498.5084                   20944499.7194
 -16262595.04748 -12657083.18746  20755967.7034                   20755968.4344
   6470814.75447   5082610.55944  22685189.9924                   22685192.7034
 -13907675.14848 -10764543.44946  21174246.0394                   21174247.7664
  -1579963.32847  -1219025.05145  22584814.5474                   22584818.9024
  17197098.89847  13403313.69143  24153410.2424                   24153414.3794
 11  9 21 22 44 30.0000000  0  7G02G05G12G04G10G25G17
 -21850868.41048 -17020438.07446  20646528.7034                   20646527.2504
 -13234793.73448 -10300690.55146  20926645.2034                   20926647.0904
 -16310504.38748 -12694415.12946  20746850.8834                   20746851.5784
   6523204.58647   5123433.72344  22695159.4304                   22695161.7974
 -13892057.30547 -10752373.70346  21177218.4384                   21177219.1524
  -1684922.28947  -1300811.20745  22564841.6094                   22564845.5004
  17236545.10947  13434050.85243  24160917.2114                   24160921.7304
 11  9 21 22 45  0.0000000  0  7G02G05G12G04G10G25G17
 -21863215.41048 -17030059.11746  20644178.9694                   20644177.9494
 -13328124.33648 -10373415.60946  20908885.0394                   20908887.1174
 -16357832.78148 -12731294.38347  20737844.6804                   20737844.6334
   6575633.45747   5164287.31345  22705136.6414                   22705138.6524
 -13875857.82447 -10739750.73846  21180300.5004                   21180302.7854
  -1789470.68747  -1382277.46945  22544946.0864                   22544950.7854
  17276178.95346  13464934.22343  24168458.3914                   24168464.0594
 11  9 21 22 45 30.0000000  0  7G02G05G12G04G10G25G17
 -21875345.26248 -17039510.96146  20641871.2274                   20641869.6054
 -13420966.52348 -10445760.10946  20891217.8284                   20891220.1454
 -16404581.60248 -12767722.02346  20728948.5944                   20728948.3834
   6628097.88747   5205168.61344  22715120.4384                   22715122.6844
 -13859081.05547 -10726677.93746  21183493.2344                   21183495.0904
  -1893608.48447  -1463423.76245  22525129.5474                   22525133.8754
  17315997.69546  13495961.67643  24176035.0084                   24176040.9494
 11  9 21 22 46  0.0000000  0  7G02G05G12G04G10G25G17
 -21887261.21948 -17048796.14146  20639603.8984                   20639602.2544
 -13513320.78148 -10517724.37946  20873643.6174                   20873645.7664
 -16450752.62148 -12803699.42646  20720162.8054                   20720162.7974
   6680594.12547   5246074.69144  22725109.6884                   22725112.6524
 -13841731.28947 -10713158.65646  21186794.9694                   21186796.7074
  -1997335.54747  -1544250.00045  22505390.9534                   22505395.2304
  17355999.27746  13527131.58643  24183648.1414                   24183654.1604
 11  9 21 22 46 30.0000000  0  7G02G05G12G04G10G25G17
 -21898961.18048 -17057913.00046  20637377.0084                   20637375.6954
 -13605181.82448 -10589304.34446  20856162.7034                   20856164.5044
 -16496341.77048 -12839223.41846  20711487.1334                   20711487.3594
   6733124.19947   5287007.15244  22735106.1804                   22735108.7304
 -13823807.15248 -10699191.80546  21190205.9144                   21190207.6094
  -2100646.28947  -1624751.82045  22485731.1174                   22485735.4144
  17396186.75046  13558446.37143  24191295.4774                   24191302.4384
 11  9 21 22 47  0.0000000  0  7G02G05G12G04G10G25G17
 -21910448.93448 -17066864.49246  20635191.0234                   20635189.2034
 -13696550.06248 -10660500.29746  20838775.8594                   20838777.5044
 -16541350.28948 -12874294.96946  20702922.2814                   20702922.7774
   6785684.35547   5327963.05544  22745108.1414                   22745111.4224
 -13805312.75448 -10684780.56646  21193725.7814                   21193726.7584
  -2203540.54747  -1704929.13345  22466151.0864                   22466155.1684
  17436557.77746  13589904.17643  24198977.5164                   24198985.0664
 11  9 21 22 47 30.0000000  0  7G02G05G12G04G10G25G17
 -21921720.46948 -17075647.52746  20633046.3594                   20633044.8284
 -13787418.93448 -10731307.14146  20821484.1884                   20821485.5434
 -16585772.88748 -12908909.97346  20694468.9064                   20694469.2814
   6838278.34447   5368945.32845  22755116.5004                   22755120.0274
 -13786244.96947 -10669922.57045  21197354.0314                   21197355.3634
  -2306011.09847  -1784776.28945  22446651.9064                   22446656.1214
  17477117.18446  13621508.74242  24206695.0554                   24206702.6484
 11  9 21 22 48  0.0000000  0  7G02G05G12G04G10G25G17
 -21932777.57048 -17084263.45746  20630942.3914                   20630940.0514
 -13877786.93048 -10801723.69546  20804287.5634                   20804288.2034
 -16629609.59448 -12943068.44146  20686127.0554                   20686127.7624
   6890904.21547   5409952.44145  22765131.2734                   22765134.7584
 -13766606.53147 -10654619.87946  21201090.8284                   21201092.1604
  -2408056.19947  -1864291.90245  22427233.1414                   22427237.5824
  17517864.34045  13653259.63742  24214449.3984                   24214456.9024
 11  9 21 22 48 30.0000000  0  7G02G05G12G04G10G25G17
 -21943624.47747 -17092715.59046  20628878.0474                   20628876.7274
 -13967654.91048 -10871750.60946  20787186.2974                   20787187.1524
 -16672862.25048 -12976771.78946  20677896.1564                   20677896.8204
   6943557.97347   5450981.31644  22775150.7584                   22775154.5704
 -13746402.57447 -10638876.52746  21204935.7344                   21204937.2154
  -2509676.27347  -1943476.33245  22407895.5314                   22407899.5204
  17558796.39545  13685154.62143  24222238.5554                   24222246.9534
 11  9 21 22 49  0.0000000  0  7G02G05G12G04G10G25G17
 -21954262.19148 -17101004.72346  20626853.7894                   20626852.9064
 -14057021.20348 -10941386.61746  20770180.4774                   20770181.0204
 -16715530.35548 -13010019.66446  20669776.9534                   20669777.2584
   6996238.22747   5492030.80945  22785175.8914                   22785179.3284
 -13725635.00847 -10622694.02046  21208887.8054                   21208888.4104
  -2610869.05147  -2022327.81645  22388639.1954                   22388643.9304
  17599913.22346  13717193.55543  24230063.8914                   24230071.8444
 11  9 21 22 49 30.0000000  0  7G02G05G12G04G10G25G17
 -21964690.67247 -17109130.81246  20624869.3054                   20624867.8284
 -14145882.58648 -11010629.18746  20753270.3754                   20753271.6954
 -16757611.92248 -13042810.48846  20661769.1334                   20661769.0824
   7048944.87147   5533100.87544  22795205.0474                   22795209.5354
 -13704304.52747 -10606072.89546  21212946.6024                   21212947.9884
  -2711630.92647  -2100843.51245  22369464.9384                   22369469.2114
  17641216.01646  13749377.45743  24237923.5944                   24237931.1054
 11  9 21 22 50  0.0000000  0  7G02G05G12G04G10G25G17
 -21974911.37948 -17117094.99646  20622924.2194                   20622923.0984
 -14234237.62548 -11079477.18746  20736456.8444                   20736459.1994
 -16799106.90247 -13075144.23446  20653872.9694                   20653872.8594
   7101676.50446   5574190.38744  22805239.4144                   22805243.6054
 -13682413.67247 -10589015.07846  21217112.3054                   21217114.1644
  -2811960.01647  -2179021.96545  22350372.7894                   22350377.4574
  17682704.07046  13781705.63743  24245819.2114                   24245825.9344
 11  9 21 22 50 30.0000000  0  7G02G05G12G04G10G25G17
 -21984923.06647 -17124896.31246  20621019.3204                   20621017.8554
 -14322082.06648 -11147927.31246  20719740.6884                   20719742.4734
 -16840011.89848 -13107018.25446  20646088.6884                   20646089.0824
   7154433.97747   5615300.05144  22815278.9304                   22815283.8054
 -13659962.06648 -10571520.32846  21221384.7424                   21221385.8284
  -2911851.66847  -2256859.56645  22331363.6174                   22331368.7504
  17724379.87846  13814180.18043  24253749.8754                   24253756.9104
 11  9 21 22 51  0.0000000  0  7G02G05G12G04G10G25G17
 -21994730.00048 -17132538.05946  20619152.9144                   20619151.4884
 -14409417.87948 -11215981.12546  20703121.0084                   20703122.1174
 -16880330.49647 -13138435.34846  20638416.1334                   20638416.6994
   7207213.27047   5656426.70744  22825322.6884                   22825326.7734
 -13636954.55947 -10553592.42246  21225763.1254                   21225763.4884
  -3011306.50447  -2334356.78545  22312438.0944                   22312442.3634
  17766240.30146  13846798.53543  24261716.5554                   24261722.5824
 11  9 21 22 51 30.0000000  0  7G02G05G12G04G10G25G17
 -22004333.30548 -17140021.14546  20617325.1954                   20617324.3364
 -14496242.53948 -11283636.62146  20686598.5784                   20686600.1994
 -16920061.36348 -13169394.46546  20630856.3444                   20630856.5474
   7260013.15247   5697569.41044  22835369.7344                   22835374.5394
 -13613393.52047 -10535233.18445  21230246.3204                   21230247.5824
  -3110322.18047  -2411511.77745  22293596.0084                   22293600.2704
  17808285.18046  13879560.65643  24269717.0314                   24269723.3284
 11  9 21 22 52  0.0000000  0  7G02G05G12G04G10G25G17
 -22013731.36348 -17147344.31246  20615537.0634                   20615535.7814
 -14582551.75448 -11350890.48846  20670174.8054                   20670176.2664
 -16959201.52048 -13199893.30146  20623407.9224                   20623407.9144
   7312835.02047   5738729.23845  22845421.9454                   22845426.6644
 -13589278.33247 -10516442.15245  21234835.4614                   21234836.8524
  -3208893.66047  -2488320.67645  22274838.5864                   22274842.7624
  17850517.33246  13912468.69142  24277753.0704                   24277761.3914
 11  9 21 22 52 30.0000000  0  7G02G05G12G04G10G25G17
 -22022924.71547 -17154507.96946  20613787.5944                   20613785.8794
 -14668343.34448 -11417740.99246  20653849.1334                   20653850.4414
 -16997749.64548 -13229930.79746  20616072.5704                   20616072.7584
   7365678.35947   5779905.80145  22855477.5084                   22855483.3914
 -13564610.78547 -10497220.71946  21239529.4224                   21239531.2234
  -3307018.27747  -2564781.35545  22256166.3674                   22256170.0204
  17892936.71946  13945522.63742  24285825.9064                   24285833.5554
 11  9 21 22 53  0.0000000  0  7G02G05G12G04G10G25G17
 -20456491.75047 -15933910.85246  20911869.9534                   20911868.1334
 -13178190.38348 -10256582.78546  20937415.9224                   20937416.5984
 -15460281.75448 -12031903.89146  20908642.7664                   20908643.2384
   8993962.68047   7048698.69944  23165330.0004                   23165334.4024
 -11963971.57847  -9249969.41446  21544121.0474                   21544122.4804
  -1829268.02047  -1413287.57845  22537372.3524                   22537376.4574
  19510964.50845  15206323.39542  24593726.0314                   24593733.1524
 11  9 21 22 53 30.0000000  0  7G02G05G12G04G10G25G17
 -20465276.92247 -15940756.43446  20910198.1564                   20910196.7114
 -13262939.36748 -10322620.87546  20921288.3984                   20921290.0744
 -15497642.56648 -12061016.21146  20901533.3204                   20901533.3674
   9046847.72746   7089907.75444  23175393.7504                   23175397.2344
 -11938203.60948  -9229890.51646  21549024.8444                   21549026.5164
  -1926489.88347  -1489044.76645  22518871.2734                   22518875.7664
  19553760.76646  15239670.97342  24601871.2504                   24601877.8324
 11  9 21 22 54  0.0000000  0  7G02G05G12G04G10G25G17
 -20473860.89148 -15947445.25446  20908564.4694                   20908562.7894
 -13347165.60548 -10388251.64846  20905260.8984                   20905261.8244
 -15534409.90648 -12089666.09846  20894536.7274                   20894537.0044
   9099750.66047   7131130.71944  23185461.2664                   23185464.1724
 -11911889.62148  -9209386.12946  21554032.2894                   21554033.5704
  -2023257.93747  -1564448.34845  22500456.8754                   22500460.8634
  19596744.08245  15273164.35242  24610048.4774                   24610057.3054
 11  9 21 22 54 30.0000000  0  8G02G05G12G04G10G30G25G17
 -20482240.46148 -15953974.78546  20906970.1564                   20906968.3674
 -13430863.45748 -10453470.68746  20889333.6884                   20889334.6334
 -15570579.34048 -12117850.07446  20887653.7814                   20887653.7034
   9152674.44146   7172369.97344  23195532.3984                   23195534.7234
 -11885027.78948  -9188454.86346  21559143.7194                   21559145.1524
  13997227.47756  10918174.81353  24482259.2274                   24482262.6054
  -2119565.94947  -1639493.47745  22482130.3754                   22482134.5044
  19639918.57845  15306806.75842  24618263.8754                   24618273.7304
 11  9 21 22 55  0.0000000  0  9G02G05G12G04G10G30G25G17G29
 -20490433.93048 -15960359.30146  20905410.7424                   20905409.8134
 -13514048.33248 -10518290.01246  20873503.1414                   20873504.9384
 -15606168.25848 -12145581.71146  20880881.6254                   20880881.8594
   9205601.04746   7213611.39144  23205604.1254                   23205606.1564
 -11857637.43047  -9167111.76246  21564355.8134                   21564357.4264
  13873577.25046  10821824.08243  24458729.1414                   24458733.3954
  -2215428.89147  -1714191.78945  22463888.1414                   22463892.2114
  19683266.73445  15340584.48842  24626512.4144                   24626521.7304
  14016543.89856  10932148.81353  24767571.5864                   24767577.1294
 11  9 21 22 55 30.0000000  0  8G02G05G12G04G10G30G25G29
 -20498459.84448 -15966613.27746  20903883.6414                   20903882.5704
 -13596736.07048 -10582721.93746  20857768.5784                   20857769.9184
 -15641193.65248 -12172874.23846  20874216.5164                   20874216.6604
   9258511.87947   7254840.53544  23215672.4224                   23215675.0314
 -11829738.19947  -9145372.13345  21569664.7974                   21569666.3054
  13750219.50045  10725701.27043  24435254.7584                   24435259.5704
  -2310861.89147  -1788555.09845  22445727.9384                   22445732.3984
  13905491.59446  10845614.62943  24746438.5944                   24746445.1054
 11  9 21 22 56  0.0000000  0  8G02G05G12G04G10G30G25G29
 -20506315.30948 -15972734.43446  20902388.8054                   20902387.3484
 -13678921.10548 -10646762.15246  20842129.5474                   20842130.2774
 -15675650.68048 -12199723.88346  20867659.4224                   20867659.7464
   9311409.57447   7296059.42643  23225738.3134                   23225741.4734
 -11801328.54747  -9123234.78145  21575071.1564                   21575072.1954
  13627160.64145  10629811.35243  24411836.4304                   24411842.3094
  -2405858.85947  -1862578.62545  22427650.4384                   22427654.0084
  13794352.93046  10759013.19943  24725289.5394                   24725296.5784
 11  9 21 22 56 30.0000000  0  8G02G05G12G04G10G30G25G29
 -20513983.53548 -15978709.67646  20900929.6024                   20900928.2194
 -13760583.77748 -10710395.34046  20826589.7194                   20826590.6174
 -15709521.44948 -12226116.70346  20861214.3524                   20861214.1914
   9364311.14147   7337281.33644  23235805.5864                   23235808.4384
 -11772392.64147  -9100687.36345  21580577.6954                   21580578.3524
  13504421.48045  10534170.55543  24388480.2194                   24388485.3874
  -2500399.62547  -1936246.69945  22409659.6804                   22409663.8444
  13683146.31346  10672358.78942  24704126.9304                   24704134.8954
 11  9 21 22 57  0.0000000  0  8G02G05G12G04G10G30G25G29
 -20521452.26648 -15984529.48446  20899508.4304                   20899506.9384
 -13841709.47748 -10773610.09846  20811151.8524                   20811152.8554
 -15742792.49248 -12252042.20746  20854882.7194                   20854883.3364
   9417228.71546   7378515.76243  23245875.4924                   23245878.4454
 -11742919.69947  -9077721.45345  21586185.7034                   21586187.0234
  13382018.02745  10438791.27742  24365186.5004                   24365192.7504
  -2594468.80147  -2009547.29346  22391759.0864                   22391763.6374
  13571885.54346  10585662.23043  24682954.2274                   24682962.7974
 11  9 21 22 57 30.0000000  0  8G02G05G12G04G10G30G25G29
 -20528715.86348 -15990189.43746  20898126.1884                   20898124.7424
 -13922289.87948 -10836399.95346  20795817.5864                   20795819.0434
 -15775456.75848 -12277494.89546  20848667.1644                   20848667.6334
   9470167.72346   7419766.86743  23255949.0554                   23255952.9454
 -11712905.16447  -9054333.54345  21591897.9384                   21591899.1334
  13259959.62946  10343680.94143  24341960.8204                   24341966.0004
  -2688057.43047  -2082473.43746  22373950.0864                   22373954.5004
  13460577.99655  10498929.33253  24661773.4614                   24661780.0434
 11  9 21 22 58  0.0000000  0  8G02G05G12G04G10G30G25G29
 -20535781.12148 -15995694.84046  20896782.0004                   20896780.3444
 -14002329.26248 -10898768.24646  20780586.9304                   20780587.7734
 -15807519.70348 -12302479.02046  20842565.8834                   20842566.3984
   9523121.73446   7461029.66843  23266026.0314                   23266030.3204
 -11682357.27347  -9030530.00845  21597710.6094                   21597712.5474
  13138243.21546  10248837.08643  24318798.9534                   24318804.7114
  -2781169.07047  -2155027.91046  22356231.3984                   22356236.0594
  13349218.59846  10412155.91843  24640583.1954                   24640587.9494
 11  9 21 22 58 30.0000000  0  8G02G05G12G04G10G30G25G29
 -20542647.68748 -16001045.41846  20895474.9384                   20895473.6954
 -14081824.40648 -10960712.45746  20765459.4384                   20765461.0984
 -15838979.64547 -12326993.27046  20836579.1024                   20836579.5314
   9576090.85946   7502304.25443  23276105.9304                   23276110.3324
 -11651276.84447  -9006311.52745  21603624.9224                   21603626.5234
  13016873.06346  10154263.03543  24295703.5704                   24295708.4924
  -2873800.20747  -2227207.94546  22338604.3754                   22338608.6804
  13237809.34446  10325343.69944  24619382.1484                   24619387.8914
 11  9 21 22 59  0.0000000  0  8G02G05G12G04G10G30G25G29
 -20549316.64848 -16006242.01646  20894206.1334                   20894204.5474
 -14160774.19148 -11022231.69946  20750435.9144                   20750436.9534
 -15869836.68748 -12351037.71946  20830707.5004                   20830707.8914
   9629074.29747   7543589.98843  23286188.5394                   23286193.0354
 -11619666.04747  -8981679.77345  21609640.7424                   21609641.3444
  12895851.73846  10059960.80543  24272673.8834                   24272677.5664
  -2965948.67247  -2299011.87946  22321068.9384                   22321073.1174
  13126350.51247  10238492.83244  24598173.2424                   24598178.0124
 11  9 21 22 59 30.0000000  0  8G02G05G12G04G10G30G25G29
 -20555788.71948 -16011285.19146  20892974.3984                   20892972.8484
 -14239176.68748 -11083324.48846  20735516.1174                   20735517.1954
 -15900089.88748 -12374611.66046  20824950.2974                   20824950.5984
   9682071.22346   7584886.24643  23296273.9454                   23296278.0394
 -11587526.97747  -8956636.37945  21615756.0164                   21615757.0234
  12775182.43046   9965932.88743  24249711.0634                   24249714.0124
  -3057611.98447  -2370437.77746  22303625.9144                   22303629.4494
  13014843.39847  10151604.32844  24576953.8444                   24576958.6334
 11  9 21 23  0  0.0000000  0  8G02G05G12G04G10G30G25G29
 -20562064.60248 -16016175.48846  20891780.0164                   20891778.7194
 -14317030.48048 -11143989.70746  20720700.8134                   20720701.6764
 -15929739.10948 -12397714.95746  20819308.3444                   20819308.4454
   9735080.93446   7626192.44943  23306360.9614                   23306364.8094
 -11554862.07447  -8931183.22745  21621972.0394                   21621973.8754
  12654867.88746   9872181.38743  24226815.5004                   24226819.2774
  -3148787.87147  -2441483.87946  22286275.6804                   22286279.2034
  12903288.43047  10064678.54744  24555724.9694                   24555729.5124
 11  9 21 23  0 30.0000000  0  8G02G05G12G04G10G30G25G29
 -20568143.68748 -16020912.44546  20890623.7584                   20890622.1994
 -14394332.03148 -11204224.62146  20705990.9694                   20705991.9304
 -15958782.91448 -12420346.48846  20813781.5234                   20813781.4304
   9788103.94546   7667508.98843  23316451.0634                   23316455.3874
 -11521671.93047  -8905320.79745  21628288.3364                   21628290.6024
  12534912.60246   9778709.85243  24203988.4924                   24203992.3404
  -3239472.52047  -2512147.20346  22269018.8364                   22269022.7424
  12791688.10547   9977717.40244  24534487.8674                   24534493.5634
 11  9 21 23  1  0.0000000  0  8G02G05G12G04G10G30G25G29
 -20574028.59448 -16025498.07846  20889503.2504                   20889502.4574
 -14471081.70748 -11264029.51646  20691385.8984                   20691387.3324
 -15987222.65648 -12442507.34047  20808369.3914                   20808369.8524
   9841137.80146   7708833.97743  23326543.7424                   23326547.5594
 -11487960.27747  -8879052.00845  21634703.7894                   21634704.6604
  12415317.67246   9685519.09443  24181230.1884                   24181233.2504
  -3329665.42647  -2582427.32446  22251856.0554                   22251859.9104
  12680041.45347   9890720.12144  24513241.3984                   24513249.2424
 11  9 21 23  1 30.0000000  0  8G02G05G12G04G10G30G25G29
 -20579718.39848 -16029931.71546  20888420.6094                   20888419.4884
 -14547276.15248 -11323401.76246  20676886.5784                   20676887.9064
 -16015055.99248 -12464195.64147  20803072.9774                   20803073.9184
   9894183.55146   7750168.25443  23336637.0864                   23336641.1564
 -11453727.87547  -8852377.44545  21641217.7424                   21641219.2584
  12296087.81346   9592612.81643  24158541.7584                   24158544.1994
  -3419362.43048  -2652321.02746  22234786.9224                   22234791.2304
  12568351.17247   9803688.82844  24491988.1334                   24491994.2034
 11  9 21 23  2  0.0000000  0  8G02G05G12G04G10G30G25G29
 -20585216.03948 -16034215.59446  20887374.8284                   20887373.9064
 -14622916.03548 -11382341.85946  20662492.4694                   20662494.0274
 -16042284.98048 -12485413.04746  20797891.4384                   20797891.5824
   9947238.41046   7791509.66843  23346733.4384                   23346737.0664
 -11418978.77347  -8825300.25045  21647830.1334                   21647831.2274
  12177223.89546   9499991.66043  24135923.0164                   24135925.7894
  -3508563.38347  -2721828.20746  22217812.6954                   22217816.6844
  12456615.84847   9716622.47344  24470724.9224                   24470730.8984
 11  9 21 23  2 30.0000000  0  8G02G05G12G04G10G30G25G29
 -20590522.81648 -16038350.74246  20886364.5634                   20886363.7114
 -14698000.10948 -11440848.85947  20648204.9694                   20648205.5234
 -16068909.84448 -12506159.68446  20792824.7664                   20792825.5394
  10000301.23446   7832857.23443  23356830.9304                   23356834.4804
 -11383715.68747  -8797822.56245  21654540.3364                   21654542.0164
  12058728.23846   9407657.45743  24113373.6414                   24113376.7194
  -3597266.52047  -2790947.46946  22200932.5004                   22200936.0594
  12344836.10947   9629521.46144  24449454.1174                   24449459.9024
 11  9 21 23  3  0.0000000  0  8G02G05G12G04G10G30G25G29
 -20595638.96548 -16042337.35246  20885391.0784                   20885389.7814
 -14772526.70348 -11498921.45747  20634022.8754                   20634023.9384
 -16094930.22348 -12526435.30546  20787873.1414                   20787873.7664
  10053371.55545   7874210.62543  23366929.3364                   23366934.2934
 -11347940.50047  -8769945.81245  21661348.1414                   21661349.5744
  11940604.04346   9315612.70343  24090895.1724                   24090898.6524
  -3685469.29747  -2859676.82846  22184148.1024                   22184151.8524
  12233012.89547   9542386.57844  24428175.2584                   24428180.3244
 11  9 21 23  3 30.0000000  0  8G02G05G12G04G10G30G25G29
 -20600566.38348 -16046176.89846  20884453.5234                   20884452.3554
 -14846495.00448 -11556559.03947  20619946.7274                   20619948.0704
 -16120346.82848 -12546240.46546  20783036.7424                   20783037.2344
  10106447.52346   7915568.39843  23377029.9844                   23377035.2814
 -11311656.57847  -8741672.65245  21668252.5704                   21668254.4264
  11822853.34446   9223858.99243  24068487.7114                   24068491.2074
  -3773170.39148  -2928015.25846  22167459.0164                   22167462.6954
  12121146.38746   9455217.94543  24406887.4454                   24406893.4144
 11  9 21 23  4  0.0000000  0  8G02G05G12G04G10G30G25G29
 -20605304.82448 -16049869.18746  20883551.6484                   20883550.5394
 -14919902.34048 -11613759.49647  20605977.4454                   20605978.6844
 -16145158.08248 -12565573.91046  20778315.5314                   20778315.3444
  10159529.64146   7956931.02743  23387131.2424                   23387135.2934
 -11274865.00447  -8713003.91845  21675253.8914                   21675255.8094
  11705479.94145   9132399.34043  24046151.3674                   24046156.0864
  -3860366.48047  -2995960.19946  22150866.2894                   22150870.4064
  12009238.55946   9368017.12543  24385592.4144                   24385596.0784
 11  9 21 23  4 30.0000000  0  8G02G05G12G04G10G30G25G29
 -20609855.15248 -16053414.90646  20882685.6334                   20882684.7504
 -14992747.89148 -11670522.18747  20592115.3914                   20592117.3404
 -16169364.66048 -12584436.18447  20773708.9844                   20773709.4774
  10212616.92246   7998297.67643  23397233.5084                   23397237.4264
 -11237568.64147  -8683941.84045  21682351.3594                   21682353.2584
  11588486.34846   9041235.68843  24023888.4304                   24023893.4614
  -3947055.89148  -3063510.31246  22134369.4144                   22134373.2934
  11897289.60946   9280784.29743  24364288.1804                   24364291.3594
